GFSSGP_250_spd_000.txt.gz
Wind_Speed
56 60 66 70 70 72 71 71 70 67 65 65 61 62 60 55 53 50 50 49 50 50 45 42 41 38 36 37 36 39 38 35 38 41 42 44 46 46 49 52 53 57 57 58 59 59 61 60 60
54 55 60 66 69 75 69 72 74 71 71 70 68 62 64 60 57 54 53 51 52 52 50 45 46 45 42 44 42 37 34 40 42 43 45 48 51 53 54 56 59 60 61 62 62 65 64 67 68
55 53 56 58 64 68 70 72 78 75 75 71 69 65 64 64 61 56 54 55 54 53 51 47 50 46 44 43 42 39 42 45 45 48 49 47 47 50 53 54 57 60 60 63 64 65 65 65 65
61 56 55 56 61 65 72 72 76 78 77 74 71 70 66 67 65 62 59 57 56 54 54 51 53 51 44 41 46 49 49 46 47 46 45 47 49 53 56 59 58 59 59 64 67 67 69 67 63
65 62 57 58 61 63 69 74 76 78 76 76 76 71 65 63 69 66 61 61 62 59 54 55 54 51 49 48 49 49 47 46 46 47 51 51 54 58 62 62 63 64 65 69 68 65 63 64 62
66 67 64 64 62 60 61 73 77 80 79 79 78 76 74 68 65 70 68 65 63 62 59 58 55 56 55 53 52 48 45 48 50 52 53 55 62 66 67 68 69 68 68 67 67 65 60 57 55
66 70 69 69 66 60 64 64 79 79 77 83 81 76 74 74 69 62 72 71 67 63 60 58 59 58 56 56 49 47 48 52 53 55 57 61 63 64 66 69 67 67 67 65 61 56 52 50 51
63 64 72 72 73 69 66 66 67 78 76 80 87 80 76 74 74 68 63 64 63 65 67 62 59 57 59 50 47 49 53 55 58 61 63 64 63 65 66 66 69 64 62 59 56 49 47 48 50
59 58 68 77 79 79 72 66 64 64 77 82 82 83 78 74 75 72 69 65 65 65 60 52 48 61 52 54 53 54 59 61 65 69 68 66 66 67 67 68 67 62 58 54 47 44 46 49 49
50 55 67 76 80 79 74 68 65 66 65 82 82 80 78 75 75 75 76 70 70 68 64 65 60 54 53 55 58 60 63 66 69 71 70 68 72 69 70 67 63 57 54 46 43 45 47 50 51
52 50 57 69 78 81 77 72 69 68 67 68 76 76 75 75 80 79 79 73 71 68 69 65 62 67 64 62 64 65 68 68 70 74 73 73 71 69 66 63 59 53 48 43 44 47 48 48 48
48 52 56 64 71 78 81 77 73 70 72 69 65 71 71 74 76 80 77 73 69 70 70 67 66 67 68 67 67 70 68 69 71 71 70 68 66 65 63 60 54 47 44 43 46 48 48 47 47
50 56 58 63 66 72 80 79 77 73 75 69 68 64 68 70 74 77 74 72 73 73 70 68 67 67 67 65 65 66 67 66 67 65 66 64 63 62 58 55 45 42 43 44 48 48 46 45 46
53 57 60 66 70 69 74 80 77 79 80 72 68 64 62 66 69 72 73 70 68 70 69 70 65 66 68 67 67 70 69 66 66 64 66 62 58 56 54 47 42 43 43 44 44 43 42 43 43
52 54 60 64 72 74 72 73 79 86 83 76 70 66 60 61 63 62 68 71 72 72 68 68 66 70 70 67 70 71 69 67 66 65 61 54 54 55 49 44 42 44 41 43 42 42 41 41 43
53 54 56 60 66 77 74 66 75 84 86 78 74 68 63 59 62 62 58 67 72 72 70 70 68 71 72 74 72 70 68 65 62 52 52 54 52 49 43 44 43 43 42 42 42 42 40 41 43
52 52 55 55 60 67 78 71 73 79 86 81 77 72 65 61 59 57 55 56 60 68 71 70 69 72 72 69 67 65 57 54 49 49 51 49 44 44 42 45 44 45 45 45 44 44 44 46 47
50 52 56 56 58 63 74 76 77 77 84 82 79 72 68 63 58 53 50 49 48 49 58 63 68 70 66 64 62 58 49 45 46 46 44 38 41 43 43 44 43 46 49 49 49 49 48 50 52
57 51 49 53 57 63 60 72 79 80 82 80 80 74 69 66 57 52 48 45 45 43 45 47 51 52 50 53 52 45 39 42 43 45 40 39 42 41 42 44 46 48 48 49 50 51 51 51 53
61 53 49 56 61 61 63 61 77 80 79 77 80 75 72 67 57 50 47 44 44 43 42 44 45 44 44 44 39 37 39 40 44 41 40 41 39 38 39 42 45 44 45 46 47 50 51 52 53
64 58 59 62 70 66 64 63 70 75 84 77 79 76 73 67 57 48 45 43 42 41 39 40 40 40 37 35 35 36 39 41 37 36 36 36 37 35 37 40 41 43 44 46 48 51 55 57 56
67 67 69 69 71 66 73 65 69 75 83 79 76 74 74 68 57 48 44 42 41 40 38 38 37 33 32 34 33 36 38 37 37 37 38 40 38 40 42 44 45 46 48 50 52 55 58 62 64
70 76 73 73 72 75 69 62 60 68 79 81 73 74 74 69 57 48 45 43 42 41 39 37 34 33 29 29 31 34 36 38 40 40 40 43 43 44 46 47 48 51 53 56 59 61 63 66 69
82 81 78 77 79 71 66 61 49 61 66 83 76 73 75 68 57 51 45 43 44 41 39 38 38 33 33 34 35 36 40 41 42 42 44 44 44 46 50 51 54 56 59 63 67 69 71 74 74
85 87 85 81 74 52 67 56 42 59 68 81 74 75 76 67 56 51 47 45 45 44 42 41 40 35 35 35 37 38 40 40 42 46 47 47 49 52 56 58 61 64 68 72 76 77 78 81 82
86 88 81 69 62 63 72 41 45 66 75 77 75 75 75 63 55 51 48 47 48 46 44 43 42 41 41 39 40 41 43 44 46 49 51 52 54 58 61 65 68 71 74 78 82 83 88 89 88
59 53 66 62 58 61 52 47 62 76 68 71 71 70 70 62 56 52 50 49 49 47 46 45 44 45 43 41 42 45 46 47 50 52 53 56 60 64 67 71 75 79 81 85 88 92 92 92 90
35 45 38 38 44 44 45 57 64 64 60 69 69 74 71 62 55 51 51 51 50 48 49 48 46 47 46 46 47 48 49 51 54 56 58 61 65 69 74 78 81 85 88 92 96 96 94 92 91
27 30 37 51 52 49 50 54 62 62 65 71 73 74 67 61 54 51 50 51 52 52 53 51 50 50 49 48 49 50 52 56 60 61 63 68 72 76 82 85 88 92 96 100 99 96 92 90 92
39 52 57 56 55 54 55 64 64 67 73 74 69 70 64 56 52 50 49 52 54 55 55 54 53 52 51 52 53 55 59 62 64 68 71 75 80 84 88 91 95 99 103 102 96 93 92 94 96

GFSSGP_250_spd_003.txt.gz
Wind_Speed
72 73 69 70 66 67 67 62 63 68 69 70 69 64 65 62 60 56 55 54 55 53 52 51 49 44 40 42 42 39 41 42 43 42 31 35 39 42 44 46 46 48 50 54 57 58 62 64 65
66 64 61 60 61 62 64 65 65 69 72 73 72 67 67 65 64 62 57 56 56 56 55 54 51 47 45 43 44 45 45 44 46 41 37 44 45 47 49 47 49 50 50 52 56 59 60 63 63
60 58 55 52 53 59 61 64 70 72 74 73 74 71 68 67 67 66 63 60 58 58 58 56 52 50 47 44 46 51 46 43 40 39 46 48 48 47 46 50 52 53 56 59 62 63 65 65 67
59 59 58 54 57 55 58 57 67 66 71 72 71 72 70 72 71 66 66 67 63 60 60 58 55 53 51 48 48 52 50 47 46 47 50 47 47 46 49 54 56 62 63 66 67 69 69 72 72
60 61 60 60 63 58 55 55 58 69 73 72 73 75 73 74 74 70 69 67 69 67 63 61 58 55 53 52 52 54 55 53 50 50 52 47 47 52 52 55 59 63 65 66 69 67 67 68 68
58 61 61 65 68 62 58 58 59 61 71 74 72 76 76 78 75 73 73 72 71 72 68 65 62 59 60 56 55 55 54 59 55 50 47 47 51 53 55 59 64 68 67 70 65 66 69 68 66
55 56 60 67 70 65 66 61 63 60 65 74 72 73 78 78 79 76 76 74 70 69 72 70 66 64 62 61 59 58 60 60 59 49 46 49 54 58 63 66 69 71 68 70 71 70 69 66 62
53 53 56 63 69 71 70 68 67 62 61 67 76 74 75 78 78 76 74 76 72 67 66 72 71 69 67 64 61 59 61 58 55 50 54 55 59 65 68 71 74 77 74 71 73 70 65 59 58
52 49 56 62 67 73 71 71 70 66 62 65 69 79 78 75 76 78 78 79 80 77 72 66 64 71 67 62 56 60 45 53 58 55 57 59 63 68 71 75 76 76 74 71 72 68 62 57 51
48 46 52 61 65 70 66 68 72 70 69 67 67 67 78 78 75 75 80 81 80 77 75 73 67 65 67 68 64 62 62 62 54 60 62 62 68 71 71 71 71 69 68 72 71 63 55 51 47
49 46 51 56 61 65 66 66 71 75 75 76 69 62 64 78 77 75 77 81 81 78 74 73 74 69 65 64 64 64 64 64 66 67 69 69 70 68 70 71 69 68 72 72 64 53 48 46 46
47 51 53 56 58 62 63 65 69 74 80 78 75 66 63 63 73 82 76 75 77 81 75 75 73 72 69 67 68 70 66 64 65 69 70 68 68 72 71 70 70 71 72 61 56 46 43 46 47
47 52 54 56 57 59 63 61 63 71 81 82 79 72 65 66 64 69 75 75 76 79 76 76 74 73 71 69 69 69 68 67 67 69 67 69 69 74 72 69 70 68 63 55 45 42 43 44 46
51 49 52 53 56 59 62 63 62 65 79 83 82 77 71 65 65 62 62 70 72 72 76 76 74 74 72 70 70 69 68 69 68 68 69 69 70 75 71 67 64 64 58 48 43 41 40 43 43
49 53 53 51 55 58 64 60 59 67 71 81 82 80 76 67 66 64 62 60 61 66 70 73 72 72 72 70 69 69 68 69 70 71 71 72 72 67 63 63 62 57 47 42 43 45 46 48 48
49 50 52 53 56 58 64 57 67 69 70 71 81 79 77 72 70 66 63 61 59 58 62 69 72 70 66 64 64 68 65 66 67 68 70 70 68 68 58 59 53 46 42 42 44 46 47 50 54
51 50 54 54 58 58 59 56 66 72 72 72 73 78 79 76 73 70 65 60 57 56 57 56 61 68 71 70 68 69 69 67 68 70 67 67 61 56 55 51 43 42 43 43 45 46 48 50 52
58 53 55 54 56 55 50 55 64 71 72 76 72 74 79 78 77 73 66 62 57 54 56 57 60 58 57 66 71 70 68 69 70 68 59 55 54 51 50 44 43 45 44 44 45 45 47 49 51
60 57 55 55 56 58 49 50 62 68 72 75 75 68 73 79 78 72 70 65 59 54 53 52 54 52 53 56 57 56 56 57 54 51 51 49 47 47 46 44 42 39 39 41 42 43 44 47 50
65 63 60 60 60 58 55 48 57 62 67 72 75 71 68 74 78 75 71 68 61 53 52 51 50 49 43 42 44 45 47 48 48 47 46 45 45 43 40 40 39 41 43 44 46 48 48 50 52
72 72 69 65 66 62 57 47 57 59 62 65 71 73 68 67 74 75 72 69 62 54 52 50 49 46 41 40 41 43 44 44 43 43 41 42 41 41 42 44 45 46 47 48 51 53 54 55 55
80 80 77 71 68 63 60 44 54 57 60 57 60 73 70 66 72 74 72 70 63 53 51 51 48 43 39 38 39 39 40 38 38 37 37 39 40 41 44 46 47 50 51 52 55 58 61 63 65
80 80 77 75 71 67 59 52 49 56 53 54 56 63 73 69 69 72 74 68 61 53 50 50 45 41 38 38 38 36 37 35 34 36 38 40 42 44 46 49 51 52 53 55 57 61 65 69 72
84 83 83 80 77 62 64 54 47 58 57 61 63 64 71 74 68 71 71 67 61 54 51 49 44 40 40 39 37 38 37 37 38 39 41 41 44 46 49 53 55 56 57 60 64 67 71 75 79
86 88 88 86 79 61 68 56 35 54 58 60 60 61 64 76 70 70 69 69 61 55 52 49 44 42 41 41 41 41 40 40 41 42 43 44 47 51 53 57 58 61 62 65 70 75 79 83 86
81 85 83 86 78 76 81 44 35 52 60 66 63 61 57 68 72 68 69 68 62 56 53 50 46 43 43 45 44 44 45 44 47 46 46 48 51 55 58 61 63 66 68 72 77 83 88 91 93
85 85 91 89 83 83 71 51 49 56 64 70 63 62 55 62 72 71 72 68 62 57 55 51 47 46 47 48 47 48 49 48 48 47 49 53 56 59 62 65 69 72 75 79 85 91 94 98 102
79 78 75 72 72 68 63 55 52 59 65 67 60 59 58 62 73 72 70 68 62 57 54 51 50 49 49 49 50 50 51 51 50 52 55 58 61 63 67 71 75 77 81 86 92 97 101 105 108
46 44 45 50 52 50 55 60 73 72 73 61 62 63 61 67 75 75 71 66 60 55 54 53 52 52 52 52 52 53 53 53 54 56 60 63 66 69 73 77 79 82 87 93 98 102 107 110 113
26 29 29 35 43 44 48 62 67 70 66 60 63 62 60 69 73 70 66 64 58 56 55 55 55 55 55 54 55 56 56 55 58 62 64 68 72 74 77 80 83 89 94 100 104 109 113 115 104

GFSSGP_250_spd_006.txt.gz
Wind_Speed
65 67 67 67 66 67 67 68 68 69 68 72 69 65 63 63 62 58 61 60 58 58 56 53 51 50 50 49 49 45 41 39 42 44 42 38 42 39 36 38 42 44 46 48 50 50 51 57 60
67 65 67 67 66 68 68 69 68 68 69 71 71 69 67 66 66 64 62 62 61 60 60 57 53 52 52 51 51 48 44 44 43 45 45 38 39 41 41 45 47 48 46 49 52 52 56 59 63
64 65 65 65 67 69 68 66 64 66 68 72 72 73 70 69 70 68 66 65 64 64 62 61 58 56 54 53 51 50 48 46 45 47 49 41 44 45 48 50 50 48 49 51 51 54 59 64 64
63 63 63 61 65 67 64 62 61 61 64 69 69 70 70 72 72 72 71 69 68 67 66 64 63 60 58 56 55 53 51 49 46 49 50 49 51 51 52 51 52 49 51 53 52 60 64 65 71
56 57 56 55 61 63 62 60 57 57 58 61 64 69 73 76 77 71 74 73 70 72 69 67 64 61 61 60 58 56 54 52 50 51 53 52 55 54 53 49 49 52 54 56 63 68 71 75 76
51 54 54 58 64 62 59 61 60 59 58 59 60 64 73 74 75 75 72 74 73 74 73 71 68 66 65 63 62 60 57 56 55 53 54 53 58 59 57 48 50 55 58 64 69 73 76 76 72
52 51 50 56 62 62 66 63 63 65 60 58 57 58 68 70 72 77 77 75 73 76 74 73 70 70 69 68 66 65 62 60 61 60 60 60 62 60 56 51 53 57 60 66 71 75 73 68 67
53 50 51 55 62 63 63 64 65 66 62 59 59 58 61 69 69 71 77 77 77 73 74 75 74 72 73 72 72 70 68 64 65 64 64 65 57 54 52 55 55 60 64 68 70 72 69 67 71
52 50 53 57 60 63 58 58 63 66 63 62 63 62 61 61 70 74 73 77 79 79 75 75 75 73 71 69 70 71 72 71 64 64 55 52 55 58 57 57 62 68 72 71 72 71 68 68 70
47 46 54 58 59 60 56 54 59 63 66 67 68 66 62 61 61 71 75 71 76 80 80 79 78 74 75 71 67 65 62 63 68 69 67 63 66 67 63 65 69 71 72 73 70 73 72 69 66
46 43 51 57 58 57 55 53 55 60 65 70 70 67 66 62 62 65 71 80 74 72 77 79 77 76 73 74 76 75 72 66 62 63 65 65 65 65 68 67 70 70 71 72 72 73 69 66 58
46 48 52 54 58 58 57 51 52 57 63 67 68 69 70 69 65 66 68 73 77 76 73 75 76 77 76 75 74 74 72 70 68 66 65 67 68 68 67 70 69 71 71 72 69 68 66 61 48
46 51 50 53 57 58 60 52 49 52 62 64 69 69 70 71 70 69 68 68 70 76 77 75 74 73 74 75 76 74 72 71 70 69 70 70 71 69 71 70 71 72 71 67 72 66 63 48 42
47 49 49 53 55 58 57 57 51 55 60 64 66 68 70 72 74 71 69 69 68 69 72 72 71 73 74 74 74 75 73 70 70 70 69 70 69 69 69 69 67 69 66 66 64 62 49 41 39
55 52 50 53 57 60 62 53 50 57 57 63 65 65 69 72 74 75 73 72 71 67 62 65 69 67 68 73 74 71 71 70 69 69 70 69 67 64 65 68 67 67 63 61 58 52 43 42 42
59 58 59 60 59 56 63 46 54 56 60 59 66 65 65 70 74 75 76 75 72 68 65 62 62 64 66 68 68 70 69 66 64 63 64 65 61 65 69 69 69 65 58 55 55 46 45 43 43
65 59 60 60 60 60 55 50 58 58 58 57 62 66 66 66 72 75 77 77 75 69 65 62 61 59 59 59 59 60 65 65 63 63 62 63 66 69 71 68 65 57 54 50 48 46 43 41 43
71 68 65 64 61 59 55 50 55 58 56 57 60 62 65 65 67 73 74 76 76 73 68 63 62 62 60 57 53 52 54 58 64 68 69 70 69 70 68 58 54 51 51 44 43 41 40 44 46
74 73 65 65 66 63 58 53 54 57 56 54 54 60 64 65 69 70 72 75 74 75 70 64 61 61 56 52 52 53 56 59 59 59 62 63 65 59 57 53 50 49 45 42 42 42 44 47 49
83 83 73 70 73 69 68 55 56 55 53 51 51 54 60 66 69 70 71 72 74 72 70 66 63 60 53 50 48 47 47 49 51 52 52 52 52 51 51 50 47 44 41 43 45 46 49 51 53
84 82 82 78 76 73 69 58 57 55 52 50 48 50 57 62 67 71 70 69 72 70 70 68 64 61 51 49 47 45 46 48 46 45 48 48 47 47 47 44 41 41 43 44 48 49 52 53 55
85 86 88 88 85 79 77 59 58 55 50 46 46 42 49 59 65 70 71 68 69 71 68 67 64 60 53 49 46 45 47 47 45 45 44 44 42 41 41 40 41 43 46 49 52 53 56 58 61
87 93 95 97 93 87 80 66 55 61 54 44 43 44 49 54 59 65 68 70 66 67 69 65 63 61 54 50 48 45 45 45 44 43 42 40 40 41 41 41 44 47 50 53 55 58 61 63 66
83 87 89 89 90 82 82 71 56 57 56 46 46 48 52 54 55 60 66 68 65 64 65 66 65 62 55 50 47 45 44 44 42 41 40 40 42 43 43 45 47 51 54 58 60 63 67 69 72
84 84 83 80 79 62 77 72 48 53 54 49 49 52 53 55 50 52 60 67 66 62 64 64 66 62 54 50 46 46 45 44 43 43 43 45 46 46 47 49 53 56 59 62 66 69 71 74 79
71 71 69 69 66 65 72 53 52 56 58 55 55 58 57 54 53 55 57 63 64 61 63 63 64 60 56 51 47 46 46 47 46 47 47 47 49 50 52 55 59 61 65 68 71 74 77 81 84
66 68 71 68 65 62 56 45 49 57 62 59 63 58 62 61 62 62 60 59 64 62 64 63 62 59 56 51 47 48 48 49 49 50 50 50 52 55 56 59 62 66 69 73 76 80 84 86 90
59 63 67 66 64 59 51 51 50 65 72 67 65 54 60 64 63 60 58 60 64 64 64 64 62 59 57 52 49 49 50 52 52 52 53 53 56 59 61 63 67 71 73 77 80 84 88 92 96
41 42 46 51 52 55 53 50 60 75 74 71 67 58 55 60 60 63 63 62 62 66 63 64 61 59 57 53 51 51 52 53 54 55 56 58 61 62 65 68 72 75 78 82 86 90 94 98 101
26 27 27 29 37 39 47 62 79 81 74 72 70 60 56 61 61 62 62 62 61 66 63 65 62 59 56 55 53 52 53 55 57 58 60 62 64 67 70 74 77 80 83 87 91 96 100 103 107

GFSSGP_250_spd_009.txt.gz
Wind_Speed
63 66 64 66 62 60 61 60 61 62 61 63 63 60 61 63 61 59 60 59 59 58 59 54 53 53 54 51 49 48 47 48 46 43 39 39 39 40 42 37 36 38 42 43 45 48 51 50 52
67 67 70 66 63 61 64 63 64 63 66 66 67 64 65 65 65 65 63 63 62 63 61 61 57 56 56 56 53 52 52 50 49 46 43 44 42 41 45 41 39 43 45 49 50 49 51 50 53
70 70 68 69 65 67 68 66 66 65 68 68 71 71 66 68 66 68 67 67 67 67 65 63 61 60 59 59 58 56 54 54 52 49 46 46 45 45 47 46 46 48 50 53 51 50 50 52 57
72 69 68 63 65 70 71 69 69 66 68 71 71 72 72 71 71 71 73 71 69 71 68 67 65 64 63 61 60 59 58 56 54 52 49 48 45 47 48 50 47 52 54 57 52 51 52 55 56
66 63 64 62 68 70 69 70 69 67 69 69 69 71 72 73 73 73 76 77 73 73 73 72 70 67 66 64 63 61 61 60 58 58 55 52 50 48 50 53 51 54 56 57 55 49 55 55 59
63 63 62 60 67 68 69 67 68 67 68 69 70 69 69 71 73 75 77 79 79 75 75 77 74 71 69 68 66 65 64 63 63 61 60 56 54 53 53 54 56 58 60 61 58 53 53 59 67
55 53 53 55 61 61 65 66 66 67 65 64 64 64 64 64 67 70 72 76 76 80 71 65 79 74 74 72 70 68 66 65 66 64 64 62 58 57 57 58 61 58 54 47 53 55 59 65 69
53 51 52 56 64 62 60 59 61 60 61 58 59 62 63 62 62 64 67 70 77 78 78 75 66 67 80 74 73 72 70 70 69 69 67 66 66 63 63 60 54 51 54 54 61 65 66 68 70
52 48 53 60 63 64 59 55 55 57 59 58 60 63 66 63 61 60 62 62 70 75 79 80 76 75 65 70 75 73 72 71 71 72 71 69 71 68 67 65 62 61 62 65 66 65 67 69 71
49 48 54 58 60 61 58 54 55 56 57 58 59 63 66 64 63 62 62 62 65 70 75 82 81 81 77 74 68 69 70 68 68 67 67 69 67 62 60 61 65 66 66 64 66 67 71 69 68
44 50 52 56 57 57 58 55 53 56 57 59 59 60 63 65 66 66 66 66 66 66 71 71 75 79 79 78 76 73 70 69 71 70 69 66 63 63 64 62 61 62 64 65 67 69 69 64 67
40 49 53 54 56 58 58 56 55 55 59 59 58 59 61 63 68 70 68 67 66 66 67 70 73 76 78 76 78 79 78 76 77 74 72 71 70 69 67 67 67 68 67 67 68 67 66 65 67
42 48 47 54 56 58 59 58 55 52 61 60 57 56 58 61 65 70 70 70 70 70 66 65 68 73 70 68 72 75 78 79 77 75 74 72 70 67 67 67 68 68 69 69 68 65 66 66 65
51 49 51 47 52 56 58 59 53 54 60 61 58 57 57 57 62 66 72 73 73 73 70 65 64 65 69 70 72 71 72 72 73 74 73 73 71 71 68 67 68 70 69 67 67 66 67 69 60
56 55 56 58 58 48 54 53 50 61 57 56 60 60 57 56 58 63 69 73 75 76 73 69 64 64 62 63 67 70 71 73 75 76 75 70 66 63 65 65 66 67 65 64 64 66 67 65 58
61 60 62 63 59 56 52 45 55 56 56 56 58 57 57 57 58 60 64 70 75 77 76 71 67 64 63 63 61 60 62 66 69 71 71 72 68 68 64 63 62 62 62 64 67 67 64 58 55
68 63 64 64 66 64 60 50 54 56 54 53 54 54 55 55 56 60 62 64 71 74 75 72 69 67 64 63 60 56 53 55 59 60 61 66 65 65 62 64 61 62 64 68 67 66 59 55 53
70 67 67 67 71 70 67 57 57 57 54 54 53 54 56 55 56 58 60 63 68 73 74 71 70 69 67 64 60 58 54 54 53 53 52 50 53 57 60 64 66 67 69 67 64 58 54 51 47
76 74 73 72 74 75 73 64 58 61 56 54 53 54 55 56 57 57 58 63 67 69 72 70 70 68 67 66 61 55 51 53 52 51 53 52 53 54 56 58 59 62 60 58 56 52 51 49 47
80 77 78 79 80 82 77 67 65 62 60 55 54 53 55 55 56 56 57 63 66 68 68 69 69 68 67 65 62 58 52 52 49 48 47 46 47 51 54 55 55 54 53 54 52 50 48 47 48
83 84 84 85 87 84 80 69 71 67 60 61 56 55 55 55 55 55 53 61 68 68 68 67 67 68 66 61 58 60 57 53 49 47 46 46 48 49 50 50 50 50 52 50 49 48 47 49 52
85 88 92 92 91 87 91 81 75 70 65 59 60 58 57 55 57 57 51 53 65 69 68 66 63 65 64 62 58 62 58 54 49 46 47 47 48 50 49 47 50 49 48 48 47 47 49 53 55
94 94 95 96 95 92 88 82 68 69 66 66 63 64 61 60 58 57 50 52 60 66 67 66 62 62 62 67 63 62 59 54 50 48 47 48 47 47 46 46 47 47 48 47 49 50 53 55 60
93 94 91 87 81 70 71 77 61 73 76 74 70 68 68 63 61 61 55 51 56 60 62 64 63 60 63 64 66 63 59 53 49 49 48 47 47 46 45 46 46 48 50 51 53 55 57 60 65
83 84 80 82 83 74 75 77 53 65 70 77 81 79 74 68 64 63 53 52 55 54 57 60 62 59 61 66 65 64 60 52 50 49 48 48 48 48 48 48 49 52 53 55 57 60 64 67 70
88 85 83 87 86 79 80 69 63 66 73 74 81 80 75 71 66 62 55 54 55 54 53 55 58 59 60 64 64 62 59 54 52 49 49 49 49 50 51 51 53 55 57 59 62 65 68 72 75
86 80 74 79 75 71 67 59 59 68 73 80 82 82 76 64 64 57 53 55 55 54 52 53 57 58 58 63 64 62 59 54 52 50 50 51 52 52 54 55 57 58 61 64 66 70 74 77 82
55 53 59 67 60 61 60 57 57 65 75 82 81 81 76 62 61 53 50 54 57 55 52 50 54 57 58 62 63 61 57 54 52 51 53 53 54 54 56 59 60 63 65 68 72 76 80 84 88
49 42 39 45 47 45 53 58 60 67 72 79 77 75 73 62 57 51 49 52 55 55 53 51 54 57 58 61 62 61 57 54 53 53 54 55 56 56 59 62 64 66 69 73 76 80 85 88 92
46 39 31 28 31 33 38 57 69 74 75 75 71 70 71 62 57 49 49 55 56 55 52 51 51 58 61 60 61 60 56 55 54 55 56 56 57 59 62 64 66 70 73 76 80 84 87 91 95

GFSSGP_250_spd_015.txt.gz
Wind_Speed
66 65 63 63 60 59 59 57 59 58 55 55 55 55 53 53 53 54 53 53 53 53 53 53 52 54 52 51 49 48 46 46 47 47 48 46 46 48 45 46 47 45 44 44 42 41 44 44 42
66 67 66 64 64 65 66 63 64 61 58 60 58 59 59 57 57 57 57 57 58 59 58 58 57 58 58 56 55 54 54 52 52 51 52 52 50 49 50 50 50 49 48 47 45 45 46 48 47
69 69 69 68 69 69 68 66 67 66 64 62 62 65 63 62 62 63 62 63 63 64 63 61 62 62 63 63 62 60 59 58 56 56 56 57 56 52 52 53 52 50 50 48 46 47 47 49 50
73 72 72 70 73 74 72 71 71 70 69 70 70 70 67 67 68 64 66 66 68 68 69 68 67 66 65 66 66 65 66 63 61 61 61 59 60 58 56 55 54 53 52 51 52 51 51 53 54
72 72 75 72 74 76 72 71 67 70 68 69 70 72 72 72 71 70 70 70 70 70 71 72 71 70 70 71 70 70 69 69 67 64 64 64 63 63 61 60 58 57 57 56 57 58 56 56 58
75 74 70 72 77 77 75 72 70 70 73 73 74 74 76 76 75 76 76 75 75 75 75 76 74 74 73 75 75 74 73 73 72 70 68 68 68 67 65 64 63 62 61 61 59 61 62 62 63
74 76 75 74 78 80 79 75 75 77 75 76 78 79 77 79 80 80 81 79 80 78 80 79 79 78 77 78 78 78 77 77 78 75 73 72 71 69 68 67 66 66 65 66 66 66 63 66 65
74 73 75 74 81 82 80 77 77 79 80 79 80 84 84 80 81 80 79 81 81 80 81 82 80 80 80 81 80 82 79 79 80 77 72 74 77 74 70 70 70 69 69 69 69 68 70 68 65
75 71 65 72 80 79 77 78 75 76 77 76 76 79 79 81 84 83 82 81 80 79 79 80 79 80 80 82 83 84 84 85 84 83 76 73 69 79 78 75 74 74 73 72 71 71 70 66 67
70 69 65 72 73 75 73 71 72 72 75 75 76 75 76 77 80 80 79 78 76 75 75 75 73 74 74 74 76 80 84 87 83 87 82 76 69 67 69 80 81 76 73 75 70 69 65 63 64
69 66 71 68 70 70 68 67 67 67 68 69 69 70 69 70 69 67 67 67 67 68 69 70 70 70 70 68 68 70 72 76 83 85 84 87 83 70 67 69 69 70 73 69 68 67 64 69 71
70 66 68 66 65 65 65 65 62 64 63 67 69 67 65 65 66 65 64 64 63 65 67 68 67 68 67 67 67 66 67 69 71 75 79 82 83 85 75 71 67 65 66 67 67 69 72 76 77
71 69 63 63 61 62 60 59 59 55 56 62 62 61 62 63 61 61 61 64 65 67 66 67 67 68 68 69 69 67 66 66 67 68 72 76 79 82 87 84 82 80 80 81 82 82 81 82 82
70 71 67 63 60 59 58 56 49 50 55 51 53 56 57 59 60 62 60 62 64 65 66 66 67 67 67 68 70 70 68 66 64 64 66 68 71 74 81 87 85 84 85 83 80 80 78 74 75
73 73 69 67 64 58 60 54 49 53 47 45 45 48 51 53 57 60 60 60 60 62 65 65 66 67 66 66 67 69 68 67 65 64 64 64 64 68 73 75 75 78 79 81 78 76 76 74 73
78 75 73 68 68 64 59 57 58 57 56 48 49 47 47 49 50 52 55 60 62 63 63 64 64 64 64 65 66 66 67 67 67 67 65 62 60 61 64 66 69 74 74 74 72 74 73 70 68
79 76 75 72 71 67 64 59 65 62 62 53 50 52 53 53 51 54 52 52 58 61 63 64 64 64 63 63 62 63 63 65 66 68 67 65 62 60 60 60 58 57 56 55 56 55 55 56 59
81 78 77 76 76 74 71 68 71 68 69 61 59 58 57 57 58 57 57 54 54 56 59 62 64 64 63 62 59 60 60 64 67 69 68 68 65 64 61 58 56 56 56 55 54 55 56 57 60
85 83 81 82 80 78 76 73 72 72 71 71 66 63 61 60 62 62 61 60 57 55 56 57 61 64 61 59 61 58 58 60 62 65 68 70 68 67 63 59 58 56 55 56 55 53 54 54 54
84 84 82 82 83 81 80 75 76 76 73 73 71 70 69 65 65 66 66 64 64 62 57 56 57 61 61 58 57 58 57 59 59 63 66 70 69 66 64 63 60 58 57 55 54 54 54 54 54
82 82 83 84 83 83 82 75 83 77 78 78 78 74 74 74 71 68 68 68 68 64 60 55 56 57 60 60 56 56 58 58 58 61 65 67 67 67 66 64 60 60 59 57 56 55 55 56 56
81 81 81 81 83 85 85 81 83 83 83 83 82 82 79 79 78 77 74 71 66 67 66 62 57 57 57 56 57 57 57 57 59 60 65 66 66 66 66 65 63 61 61 59 59 57 56 57 57
80 81 83 85 86 84 84 88 74 85 88 90 88 86 86 85 84 82 81 77 73 69 68 67 61 58 58 56 54 55 56 57 60 61 63 66 68 67 67 66 65 63 62 62 61 60 60 59 59
81 81 83 85 86 84 86 96 79 85 93 95 95 95 92 94 89 85 86 84 77 73 69 70 68 64 61 57 53 53 55 55 59 63 65 65 67 68 69 67 66 64 64 64 62 60 60 61 62
78 79 82 84 87 85 92 101 91 91 98 102 101 99 101 97 98 94 91 87 83 76 72 70 71 66 62 58 53 51 51 51 54 62 66 66 67 69 69 68 67 68 68 66 64 62 61 63 65
78 81 85 86 90 88 89 92 89 93 95 95 90 95 98 101 101 100 97 92 87 81 71 74 74 66 63 55 52 49 51 51 53 58 64 67 68 70 68 69 69 70 70 68 67 63 64 65 68
65 63 65 68 73 80 80 89 88 93 92 90 83 82 90 98 101 104 104 102 97 90 79 76 77 71 66 54 51 50 50 49 54 59 63 67 68 68 71 71 71 72 73 71 68 67 67 68 70
44 55 62 71 75 84 85 88 89 84 82 83 83 76 95 97 91 94 96 99 95 91 83 81 79 74 66 55 52 52 51 54 54 57 60 65 67 67 69 72 73 74 74 72 71 69 70 71 71
45 52 56 65 66 69 68 69 65 57 56 61 64 62 81 94 92 98 93 89 84 81 78 75 74 69 61 57 56 56 54 53 52 55 55 61 65 66 67 70 74 74 74 73 71 71 72 74 75
34 33 30 36 46 51 53 53 63 52 48 49 60 64 66 76 85 91 85 83 73 70 65 66 67 64 59 58 53 55 54 51 49 50 54 57 63 68 69 70 72 73 73 74 73 74 74 76 78

GFSSGP_250_spd_018.txt.gz
Wind_Speed
70 72 70 65 63 63 64 63 62 59 58 56 57 59 56 58 51 53 52 53 53 51 49 50 49 47 47 47 46 46 46 46 45 45 44 46 46 45 46 46 46 47 47 48 49 50 48 47 46
69 70 69 67 64 63 68 65 60 60 57 63 60 59 59 56 52 56 56 54 52 52 51 51 53 51 50 51 51 50 51 52 52 51 50 50 49 49 50 52 51 49 50 50 50 51 52 52 50
69 69 67 68 69 70 68 64 63 64 63 62 62 60 61 55 57 56 56 55 55 55 55 54 56 56 56 57 57 57 57 57 58 57 56 55 54 54 53 54 56 57 53 54 54 52 52 51 49
73 70 69 69 68 70 70 67 65 64 65 64 64 65 63 60 62 62 61 60 59 59 59 60 60 61 62 63 62 63 63 62 62 62 62 60 59 58 60 58 58 60 60 58 58 57 55 54 54
75 73 69 70 74 73 68 66 65 67 67 67 66 68 64 64 67 66 65 65 65 65 65 62 63 64 65 67 67 67 68 68 68 66 67 66 65 64 63 63 62 63 63 63 62 61 60 59 59
77 77 72 70 75 74 70 70 69 69 70 71 72 72 68 71 70 72 72 72 70 70 70 68 67 69 69 70 71 72 71 72 72 72 72 71 70 70 69 69 66 66 67 66 66 66 65 64 63
75 76 79 77 75 75 76 75 72 71 71 71 72 72 74 66 71 73 72 71 71 70 72 71 71 73 74 75 76 77 76 76 76 75 75 76 75 74 74 74 72 70 71 71 71 71 70 69 68
73 74 74 73 76 79 77 75 71 75 76 78 75 77 75 68 73 73 75 76 76 76 75 77 77 77 78 79 81 81 82 82 80 78 77 79 79 77 77 78 77 74 74 74 74 74 74 73 72
75 74 71 72 77 80 78 75 75 77 74 77 77 81 79 77 80 80 79 79 80 80 80 84 83 83 81 81 83 84 84 86 85 84 82 81 81 82 81 76 75 73 74 76 78 77 77 77 77
74 71 70 76 77 78 76 74 75 79 78 79 78 83 80 81 81 83 83 84 84 81 81 81 82 81 81 82 80 84 85 85 85 87 86 86 85 84 86 85 83 76 70 66 63 68 75 78 83
70 66 71 76 75 75 74 73 76 75 75 77 77 77 77 75 77 82 83 83 80 77 77 79 77 76 76 74 75 74 75 77 80 82 83 84 84 86 86 88 86 85 86 80 74 73 68 74 74
70 67 69 73 73 71 73 70 70 71 73 71 71 73 71 70 75 74 76 76 75 75 74 72 68 64 63 60 64 64 68 69 72 74 74 76 76 75 78 78 82 86 85 85 84 81 70 70 67
71 68 73 73 73 73 73 69 70 66 66 72 70 69 68 66 69 70 73 72 72 68 70 67 63 62 60 59 62 63 66 67 66 69 70 70 70 69 70 70 71 73 77 80 82 81 87 86 84
74 73 71 71 72 72 69 70 69 66 70 68 65 65 65 63 66 64 67 67 66 63 65 63 62 60 59 62 63 63 63 64 66 69 68 70 70 70 68 67 65 66 69 71 75 77 80 84 84
77 76 74 71 73 72 74 68 66 68 66 64 63 63 61 63 62 59 58 62 63 62 60 61 62 63 62 60 61 62 62 62 66 68 70 71 73 73 70 65 65 65 65 66 68 70 70 71 72
78 78 77 75 75 74 72 71 72 63 66 62 60 60 57 56 55 56 55 54 55 57 58 57 58 61 63 62 60 60 60 59 62 64 66 70 73 75 73 68 65 65 64 63 62 62 62 62 63
80 79 80 81 79 76 72 70 75 70 68 63 60 60 60 58 55 52 53 52 52 52 52 52 54 56 57 61 60 60 59 59 61 61 64 68 70 74 73 71 68 67 65 62 61 60 59 58 56
88 83 81 80 78 78 75 75 77 74 68 67 64 64 65 63 61 59 55 54 54 54 52 52 51 52 52 55 55 58 59 57 59 57 61 64 67 69 72 72 71 70 68 66 63 61 59 57 57
85 84 87 87 86 86 85 78 75 73 67 70 68 67 67 67 67 68 66 62 61 59 59 56 54 53 50 50 54 55 56 58 57 58 60 62 66 69 69 71 71 70 70 69 65 64 63 59 57
89 88 88 86 86 82 81 77 78 76 73 72 75 76 77 75 71 72 70 68 66 66 64 61 59 54 58 50 50 53 53 55 59 60 59 61 63 66 68 69 69 71 71 70 68 66 64 63 60
92 93 91 87 84 84 84 80 82 79 77 80 81 82 82 80 78 75 72 70 71 70 70 67 64 61 59 56 50 49 52 55 58 60 60 59 60 64 67 67 67 68 68 69 68 66 67 66 63
83 85 89 89 86 84 83 79 81 83 83 83 86 89 87 86 85 83 80 74 74 73 73 71 67 65 62 58 55 57 50 52 55 58 59 59 60 61 65 67 65 66 68 69 69 68 68 68 66
78 79 84 86 85 81 82 82 73 83 84 88 90 90 91 91 89 90 89 84 79 77 76 75 71 70 67 62 59 60 56 55 54 57 55 55 59 60 63 65 66 66 67 69 70 70 69 69 67
66 71 79 81 80 77 80 81 65 80 90 93 95 95 93 95 97 96 93 91 88 85 80 77 74 76 73 69 63 61 61 56 58 57 51 53 58 59 60 63 64 66 67 70 71 72 73 72 71
59 63 71 77 75 73 81 80 75 86 94 96 98 99 102 102 102 101 98 96 94 90 87 81 75 76 75 72 69 64 63 57 60 57 53 51 56 55 56 60 64 67 68 69 73 75 75 75 74
54 58 65 68 72 75 82 82 87 93 96 100 104 103 106 109 110 107 103 102 102 100 94 89 78 77 79 73 72 66 58 61 61 57 55 53 52 55 54 54 61 68 68 70 72 77 78 78 77
50 56 62 65 70 73 80 88 92 99 103 104 108 109 106 108 108 99 99 103 106 105 102 97 84 82 80 76 72 64 60 63 60 57 56 54 56 55 54 55 59 65 70 71 73 76 77 79 80
50 57 60 64 66 68 70 80 87 91 95 92 97 99 100 97 97 92 92 92 95 94 97 97 88 86 81 79 71 67 69 64 61 62 61 58 58 58 56 55 57 62 68 72 74 76 78 79 81
38 36 36 39 48 56 62 67 78 79 77 79 81 80 77 77 86 88 89 84 85 83 89 95 86 84 79 76 73 72 71 65 64 62 62 61 60 59 56 57 57 58 63 70 75 76 78 80 82
21 26 32 34 36 40 41 41 60 65 69 67 62 66 59 52 65 71 66 72 78 80 82 89 89 83 78 80 80 79 73 64 61 61 62 62 59 59 57 56 56 59 62 66 71 76 78 79 81

GFSSGP_250_spd_021.txt.gz
Wind_Speed
68 67 66 65 65 66 67 66 61 61 56 54 56 56 54 49 49 48 48 49 47 47 46 44 44 45 45 42 42 43 43 42 41 40 41 42 42 44 43 43 42 44 47 48 50 50 51 51 50
69 67 66 66 64 67 73 69 63 59 59 61 60 58 57 51 51 54 53 52 51 50 51 51 50 50 50 48 45 46 46 47 46 47 47 47 48 47 47 48 49 50 50 52 52 54 53 53 52
69 68 69 63 65 71 74 68 63 62 63 65 63 63 60 52 60 59 56 56 54 54 53 54 54 52 48 50 49 49 50 51 52 53 54 53 53 53 54 54 53 55 54 54 55 56 58 56 55
70 69 69 67 67 69 69 69 67 66 71 65 65 66 61 56 64 62 58 59 57 55 54 53 54 54 54 53 53 54 55 55 57 59 60 58 58 59 59 58 59 59 59 58 59 59 60 61 59
72 72 69 68 73 72 69 65 62 67 70 67 68 64 61 61 65 65 60 60 61 59 58 57 58 58 57 57 58 58 59 60 61 61 63 64 66 65 65 66 65 63 65 63 63 62 63 64 64
74 73 70 71 77 76 72 68 65 68 67 68 70 67 61 63 67 65 61 60 62 62 61 63 62 61 63 65 65 65 65 65 66 66 68 69 69 71 71 70 70 70 69 68 68 68 67 67 68
78 76 73 73 75 75 79 75 67 68 68 67 66 66 60 65 67 68 65 65 65 66 65 64 66 68 67 67 67 69 69 70 70 71 73 74 75 75 75 75 75 75 74 73 74 74 73 72 71
79 75 72 72 73 79 79 75 70 68 69 70 68 71 64 65 71 72 70 68 69 69 67 68 68 68 67 68 69 71 74 75 74 75 76 78 79 81 81 80 79 79 78 78 77 76 75 76 75
78 73 71 73 76 83 79 75 72 70 73 72 70 72 69 69 74 74 73 70 71 72 72 70 70 70 72 73 73 74 77 80 81 80 81 83 84 84 84 84 83 83 82 82 82 81 81 79 76
77 74 75 78 79 79 76 73 74 74 79 74 73 75 73 72 73 77 77 75 73 74 74 74 75 77 78 78 78 79 80 80 80 82 83 82 84 85 87 89 88 87 86 86 87 85 85 85 81
77 77 80 80 82 80 75 73 72 72 72 74 75 75 75 76 76 78 79 78 77 74 75 77 79 80 80 81 79 78 82 80 82 82 81 83 82 82 83 82 83 84 87 89 90 89 88 89 86
77 78 78 81 82 78 75 77 74 74 71 71 75 75 74 74 76 79 79 80 77 76 76 75 77 81 84 86 84 80 78 78 78 72 73 72 73 74 76 79 78 77 76 76 78 78 80 83 83
76 76 76 78 77 75 75 76 74 72 71 73 74 72 72 71 73 75 77 75 75 76 77 79 76 75 75 77 76 75 72 69 65 64 65 64 65 67 70 70 72 71 69 70 70 71 70 72 72
74 73 72 76 76 73 74 76 71 67 70 70 71 70 69 68 71 71 71 74 73 70 70 73 73 73 71 71 70 68 66 64 63 63 63 62 64 66 68 70 71 68 68 68 68 69 67 67 65
70 72 73 75 78 74 74 72 67 70 69 68 69 70 68 68 67 70 70 68 70 68 63 63 65 64 63 64 64 62 59 62 64 63 63 63 65 66 65 69 71 70 70 72 72 71 68 66 65
73 73 72 78 76 75 74 68 72 73 68 65 66 66 67 67 68 67 69 68 68 64 61 57 58 61 58 59 59 58 57 58 60 61 63 64 64 64 63 66 68 69 69 73 74 74 71 70 67
76 75 76 78 76 75 73 72 76 72 68 67 68 67 66 67 69 69 69 68 65 62 58 53 52 53 52 51 52 54 53 54 57 59 61 64 66 64 63 63 65 65 67 70 75 75 74 74 70
87 81 77 77 76 72 71 73 78 77 71 70 72 72 70 67 68 71 70 67 66 64 61 56 52 52 53 49 47 44 45 47 48 54 56 61 63 64 65 64 63 61 64 68 69 73 76 76 74
85 84 83 85 81 78 77 72 75 79 74 73 74 76 74 72 71 69 70 69 67 68 68 63 59 55 55 55 52 48 47 48 49 51 52 54 55 60 62 64 65 63 63 64 68 70 73 74 75
77 85 87 89 89 82 80 76 75 75 76 77 79 76 78 80 76 73 70 70 71 70 70 68 66 64 62 61 60 54 52 50 49 49 45 47 50 55 60 64 65 65 64 63 64 67 71 72 73
72 77 81 85 89 88 85 81 82 80 80 83 83 83 84 82 78 78 76 75 76 77 78 78 74 70 67 67 63 59 57 56 55 53 53 50 51 52 56 60 63 64 63 64 64 65 66 69 71
70 67 71 78 85 87 88 85 84 84 84 85 85 84 84 84 85 86 86 83 81 81 84 84 82 74 70 68 69 65 64 61 59 58 55 55 52 50 53 57 60 64 64 62 62 64 66 67 69
72 72 73 70 75 81 84 83 78 87 86 88 88 88 89 89 91 92 91 89 88 87 86 88 87 82 75 69 67 69 67 62 61 60 56 58 57 54 54 57 58 60 62 61 61 63 65 67 68
74 73 72 67 67 70 76 74 72 86 91 93 93 92 92 93 94 93 93 93 92 91 89 88 89 86 80 76 72 70 73 68 64 64 62 63 63 60 58 56 57 58 58 58 60 62 65 66 68
76 75 68 63 64 64 67 67 64 71 82 87 89 91 93 94 94 95 94 95 95 93 93 92 90 91 86 81 78 75 76 71 69 64 62 64 63 60 59 59 58 57 58 57 59 61 62 66 69
70 67 61 57 57 54 52 50 54 65 74 84 89 92 94 96 100 100 98 100 102 101 102 101 97 95 93 84 80 79 77 74 70 65 67 64 61 61 61 59 58 56 59 60 59 61 63 65 69
54 51 46 42 41 41 47 51 56 67 77 82 87 91 96 102 106 106 106 107 108 108 107 107 106 101 94 87 82 80 75 75 70 67 68 64 62 61 61 62 61 59 61 62 62 64 64 62 65
37 36 32 34 36 43 48 55 63 72 77 81 87 92 97 101 104 106 106 108 110 106 106 104 106 105 100 94 87 79 78 76 73 70 65 62 63 62 63 63 63 61 63 63 66 65 65 63 64
25 29 33 38 44 48 52 47 64 69 74 79 87 90 93 98 98 96 95 97 98 95 92 92 92 91 96 98 92 87 82 80 78 73 66 66 65 63 62 65 62 64 64 66 66 66 65 63 65
33 35 31 28 30 35 35 36 48 56 66 71 74 77 77 77 74 70 70 69 73 71 68 73 82 83 84 84 82 78 78 78 72 67 67 66 64 63 67 65 63 65 66 67 67 68 67 66 66

GFSSGP_250_spd_024.txt.gz
Wind_Speed
71 67 66 66 67 66 68 66 60 58 56 57 55 51 50 50 48 46 46 46 48 48 46 46 46 43 41 41 40 40 40 40 41 42 42 41 40 41 41 42 43 43 42 43 44 45 47 48 50
69 67 67 66 67 68 72 69 63 62 61 61 60 57 53 52 52 52 50 49 49 52 52 49 48 47 46 45 45 46 47 45 44 45 46 45 44 45 46 47 48 49 49 50 51 51 51 51 52
71 67 66 63 62 68 72 66 67 66 64 64 64 61 56 55 58 55 53 51 51 51 54 53 52 52 51 51 51 52 51 48 48 47 46 48 50 50 51 52 53 54 55 55 55 56 57 56 57
73 70 67 61 65 70 69 64 65 66 68 69 66 63 58 58 60 59 56 54 54 55 55 55 55 56 55 54 53 52 52 52 52 50 52 51 52 53 54 56 57 59 61 61 62 62 61 62 62
77 73 68 67 71 72 71 66 63 66 68 70 66 64 61 59 60 61 61 59 58 58 59 59 59 59 58 56 55 57 57 55 55 56 57 58 59 59 60 62 63 64 64 66 67 68 67 67 67
80 77 70 69 74 74 71 68 65 67 67 68 67 65 65 63 65 64 62 60 61 62 62 62 63 62 61 60 59 60 60 59 59 61 63 62 63 63 64 65 68 70 71 73 73 72 73 74 73
79 76 74 76 76 73 76 70 66 67 67 68 63 60 60 61 63 65 64 63 63 62 63 62 62 62 61 61 61 63 63 62 65 65 64 64 66 68 70 71 72 73 75 76 77 79 79 78 76
85 79 74 75 77 79 79 72 69 67 67 69 66 62 61 63 61 65 66 65 64 62 60 61 62 64 65 66 66 67 67 68 69 67 67 68 69 71 73 76 78 79 79 81 81 82 82 82 81
85 80 77 73 78 85 84 75 69 67 68 71 69 71 67 63 64 65 65 66 65 65 62 59 63 65 68 68 69 70 70 70 71 71 71 72 74 76 77 78 80 81 83 83 85 86 86 85 85
84 77 81 81 82 83 80 75 73 69 70 74 72 70 69 67 67 68 69 69 70 68 65 64 70 71 72 73 73 73 74 73 75 76 78 79 80 79 79 81 82 84 85 84 84 84 85 86 86
82 77 81 84 86 81 77 76 75 72 71 76 75 71 73 70 71 73 71 71 71 69 70 70 70 72 73 74 75 74 75 76 79 82 82 84 81 81 87 86 83 84 85 83 81 82 81 82 81
82 81 82 83 82 79 76 75 73 73 73 76 78 70 73 72 73 74 75 74 72 71 72 73 74 76 77 76 78 78 79 80 82 82 84 85 84 85 85 84 80 79 77 76 75 75 75 76 77
85 82 80 82 81 76 76 76 77 75 74 76 78 75 73 73 73 72 74 72 70 72 73 73 74 76 76 78 81 82 83 84 84 83 83 82 81 82 81 79 74 73 71 70 70 71 72 72 72
77 77 78 79 79 78 79 81 80 77 80 76 77 78 75 73 73 73 72 73 70 71 70 70 71 73 74 77 79 80 81 79 79 80 79 77 75 75 71 70 70 70 69 67 68 69 70 71 71
76 77 76 78 83 80 80 78 76 80 78 77 78 79 77 76 73 74 76 74 71 73 71 67 67 68 69 70 73 73 74 71 73 72 71 69 68 69 67 67 68 68 67 67 68 68 69 70 71
75 75 74 78 78 78 75 72 76 81 77 73 75 76 75 73 74 72 74 74 72 71 69 65 62 61 62 63 63 65 64 64 64 64 64 65 64 64 66 67 67 66 67 68 68 68 67 69 71
74 71 73 76 73 74 71 71 78 76 74 73 73 73 73 74 70 70 73 72 71 69 67 65 62 62 65 63 61 59 57 56 54 55 57 59 59 59 62 64 65 66 66 67 68 69 69 67 68
81 78 75 72 70 71 69 69 73 73 73 73 73 73 73 73 73 71 71 73 73 72 72 67 61 64 65 63 61 59 56 54 52 52 51 55 53 53 54 57 59 62 63 65 65 67 69 68 68
85 81 81 79 75 71 71 69 70 76 71 72 74 76 76 76 77 74 74 75 75 75 73 70 64 62 65 63 63 61 60 58 57 55 53 54 55 54 56 57 54 55 57 59 64 66 67 68 70
79 83 85 84 81 75 72 69 71 74 74 73 73 74 78 79 80 81 79 78 79 79 80 78 73 66 63 66 65 64 59 60 63 64 64 59 55 53 55 52 54 55 54 57 60 63 66 67 66
76 78 80 81 80 79 80 77 77 78 77 77 76 76 76 78 80 82 83 83 83 81 80 82 81 75 67 66 69 67 64 63 63 64 66 63 60 58 62 59 55 56 57 60 61 61 61 61 64
68 71 73 75 79 77 79 77 81 84 85 86 86 83 83 84 86 86 85 85 85 86 88 87 88 82 75 72 70 74 73 72 73 72 72 65 65 62 60 62 58 58 60 60 62 62 61 59 59
65 65 68 66 68 70 75 75 76 85 87 90 91 91 93 92 92 93 93 94 94 94 92 91 91 90 86 80 77 77 79 78 77 72 70 68 67 66 68 68 64 64 65 64 65 61 60 58 55
64 65 63 64 64 62 69 66 64 74 83 89 94 96 98 99 99 99 99 100 101 100 100 98 96 95 94 89 84 80 78 78 80 77 72 69 65 66 67 68 69 67 66 64 64 62 60 57 57
74 72 69 69 69 69 70 65 65 72 76 77 81 87 93 97 100 101 102 103 105 106 106 104 102 100 99 94 89 87 80 80 81 80 72 68 68 69 70 71 72 66 65 64 66 61 62 60 60
79 75 74 71 70 70 70 68 71 76 79 78 79 83 86 90 92 95 98 101 103 105 105 105 104 103 102 99 93 89 84 78 79 80 76 72 72 72 71 71 68 67 67 66 66 64 64 64 62
74 72 73 73 71 69 70 71 78 82 78 73 72 74 77 82 87 88 90 93 97 101 104 106 108 108 106 102 100 93 87 82 80 84 79 74 72 71 69 69 68 67 68 67 68 65 67 66 65
63 64 65 66 70 72 74 76 77 66 63 61 63 67 71 77 82 86 89 93 96 99 104 107 108 110 110 108 104 99 91 88 88 86 79 74 73 72 71 69 69 68 67 70 69 69 68 69 68
53 57 58 58 60 62 55 55 52 51 53 58 62 68 75 78 81 86 92 94 96 102 107 108 109 108 108 108 106 103 99 95 91 88 81 73 75 73 71 70 69 70 70 71 69 69 71 68 70
46 47 46 43 43 36 37 46 44 47 50 53 60 68 73 78 79 83 84 81 78 80 86 93 94 93 92 96 100 99 94 93 94 90 85 82 74 67 67 67 70 69 68 68 69 71 69 69 71

GFSSGP_250_spd_027.txt.gz
Wind_Speed
75 76 74 72 71 68 67 65 61 59 57 54 50 48 47 45 46 44 41 42 43 45 46 45 44 42 42 41 41 40 42 41 40 39 38 40 43 45 43 42 41 42 43 44 43 44 45 46 47
75 74 74 74 72 73 72 68 65 64 61 59 55 51 52 51 50 47 47 47 46 48 49 48 47 47 46 46 46 46 46 45 44 44 46 45 45 45 46 46 45 45 47 48 50 51 51 52 52
76 74 71 69 70 73 75 71 67 66 65 64 59 56 55 55 54 54 52 51 51 51 51 52 51 50 50 51 50 50 50 49 49 51 52 50 48 48 47 47 50 50 51 52 54 54 56 57 59
79 76 73 69 70 76 74 68 68 67 67 67 65 61 58 59 58 58 58 55 52 53 55 55 54 53 53 53 54 55 55 54 55 54 54 53 52 52 51 51 52 54 55 56 57 59 61 61 63
82 76 71 68 72 77 74 67 66 67 66 67 66 65 63 61 62 61 62 61 59 58 58 57 56 55 54 55 55 55 56 56 56 56 55 56 56 56 55 56 58 58 59 60 61 62 64 65 67
81 78 73 68 74 78 73 70 67 64 65 65 64 61 62 66 67 66 65 65 63 61 58 58 59 58 56 56 59 60 61 60 59 59 57 57 59 61 60 62 63 61 62 63 65 67 69 70 72
83 80 77 75 80 75 74 68 66 65 63 64 63 58 58 63 66 66 68 68 65 64 63 62 60 59 59 59 61 63 63 61 61 59 59 60 62 63 65 66 66 66 66 67 68 70 73 75 76
86 84 79 78 81 81 79 71 68 65 66 65 62 61 62 63 63 66 68 68 67 67 67 64 61 61 61 61 62 62 61 61 62 63 64 65 65 65 67 67 68 69 71 72 74 77 77 76 78
89 84 80 79 84 86 83 77 71 68 65 66 65 65 64 63 64 65 65 65 63 62 62 62 61 62 62 62 61 61 61 62 63 65 67 68 69 70 71 72 73 74 76 77 79 81 80 83 83
91 82 80 85 88 89 83 77 74 70 66 69 68 68 67 63 64 67 68 68 67 65 63 63 63 65 65 64 64 63 63 65 67 69 70 71 72 73 74 76 78 80 81 80 83 85 84 87 86
90 83 84 88 90 90 82 77 74 72 68 72 74 72 69 66 66 69 70 71 69 68 67 65 64 66 67 66 66 67 69 70 71 71 72 74 75 76 78 78 78 79 80 84 85 86 86 86 85
94 90 89 89 91 89 83 79 78 75 74 74 74 75 72 69 70 70 70 72 71 70 70 70 70 69 70 70 71 71 72 72 73 75 76 76 78 79 81 83 85 85 84 83 86 85 84 82 79
90 90 88 90 90 84 82 79 78 76 78 78 76 72 72 72 72 72 72 72 73 73 72 73 72 74 75 74 74 74 73 73 73 75 79 80 79 80 81 84 84 85 86 86 84 84 79 77 74
93 91 90 89 87 84 82 79 78 74 77 79 77 73 72 70 73 73 74 74 73 71 71 71 74 72 71 72 72 72 72 73 75 78 80 82 82 82 84 85 82 83 83 83 81 78 75 72 72
87 91 90 91 90 85 84 79 74 78 79 75 73 73 72 72 72 75 75 75 75 74 76 74 71 69 71 70 70 71 70 69 71 73 76 78 79 81 78 80 79 78 74 75 74 71 72 72 70
84 85 84 87 88 87 86 76 80 81 79 72 72 73 75 77 76 77 79 79 77 75 74 76 76 73 72 71 70 70 68 69 66 68 67 67 69 69 71 69 70 68 69 69 69 68 68 70 69
80 76 77 84 84 82 78 74 81 80 77 72 72 75 78 79 80 79 80 81 80 76 74 73 73 71 72 71 69 69 67 62 62 61 62 61 60 60 62 61 60 61 63 63 62 63 65 67 67
80 79 79 77 75 75 73 69 77 77 75 73 73 75 78 79 82 81 79 80 79 77 77 74 72 72 73 73 71 67 68 67 62 60 62 63 61 61 60 58 57 57 58 58 59 60 59 59 61
83 80 74 77 77 73 70 67 69 74 70 70 71 72 73 75 80 79 77 76 77 78 75 74 73 74 74 73 73 70 72 70 69 65 65 67 68 67 66 65 62 61 58 55 55 56 59 59 58
83 79 79 77 76 70 69 66 67 70 71 70 69 70 73 73 76 79 78 77 78 80 80 79 77 75 75 77 76 74 73 68 67 68 69 69 65 66 62 63 63 63 59 59 59 64 61 59 60
87 85 84 81 78 73 71 68 69 70 70 70 71 72 74 76 79 80 79 80 79 81 83 84 84 82 81 82 81 77 75 72 67 66 70 70 72 72 70 70 71 70 70 69 66 64 64 62 63
82 82 82 82 81 77 77 72 77 78 78 78 76 75 76 79 80 82 83 84 85 85 85 85 86 87 86 85 83 83 82 79 78 78 75 74 73 73 74 73 71 70 70 67 68 70 70 73 74
72 73 77 80 81 79 81 80 76 86 85 85 84 84 84 83 83 85 86 87 88 89 91 92 94 93 94 91 89 88 85 85 85 84 80 71 72 70 72 72 75 75 75 73 71 73 74 72 73
69 68 68 68 69 68 73 70 70 80 85 87 88 89 89 90 92 93 94 95 98 99 100 100 100 100 100 100 99 98 97 94 92 89 88 82 77 77 76 76 76 76 77 76 75 74 73 71 73
69 68 65 63 63 62 66 63 68 71 77 77 81 87 90 90 94 97 99 101 105 107 110 111 112 112 111 109 107 105 105 102 97 94 90 88 83 78 78 77 76 75 74 75 74 76 75 73 72
73 69 68 67 65 64 65 58 64 69 72 71 74 76 79 82 83 86 89 94 98 103 106 109 111 113 114 113 111 109 107 103 101 99 96 92 90 86 80 75 75 74 73 74 75 76 74 74 72
71 69 69 68 67 65 65 66 70 72 71 73 76 78 80 82 84 85 88 92 97 99 102 103 104 105 107 107 107 106 104 102 100 96 92 90 87 84 82 78 73 72 71 73 74 73 74 72 72
73 73 76 71 68 65 68 76 80 74 72 73 75 75 78 80 84 88 89 89 90 92 95 98 100 101 103 104 104 103 100 99 97 95 92 90 88 87 84 80 75 72 72 73 72 72 72 73 72
69 71 72 74 70 67 75 79 73 71 74 73 74 77 79 77 76 78 82 85 88 92 95 97 99 100 102 103 102 100 96 94 93 92 90 89 90 90 86 83 78 75 75 75 73 72 71 72 74
60 61 61 61 61 65 64 69 61 59 63 62 64 66 68 69 72 76 79 82 86 88 88 89 93 96 99 101 96 95 96 96 94 92 92 90 88 89 87 85 80 76 74 72 70 71 70 73 75

GFSSGP_250_spd_030.txt.gz
Wind_Speed
78 77 76 72 68 64 62 59 56 54 53 51 48 46 43 42 42 42 43 42 41 41 42 41 41 40 37 38 38 38 39 39 38 39 39 39 39 38 38 40 42 43 44 44 45 43 45 45 48
78 79 77 76 72 70 67 63 60 59 58 56 52 49 47 45 43 43 44 45 45 45 44 43 45 46 46 44 44 44 45 45 43 43 43 44 43 43 45 46 46 46 45 44 44 46 49 49 50
79 78 76 75 74 74 73 68 64 64 62 59 58 55 50 49 48 48 47 47 49 49 47 46 46 47 47 47 48 49 49 49 48 47 48 49 49 49 51 51 50 48 48 49 50 49 51 51 55
83 79 76 73 74 77 78 72 70 69 66 64 62 59 58 57 56 53 53 52 53 52 51 51 50 50 51 51 50 50 51 50 51 52 53 54 54 55 55 56 54 53 54 54 55 55 56 57 57
86 84 78 73 74 78 77 75 75 72 70 69 66 63 63 62 60 59 59 58 57 56 55 55 54 52 53 53 53 53 52 52 52 53 52 54 55 56 56 56 57 58 57 58 59 59 61 60 61
84 81 78 73 76 78 76 73 72 75 72 71 71 68 65 64 64 65 64 63 63 61 60 58 58 58 57 56 56 56 57 57 56 55 56 58 58 59 58 58 57 57 57 59 61 62 63 62 64
85 80 75 76 80 79 76 72 68 69 67 68 69 68 67 70 69 68 67 67 69 66 64 64 62 62 62 60 58 58 59 58 58 58 58 60 61 60 60 59 59 61 62 62 63 64 65 67 68
86 84 79 75 76 79 77 72 69 66 66 67 65 64 65 65 66 66 65 66 65 64 64 65 66 65 64 63 63 64 62 61 60 61 62 62 62 61 61 61 63 63 63 65 65 67 68 71 73
91 86 80 79 81 84 79 76 70 68 68 67 65 65 65 62 62 63 64 63 62 61 62 63 64 67 67 68 67 63 62 62 61 62 64 62 62 63 62 63 64 65 66 68 68 69 72 73 74
91 86 84 84 87 89 82 76 73 70 69 66 66 66 65 64 64 65 64 64 65 64 62 63 63 63 64 63 61 61 61 62 63 63 64 64 64 65 67 68 69 69 70 71 71 74 75 76 77
91 86 87 90 90 90 84 79 74 72 71 72 71 69 68 66 65 65 67 67 65 63 64 65 65 66 66 65 65 63 62 64 64 65 65 67 69 71 71 72 72 74 74 75 76 76 77 79 81
96 92 92 93 90 90 85 80 76 73 73 73 73 73 73 71 69 68 70 70 69 68 67 67 67 66 67 67 66 65 66 67 68 69 71 71 73 74 74 74 77 78 78 77 79 82 80 83 83
100 95 94 96 93 91 87 80 77 74 77 75 76 75 73 72 70 69 71 71 73 74 73 72 69 69 68 67 67 67 68 69 69 72 72 73 73 74 75 76 76 76 76 79 81 82 83 81 82
99 98 96 93 91 92 89 85 79 77 78 77 78 75 74 72 72 72 74 74 74 73 73 73 74 73 71 69 67 66 67 67 69 70 70 71 73 72 74 76 76 78 79 79 78 81 80 77 76
102 99 98 93 91 89 89 84 79 83 79 77 76 78 75 73 72 73 75 77 77 77 76 75 72 66 66 67 67 67 69 69 69 71 72 72 74 75 74 73 74 74 75 75 72 71 68 65 63
101 99 96 94 94 92 90 82 81 83 84 80 74 74 73 71 72 74 75 76 78 77 77 77 73 70 70 69 70 71 68 70 72 72 73 74 75 75 71 69 67 66 65 66 63 62 62 63 60
91 91 93 94 95 95 91 82 83 84 81 76 75 73 73 75 74 76 77 77 79 78 78 77 77 77 77 76 76 74 71 68 68 70 72 73 70 68 65 65 64 63 63 64 63 60 60 63 63
89 81 89 93 93 90 86 80 86 83 82 81 80 79 78 78 79 80 78 78 80 81 80 80 81 81 80 79 77 75 72 69 70 67 66 64 66 65 69 70 70 65 65 67 67 63 59 58 58
87 91 84 83 82 79 79 75 80 83 81 81 81 79 77 80 83 80 80 79 79 81 82 82 82 82 80 79 78 76 74 74 72 71 68 68 70 72 72 72 72 70 63 63 67 66 63 63 65
89 84 78 77 77 74 74 72 72 78 76 76 77 78 78 78 80 81 80 78 78 78 80 81 81 80 79 78 79 78 76 74 75 75 74 75 72 71 71 68 67 64 65 69 68 69 72 70 67
87 84 78 80 78 74 73 70 70 72 72 72 73 73 75 74 74 76 74 72 73 76 78 78 79 80 80 81 82 82 82 82 81 80 81 80 77 68 70 70 70 69 70 72 72 73 73 70 68
87 87 84 80 78 72 70 70 72 72 74 71 71 72 73 73 76 77 77 78 79 78 80 81 83 85 86 86 86 85 86 87 88 90 90 86 83 80 72 73 74 76 74 73 73 75 76 73 73
86 85 84 84 78 76 74 69 73 72 73 74 74 74 75 75 76 77 79 81 81 83 86 88 88 89 92 92 91 91 91 91 90 90 90 89 84 84 81 77 71 73 75 78 75 75 76 77 77
79 80 81 83 83 77 76 75 75 77 78 80 79 79 79 80 80 81 82 84 85 85 87 88 90 92 94 95 96 96 96 95 94 95 95 95 93 86 83 82 83 82 82 79 78 82 80 80 80
75 77 78 78 81 79 82 81 81 79 82 84 83 83 84 84 85 88 91 93 94 96 97 99 100 101 103 105 106 106 107 107 105 105 106 105 103 98 95 94 92 91 86 81 79 78 80 79 79
71 69 70 71 71 75 77 75 76 76 79 81 80 81 83 87 88 90 93 94 95 96 97 102 105 107 109 110 111 112 113 111 111 111 109 106 104 103 101 98 95 91 86 86 84 85 83 80 76
70 67 65 67 66 66 67 69 67 69 69 69 70 73 76 78 79 83 87 88 90 93 97 99 101 102 105 106 108 110 111 110 109 108 106 103 102 99 95 92 86 83 82 83 82 80 77 75 74
71 66 65 64 64 61 63 68 68 67 66 66 70 72 75 76 77 79 82 85 87 90 94 98 99 102 105 105 105 105 105 105 104 102 100 97 97 95 94 93 90 87 82 80 79 78 75 75 76
73 65 63 61 62 65 69 70 67 64 66 69 70 70 72 78 81 82 83 84 83 85 88 93 94 97 99 101 102 100 101 100 99 96 94 92 91 90 90 91 89 87 86 83 82 79 76 76 75
75 73 71 69 71 72 68 68 65 66 67 65 67 72 75 73 74 74 74 73 73 74 80 86 90 93 97 98 99 101 101 103 101 97 94 92 89 87 86 87 85 83 83 82 79 77 77 78 78

GFSSGP_250_spd_033.txt.gz
Wind_Speed
82 79 76 73 70 66 66 62 60 54 51 49 48 48 45 43 41 40 41 39 37 36 37 38 38 36 37 37 37 37 36 36 37 36 34 35 36 38 40 41 40 40 41 42 44 44 43 43 43
84 83 81 77 72 71 70 67 62 57 56 53 50 48 48 46 45 44 42 44 43 42 42 41 41 41 41 42 41 39 38 39 39 40 42 42 42 43 44 45 45 45 46 48 49 48 47 46 48
85 84 82 79 76 76 76 70 66 63 60 57 55 52 51 49 48 47 47 46 45 45 44 44 43 43 43 44 45 46 46 46 45 46 47 48 48 48 48 48 49 50 52 53 54 52 52 52 52
87 84 82 77 76 79 76 73 71 68 63 60 57 56 54 53 52 51 49 47 46 46 45 46 47 46 46 47 46 46 47 47 49 49 50 52 52 51 52 53 54 53 54 56 55 56 56 56 55
85 86 82 78 78 82 80 75 73 70 66 64 63 60 59 59 57 55 53 53 52 51 50 50 50 50 51 51 51 51 50 50 51 52 53 53 53 53 53 53 53 55 56 58 58 58 58 56 56
89 83 81 75 78 81 79 76 76 75 70 67 66 64 64 62 62 61 61 60 58 57 56 56 55 55 54 55 55 56 56 56 56 55 56 56 57 57 57 58 59 58 59 59 61 61 59 60 61
91 87 81 82 84 82 80 79 76 76 75 72 69 69 69 67 67 66 65 64 64 62 62 61 61 60 60 60 60 60 60 61 59 59 58 58 58 58 59 59 60 61 61 62 61 60 62 62 63
93 90 85 84 87 84 80 77 74 73 74 75 76 74 73 71 70 70 69 69 68 66 64 64 64 65 66 66 65 65 66 67 65 63 62 63 64 63 61 61 61 62 62 62 62 60 61 62 62
94 92 84 81 87 91 86 80 77 74 71 70 70 71 73 75 74 74 73 74 74 71 68 68 68 67 67 65 65 63 63 63 64 65 67 67 65 64 63 62 61 61 61 62 63 65 67 67 67
95 88 85 86 88 89 89 85 79 75 73 71 69 69 68 67 67 69 69 68 68 65 65 66 65 63 61 61 62 63 64 64 64 63 63 64 62 62 63 62 62 62 63 65 67 69 70 69 71
97 90 89 90 93 90 85 82 78 74 72 72 69 69 69 68 66 65 65 65 65 64 64 64 64 64 64 64 64 65 65 64 66 66 66 67 65 64 65 65 66 66 68 70 71 69 71 73 72
99 93 92 95 93 91 86 81 76 72 72 69 68 68 70 70 69 69 66 65 67 66 66 65 64 64 64 65 66 66 65 65 64 64 66 67 67 66 67 68 68 67 68 68 69 70 72 74 74
104 96 96 98 94 92 89 84 79 77 75 74 72 71 70 71 72 71 70 70 71 72 70 69 67 66 66 66 67 68 69 68 67 69 69 68 67 65 65 67 67 66 67 70 71 72 73 74 76
106 101 100 99 96 94 91 86 81 78 79 76 75 73 72 72 70 70 71 72 73 73 73 72 70 70 69 70 71 71 73 72 72 72 72 69 67 66 68 68 68 68 69 72 71 73 74 75 73
109 105 102 99 96 91 89 87 79 82 82 79 77 74 72 71 71 74 74 75 76 74 72 73 72 71 72 74 75 76 75 73 72 71 68 67 68 68 69 70 70 70 71 72 72 71 70 70 69
109 106 101 98 96 94 90 85 81 83 82 82 80 77 75 75 73 74 76 77 76 76 76 75 74 72 73 74 75 75 73 72 71 70 69 71 71 71 70 70 68 70 71 72 71 66 66 69 66
112 106 102 98 97 95 92 87 86 84 84 83 80 82 81 79 77 79 78 75 74 74 73 73 73 73 72 73 74 74 72 71 69 71 73 73 71 70 68 67 67 68 69 66 65 67 67 67 64
101 101 103 101 104 96 93 86 88 88 86 84 81 81 81 81 80 79 78 78 76 73 73 73 74 75 76 76 75 77 77 76 76 77 77 77 76 71 70 70 70 69 71 68 68 68 68 65 65
89 95 100 100 96 97 95 88 88 90 89 86 84 84 81 80 82 83 81 78 75 74 75 78 78 80 79 78 78 80 81 81 79 81 80 78 70 71 70 70 70 71 70 69 69 69 70 65 63
95 87 89 93 96 95 92 91 96 95 93 87 83 85 86 86 84 80 80 80 80 79 78 80 80 82 80 79 79 79 81 80 81 79 77 77 77 77 75 73 72 72 74 76 73 72 71 70 70
87 80 84 86 88 89 89 89 91 92 90 85 83 83 82 81 80 80 80 81 81 80 79 80 81 81 80 79 79 78 78 78 80 81 81 81 81 82 82 79 78 76 77 76 75 74 74 74 74
99 85 80 81 81 76 78 75 79 80 80 79 77 77 75 74 75 75 78 79 79 78 79 80 81 81 82 82 81 82 81 80 81 83 86 86 85 87 81 74 75 77 78 78 77 74 76 77 77
94 100 89 78 77 77 74 70 74 72 72 73 74 73 73 74 73 73 75 76 77 78 79 81 83 83 85 85 86 87 87 87 89 91 92 93 92 91 85 83 81 81 75 75 74 74 76 79 79
91 93 95 91 83 75 76 76 74 73 72 73 73 72 73 73 75 75 76 76 78 80 81 82 84 86 87 87 88 89 90 91 92 94 95 97 97 94 93 90 86 85 83 79 81 82 80 80 78
86 87 86 89 85 82 78 74 71 70 72 73 72 71 71 74 76 77 77 79 82 84 84 85 87 89 90 92 94 94 96 98 98 100 102 104 104 105 104 104 101 98 95 93 89 87 87 87 84
82 81 81 82 82 83 85 82 76 76 78 77 76 74 74 75 77 78 81 83 85 88 90 92 95 98 100 101 103 105 107 110 112 112 112 112 110 107 107 107 102 96 90 86 82 80 81 81 84
74 73 77 80 80 80 82 84 85 82 85 81 78 79 82 82 83 85 87 90 91 93 97 99 101 103 101 101 103 105 107 108 108 108 108 108 108 108 107 106 104 102 98 93 86 84 84 82 82
73 70 69 73 79 81 81 82 82 82 77 79 85 84 83 82 85 87 89 90 93 93 93 94 95 96 96 98 99 101 102 104 105 107 108 108 109 109 110 110 109 105 102 99 96 89 85 83 81
60 64 64 66 69 74 76 76 73 70 68 71 72 75 78 79 78 80 81 82 85 86 86 86 86 84 85 89 91 93 95 96 97 99 101 103 103 103 102 100 97 95 92 91 89 90 89 83 83
61 60 59 62 64 67 67 65 63 63 64 66 65 67 70 72 74 76 78 80 81 79 77 72 72 74 78 82 86 88 92 93 93 92 90 90 94 98 101 98 94 90 88 84 80 79 80 84 86

GFSSGP_250_spd_036.txt.gz
Wind_Speed
85 81 79 74 70 66 63 59 56 52 50 49 47 46 45 44 42 40 40 38 37 35 34 34 34 33 33 33 33 34 35 36 36 36 36 36 36 35 36 36 37 38 40 41 42 42 44 46 47
89 86 82 79 75 71 69 66 60 56 54 52 50 51 49 49 48 46 44 42 39 38 39 38 38 37 36 37 37 37 38 38 38 38 38 37 38 40 43 44 44 44 45 46 46 46 48 49 51
91 89 86 81 77 75 75 71 65 62 59 55 54 54 53 52 50 50 48 46 43 42 42 42 41 40 41 41 42 42 43 43 43 42 42 44 44 45 47 49 50 50 50 50 51 51 52 52 53
94 90 87 84 82 83 80 74 71 68 63 60 58 56 54 55 53 54 52 51 49 47 45 46 45 45 45 46 45 44 44 44 45 47 49 48 48 49 49 51 53 53 53 53 53 54 54 55 57
95 94 86 85 83 86 84 79 76 73 68 66 64 60 58 57 56 56 55 52 51 50 49 49 47 46 46 47 47 48 48 47 47 47 50 51 52 52 54 54 55 56 55 56 57 58 60 60 59
96 93 89 81 86 88 87 82 79 77 73 70 68 65 63 62 60 58 56 56 55 53 52 50 49 49 49 49 49 50 51 52 53 53 54 54 55 57 56 57 58 58 58 59 59 60 60 60 61
94 91 87 84 87 89 86 84 81 80 78 75 72 70 70 68 64 61 60 59 58 57 56 56 54 54 54 55 55 56 56 58 57 59 59 59 58 59 59 62 61 60 62 63 64 63 63 62 61
98 92 87 84 87 85 84 83 83 82 80 78 77 75 74 72 67 67 66 65 64 62 62 62 63 62 60 60 63 63 62 63 64 63 65 66 67 65 63 63 62 64 65 63 62 63 64 63 62
98 98 89 85 85 86 85 82 80 80 80 79 78 77 77 74 73 71 70 69 67 66 65 66 67 68 67 65 66 66 66 66 67 67 68 67 67 68 68 67 67 66 65 65 64 63 62 62 64
101 93 91 91 90 89 88 85 80 78 80 80 79 78 79 79 78 76 74 73 72 71 69 70 70 70 71 71 71 69 67 66 67 65 65 63 64 65 65 65 66 67 67 69 70 69 68 67 68
102 93 94 98 97 95 89 85 83 79 78 77 76 77 78 78 78 77 78 78 77 75 75 75 74 73 71 69 66 63 61 61 62 63 62 64 66 66 66 66 67 68 69 69 70 71 69 66 66
105 100 97 101 101 99 93 88 84 83 80 77 76 76 74 73 73 74 75 74 74 74 72 71 71 70 67 64 64 64 63 66 65 64 65 66 65 65 66 66 68 69 69 69 68 68 68 67 67
109 103 102 103 103 100 96 91 87 85 86 83 80 79 79 76 75 74 73 72 71 70 69 68 67 66 66 66 68 68 69 68 67 66 67 69 69 70 70 72 72 70 69 68 67 67 67 67 69
113 106 106 106 102 99 96 94 88 85 85 86 86 85 83 79 75 73 73 71 69 69 70 70 70 69 68 70 71 71 71 71 71 72 72 73 74 74 73 72 70 69 66 67 68 67 68 67 68
117 111 109 108 104 100 96 91 85 88 85 82 83 82 81 77 75 74 74 72 71 70 69 69 69 69 69 69 69 70 70 71 72 73 73 73 75 73 71 69 68 66 67 70 68 68 67 67 68
119 116 112 111 106 101 99 93 87 88 85 83 82 81 80 79 78 79 77 74 71 70 69 69 68 68 70 71 73 74 74 73 74 74 73 71 72 71 69 69 70 71 70 71 71 69 68 69 68
120 114 113 109 107 102 98 95 90 87 87 86 84 83 82 81 79 79 77 75 72 71 71 71 71 70 71 72 74 73 73 73 75 75 75 75 76 75 75 73 75 75 75 76 75 72 68 67 66
117 115 112 111 107 104 101 97 94 91 89 89 88 86 83 81 77 76 74 74 76 77 78 77 78 76 76 76 75 74 75 75 75 77 77 77 78 78 77 78 78 78 78 76 71 67 66 67 68
121 116 116 114 111 107 101 96 96 95 90 90 87 86 84 82 79 78 76 75 78 78 74 75 80 82 82 79 79 78 77 78 78 80 81 81 81 81 81 81 80 78 74 70 69 70 69 70 71
122 119 111 115 109 106 102 97 99 98 93 90 88 88 87 85 84 81 81 79 77 77 78 77 80 83 84 82 81 81 81 79 80 81 83 83 83 82 82 81 81 80 78 77 78 77 76 77 76
110 118 112 111 109 105 101 100 102 100 96 91 90 91 89 87 85 81 82 81 79 79 81 84 84 82 82 84 85 84 83 82 81 82 84 87 85 84 83 82 81 82 82 80 80 80 79 78 77
107 112 111 104 107 106 103 102 103 100 97 94 92 91 89 87 87 83 81 80 83 80 82 85 83 83 84 85 84 85 87 87 88 89 90 90 90 89 88 88 86 85 83 83 84 83 83 80 79
100 104 107 100 99 101 102 102 104 102 99 96 95 95 96 95 93 89 86 85 83 81 80 79 80 81 82 82 87 87 86 88 90 90 91 91 92 91 91 91 90 88 89 88 86 84 83 83 81
94 101 101 98 88 82 86 89 95 94 91 91 90 90 89 89 88 84 82 80 80 81 79 79 80 83 86 86 86 86 86 88 90 92 94 95 96 97 97 95 96 94 93 94 95 93 93 90 81
85 94 97 94 88 79 73 72 76 78 79 81 83 82 78 77 77 77 78 78 80 80 80 81 83 83 84 87 87 87 90 93 94 96 98 101 101 103 106 107 107 106 103 103 104 102 101 99 95
77 85 91 87 81 81 82 80 74 71 71 70 70 71 72 73 74 75 76 77 80 81 82 84 85 85 88 89 91 93 95 96 99 103 106 110 112 114 115 117 117 116 114 109 105 101 96 90 86
69 76 85 91 87 82 80 79 80 80 79 74 73 75 75 76 78 79 77 78 79 80 83 84 86 88 91 93 95 99 102 105 108 110 109 109 110 111 112 111 112 112 110 107 103 100 96 94 93
65 73 79 85 88 87 88 87 83 82 79 74 74 76 76 77 78 78 79 81 82 84 87 89 94 95 97 99 102 104 100 101 102 104 107 108 107 107 111 112 113 114 113 113 111 107 103 100 98
56 66 72 74 79 83 88 87 88 86 83 83 84 81 80 82 82 83 85 86 88 92 95 96 98 101 103 101 98 95 94 93 93 94 95 97 99 101 103 105 106 107 108 107 106 106 104 101 97
54 60 66 71 76 79 82 83 82 82 83 85 86 84 84 85 86 87 89 91 90 87 90 92 93 92 90 90 87 84 83 85 84 82 83 85 84 86 89 94 98 101 104 106 106 104 100 99 96

GFSSGP_250_spd_039.txt.gz
Wind_Speed
85 83 78 79 74 69 67 62 60 56 53 51 52 48 46 44 40 38 39 37 36 35 34 33 32 31 30 30 29 30 30 31 32 33 34 35 35 35 36 36 36 36 39 42 42 42 44 45 46
88 87 84 82 77 73 71 67 61 57 56 55 53 51 50 45 45 42 41 39 38 37 35 33 32 32 33 32 32 32 32 33 34 35 35 36 38 39 37 37 39 41 43 46 47 48 49 50 51
92 91 89 84 80 76 74 69 64 61 59 58 56 54 52 50 48 46 44 43 40 39 39 37 37 37 37 37 37 37 37 37 38 39 40 40 41 42 42 44 46 47 49 50 52 52 53 54 52
95 94 92 84 81 79 78 74 68 67 62 59 59 57 55 55 52 51 48 47 46 44 43 42 40 40 40 41 40 40 41 42 42 43 44 43 43 44 46 47 49 49 50 51 53 55 56 57 57
97 97 93 89 85 82 82 77 72 70 67 63 61 59 58 58 57 56 54 52 49 49 48 46 44 44 43 45 45 45 45 45 45 46 46 46 46 47 48 50 52 54 55 55 57 56 57 58 58
98 95 94 92 90 88 85 83 77 75 71 68 66 64 61 62 62 60 57 55 52 51 52 51 49 48 47 47 46 46 46 46 46 46 48 49 52 53 54 55 57 58 58 59 61 62 60 60 62
103 93 94 95 95 95 89 87 84 81 77 74 69 70 66 65 66 63 59 56 56 55 54 54 53 52 51 50 50 50 50 50 51 52 54 56 58 58 60 61 61 64 65 64 64 65 65 66 66
100 98 95 94 97 97 96 89 87 85 83 77 77 75 71 70 67 65 62 59 59 57 55 55 56 56 55 54 54 54 55 56 58 57 59 61 63 64 65 65 66 66 65 64 64 64 65 65 64
104 100 95 93 91 96 96 93 90 87 86 85 80 76 77 75 72 69 67 65 63 62 61 60 60 59 60 60 59 60 61 63 64 68 68 69 68 68 66 66 65 62 62 64 66 67 67 66 65
106 101 93 92 95 96 96 95 94 90 89 88 86 83 81 80 77 74 71 70 69 68 67 66 65 65 65 64 65 66 65 68 69 72 72 71 69 67 62 60 62 64 66 68 67 66 65 65 65
108 100 98 102 98 94 93 96 90 89 87 87 86 83 83 82 80 78 76 75 74 73 71 70 69 69 68 69 71 72 73 74 75 72 70 68 64 64 65 67 67 66 65 66 67 67 68 70 70
111 105 106 105 99 98 96 98 91 87 86 83 83 84 85 84 83 81 80 78 76 75 74 74 73 74 74 74 74 77 75 72 71 70 65 65 66 69 69 69 68 68 68 69 71 71 70 70 70
115 110 108 101 103 104 100 95 89 90 86 82 78 76 77 79 79 80 80 79 79 77 76 76 76 76 75 74 73 71 67 66 64 65 66 69 70 71 72 72 72 72 73 71 71 69 68 67 65
117 113 109 107 108 107 101 98 93 89 85 85 82 79 76 74 73 72 72 74 74 73 74 73 73 73 73 71 69 68 68 69 70 71 72 72 71 71 71 72 71 71 71 70 69 69 68 68 66
122 114 113 111 110 108 105 98 91 93 87 85 81 81 81 79 77 75 75 74 73 73 71 71 71 72 70 68 69 68 69 70 71 71 72 73 74 75 76 77 76 73 73 73 73 72 72 73 71
125 119 116 113 112 108 105 98 98 96 91 87 85 82 82 85 83 82 81 79 77 76 76 74 71 68 69 70 71 72 73 73 73 73 73 75 75 75 76 76 76 76 76 75 75 74 74 76 75
129 122 118 116 113 110 106 103 97 95 92 92 91 88 86 85 85 87 86 84 83 82 80 76 72 72 72 73 73 72 72 73 75 75 76 77 76 78 78 77 77 79 78 77 79 78 77 76 76
124 121 121 118 114 111 107 104 100 97 96 93 91 90 89 86 85 84 81 82 82 82 80 78 76 74 76 78 78 78 78 79 81 79 81 83 80 82 84 83 83 81 81 81 82 79 77 77 77
129 125 123 122 115 114 111 107 102 100 99 97 92 88 87 87 87 84 82 79 79 78 79 79 80 80 79 78 80 79 80 81 79 83 83 83 84 83 86 87 87 84 82 81 81 83 80 79 78
124 123 119 121 118 115 114 108 103 102 100 98 93 90 87 85 84 82 81 81 81 82 81 79 78 81 81 83 82 80 82 84 87 87 90 89 89 87 85 84 86 87 88 85 86 86 82 82 81
113 125 120 120 117 116 112 109 110 106 102 100 97 93 90 88 86 83 82 82 80 80 81 80 80 81 85 85 85 86 87 89 91 92 91 89 88 88 88 88 90 90 89 89 89 87 87 87 86
110 116 123 119 118 118 115 113 111 109 106 104 99 96 93 91 88 87 86 84 82 82 82 83 85 86 87 88 89 90 90 89 90 91 91 89 89 88 89 91 89 89 90 90 92 91 90 89 88
104 111 115 123 120 117 116 116 110 109 108 105 103 100 97 96 92 89 87 86 85 86 87 87 87 88 90 93 95 94 92 91 90 90 90 89 91 94 92 91 90 89 92 93 94 93 91 90 88
91 104 110 115 122 119 116 115 111 111 106 104 103 102 99 98 95 92 91 90 89 89 89 89 91 94 97 97 97 95 91 91 89 89 91 95 95 95 97 97 97 97 96 98 100 100 100 100 101
84 93 103 109 112 119 116 115 113 110 108 106 105 102 99 98 97 94 94 93 93 94 95 94 95 96 97 96 93 90 90 90 91 93 95 96 96 98 100 103 105 105 107 107 108 109 109 109 108
76 86 94 101 105 106 110 111 109 107 107 106 105 104 103 100 98 97 99 97 97 97 94 95 95 92 91 91 91 90 90 91 93 96 97 98 100 103 104 110 114 116 116 113 111 109 107 106 104
66 75 84 92 98 101 103 101 99 98 101 105 104 104 103 102 102 98 95 96 92 88 86 89 91 88 86 88 89 90 93 94 94 96 99 101 108 112 115 114 113 113 113 113 113 113 113 112 109
58 68 75 83 89 94 97 96 91 86 86 90 92 92 98 102 101 97 91 87 84 84 83 83 85 87 88 89 91 93 93 96 100 103 107 110 110 109 107 108 105 105 105 105 108 107 106 108 110
51 58 65 72 79 87 89 92 89 85 75 71 72 72 72 70 70 72 72 75 80 82 84 87 90 90 91 92 93 97 100 106 108 107 103 101 100 97 93 90 92 92 92 94 96 100 104 106 105
46 55 59 63 71 77 89 86 85 85 82 80 78 77 76 75 76 76 77 82 83 85 86 87 90 91 92 95 101 105 101 96 95 95 91 85 84 82 83 89 94 93 96 100 104 104 102 103 101

GFSSGP_250_spd_042.txt.gz
Wind_Speed
76 78 78 75 71 67 65 59 58 59 55 53 52 50 46 41 40 38 38 37 34 32 31 30 29 28 27 26 25 25 25 25 26 26 27 28 29 30 31 32 34 35 35 36 38 41 44 47 48
83 81 82 79 75 72 69 64 62 62 56 59 57 53 49 40 39 38 38 36 36 33 31 30 29 29 29 28 28 27 27 27 27 28 29 31 32 33 33 34 35 37 39 41 43 46 47 48 51
88 84 85 82 79 75 74 70 66 58 64 61 59 56 50 44 48 45 41 37 37 35 34 33 31 30 30 29 29 30 30 31 32 32 33 35 36 37 39 40 41 42 44 47 47 48 51 52 53
91 87 87 84 82 79 79 72 70 67 66 65 63 58 57 53 47 44 43 40 38 36 35 33 32 32 32 33 33 34 34 34 35 36 37 38 40 42 42 42 43 45 46 49 51 53 54 56 56
94 90 89 89 86 84 84 75 73 74 70 68 67 61 58 56 52 50 47 44 41 40 37 37 36 36 36 37 37 37 37 39 40 40 41 42 42 43 45 46 47 49 51 54 55 57 57 58 60
95 96 92 91 89 89 87 79 77 77 74 71 70 62 63 59 57 54 51 47 44 45 41 41 41 41 41 41 41 41 41 42 43 43 43 42 43 45 47 49 52 55 57 60 61 62 63 64 64
99 98 90 92 94 95 89 81 80 81 76 77 68 67 67 64 61 58 54 52 49 49 48 46 46 45 45 46 46 47 47 46 46 46 46 47 50 51 55 55 57 60 63 65 65 65 64 63 60
102 98 98 94 96 96 93 89 83 83 78 76 73 70 66 68 66 62 58 54 53 52 52 50 50 50 49 49 50 51 50 49 50 51 51 53 56 59 61 63 66 68 67 64 64 60 59 61 64
109 106 100 96 95 92 96 92 89 86 81 77 79 69 68 73 68 66 62 57 56 56 56 54 53 53 53 52 52 53 54 55 55 57 58 60 60 62 65 67 70 67 66 64 61 63 66 67 67
111 107 101 98 95 98 99 93 94 88 88 81 81 78 75 76 70 68 65 62 61 60 60 59 57 55 56 56 56 56 58 60 61 63 63 66 69 71 73 72 69 68 66 66 67 69 69 68 69
110 106 105 106 102 100 100 94 96 91 89 85 83 81 77 77 74 73 69 67 66 65 64 63 61 61 61 62 62 63 64 65 68 68 68 70 72 76 76 73 69 67 65 67 70 71 70 70 70
113 111 114 107 108 103 100 97 98 92 92 90 85 79 81 82 80 76 73 70 70 70 69 68 66 66 68 67 68 68 69 70 70 72 75 76 77 74 71 69 67 68 71 72 71 69 68 69 70
118 117 116 113 107 102 98 96 100 97 92 90 84 84 85 82 82 81 79 77 76 75 74 73 72 71 71 72 71 72 72 74 74 75 77 79 74 70 69 69 72 72 71 71 72 72 73 73 73
123 124 120 116 106 103 103 103 95 96 94 87 86 86 85 85 84 82 82 81 80 79 78 76 76 75 75 75 74 75 75 76 76 76 74 71 69 69 70 71 73 72 72 73 74 74 75 74 77
130 127 122 116 108 108 108 105 95 92 90 88 85 84 82 82 82 82 81 79 78 77 78 78 77 75 76 76 75 74 74 73 72 69 68 68 69 71 71 72 74 74 74 75 77 78 79 77 78
134 131 126 119 111 112 107 100 98 98 90 87 84 84 81 79 80 80 79 77 73 69 68 66 65 68 70 70 70 71 72 72 68 69 70 73 72 73 73 74 76 80 81 82 82 83 81 80 79
134 133 127 121 115 114 108 104 101 99 92 88 87 82 81 82 80 80 80 78 74 73 71 71 71 72 73 73 74 76 77 74 73 73 75 76 78 80 80 82 83 85 86 86 85 85 84 81 77
131 131 127 123 120 116 110 108 105 99 94 92 91 90 85 82 82 82 80 76 76 77 75 74 75 75 76 77 79 81 80 76 75 77 80 81 82 83 84 84 85 86 88 92 91 89 85 81 79
124 132 130 128 123 118 113 111 109 102 98 97 95 92 89 87 86 84 79 78 78 77 78 79 79 80 80 80 80 79 81 81 82 83 84 85 82 84 87 90 92 93 91 91 92 89 83 84 82
116 126 128 129 123 119 116 113 110 105 100 100 97 92 89 88 88 83 83 83 82 79 79 80 80 83 83 83 82 79 81 84 85 85 88 89 87 88 90 93 96 95 96 90 88 86 85 83 88
105 111 128 126 123 122 120 115 112 106 106 104 98 96 94 91 89 84 86 84 85 83 82 81 81 80 79 79 81 82 79 79 85 87 89 92 94 93 94 96 96 97 95 94 87 87 92 89 86
95 104 115 125 125 125 122 117 114 111 107 107 102 99 95 93 90 88 86 86 86 85 82 81 81 81 83 83 84 84 84 86 87 92 95 98 100 103 103 101 95 91 91 91 91 92 91 90 90
89 96 106 115 126 126 122 118 117 111 108 107 105 102 98 96 93 91 89 88 86 87 86 86 86 86 87 88 90 90 91 93 96 95 97 101 105 106 108 107 97 91 90 89 94 95 93 94 95
78 88 98 110 116 121 122 120 118 116 111 110 106 105 102 100 98 96 94 92 89 89 88 87 88 90 89 92 92 93 95 97 98 101 101 104 104 104 100 102 100 98 97 96 97 98 98 99 102
72 80 91 101 110 108 117 120 117 116 114 112 110 106 104 102 100 99 97 96 95 94 94 94 93 94 94 96 96 97 98 100 101 103 104 103 101 97 96 96 100 103 102 103 105 107 109 111 111
66 75 82 89 96 103 108 113 117 112 115 115 113 110 108 105 103 101 100 99 97 97 97 97 96 96 96 97 99 101 102 104 105 105 101 100 98 95 98 102 103 106 109 112 117 115 111 110 107
57 63 71 78 84 91 97 102 111 109 111 111 111 111 110 109 106 104 102 101 100 100 100 100 101 100 101 103 103 104 106 103 103 99 95 93 96 98 102 105 105 112 119 112 108 109 109 109 108
49 58 64 70 78 82 90 96 100 106 108 108 109 110 110 109 109 107 105 102 101 102 102 102 104 105 103 102 103 103 102 98 94 94 95 98 101 103 105 109 117 107 105 104 102 104 108 108 104
47 53 58 66 71 79 84 87 90 96 100 104 105 105 104 105 104 104 104 103 104 104 105 103 104 102 108 107 103 97 92 93 94 96 98 100 102 107 112 103 99 97 94 93 98 103 103 102 98
42 49 54 58 64 71 78 82 85 88 91 94 95 96 97 97 99 100 98 97 95 98 99 103 104 99 95 94 91 88 93 96 96 99 99 106 112 99 94 91 86 87 86 90 96 93 91 90 93

GFSSGP_250_spd_045.txt.gz
Wind_Speed
77 75 75 70 68 65 65 61 54 53 53 52 50 49 45 41 38 35 35 30 30 29 29 28 27 25 24 24 23 21 20 21 21 21 22 22 24 26 26 27 28 30 32 33 35 37 40 43 45
84 81 76 72 70 68 67 63 61 58 58 57 56 51 44 39 38 37 35 32 31 29 29 29 29 28 26 24 23 22 22 22 22 23 23 24 26 27 28 30 32 34 36 37 39 40 43 45 48
90 85 81 75 71 72 72 67 63 61 61 60 58 50 46 46 44 41 38 36 35 34 32 31 29 27 25 25 25 24 24 24 24 26 27 28 29 30 31 33 35 37 39 40 42 44 46 50 53
92 90 84 78 72 76 76 71 66 66 65 61 59 53 52 51 47 42 38 34 34 33 32 31 31 29 28 27 26 27 27 28 28 29 30 31 32 34 35 38 38 38 40 41 44 47 51 55 58
97 92 88 80 74 79 79 75 69 69 68 65 61 57 55 54 50 45 43 43 39 36 33 32 31 30 30 29 29 29 30 31 31 32 33 34 36 39 39 39 39 41 44 47 50 52 55 59 64
104 96 89 82 80 83 83 80 74 73 71 71 65 61 59 58 55 50 47 47 42 40 38 36 34 32 32 32 32 33 34 35 36 36 37 39 41 41 42 43 45 47 49 53 57 59 63 65 62
108 100 90 88 86 90 86 85 79 75 74 76 67 64 63 61 58 54 51 51 48 43 41 41 39 38 37 36 37 37 38 39 40 41 42 43 44 45 46 48 50 54 56 58 61 65 65 63 62
108 109 105 95 95 91 86 87 85 79 81 77 69 66 66 65 64 61 56 54 50 47 45 44 43 42 41 40 40 40 42 43 44 46 47 48 50 51 52 54 56 58 62 64 67 68 68 66 65
114 114 111 101 96 92 95 89 87 82 82 78 72 71 71 67 67 64 60 59 55 51 49 48 47 46 45 45 44 44 46 48 49 49 50 52 53 55 57 60 62 63 65 68 71 71 68 65 63
117 113 109 104 98 97 95 88 87 85 83 81 76 75 75 73 70 66 62 60 58 56 52 52 51 51 50 49 49 49 50 51 52 53 54 57 59 61 63 66 67 68 72 74 74 70 68 66 67
120 112 110 109 103 102 98 93 89 91 88 83 82 76 75 74 74 70 66 63 63 62 57 56 54 53 54 53 54 55 55 56 57 58 59 62 64 66 68 69 71 73 75 74 71 68 67 67 69
122 117 114 113 111 106 100 96 95 93 92 87 84 79 76 74 75 74 72 69 65 64 62 60 59 57 58 58 58 59 59 60 61 63 65 67 69 71 72 74 75 77 74 72 68 69 70 70 71
124 120 118 116 111 107 104 101 99 97 92 89 86 83 78 77 78 76 73 72 70 68 65 64 62 62 62 63 63 63 65 66 67 68 70 71 73 75 77 77 75 74 71 69 69 70 71 72 73
125 125 123 119 112 111 111 107 101 97 94 90 88 83 84 80 78 77 77 76 74 71 69 68 67 66 66 67 68 68 70 71 72 73 73 75 75 76 75 71 71 71 68 72 75 75 76 78 80
129 129 126 119 114 113 112 108 100 99 93 89 89 87 86 83 82 80 78 76 76 75 73 72 71 71 71 71 72 73 74 74 74 75 75 73 71 69 70 70 73 74 78 76 79 81 81 84 84
129 131 127 120 118 116 116 109 104 100 95 90 90 90 87 85 83 82 81 78 76 74 75 75 73 72 73 74 74 76 75 74 72 69 68 68 71 72 75 75 78 78 78 79 80 83 85 86 87
127 130 126 124 120 119 118 108 106 104 98 94 89 87 88 87 87 84 83 80 75 72 72 74 75 74 74 74 71 68 67 67 67 69 72 74 76 76 75 77 78 81 83 85 87 89 89 89 92
119 126 125 125 122 122 121 112 111 107 101 97 93 90 87 84 86 86 83 77 74 73 73 73 74 74 72 70 68 71 69 70 72 73 74 77 81 79 79 80 79 79 83 88 89 91 94 97 98
120 126 131 129 126 125 123 119 113 108 105 102 98 95 91 87 84 81 79 77 75 75 75 73 69 71 72 73 73 71 73 75 75 77 79 78 78 79 78 79 80 82 86 90 94 96 98 100 101
114 119 128 130 127 126 127 120 116 108 105 104 102 97 94 91 86 82 78 76 75 75 74 74 73 73 74 74 74 74 76 78 81 80 80 77 75 77 81 84 88 90 92 96 97 101 103 102 101
108 113 123 128 126 125 126 121 117 112 108 106 105 101 96 94 90 85 80 80 82 79 75 76 76 76 77 78 79 79 79 78 80 81 81 82 82 83 84 89 93 96 97 98 102 104 104 103 99
98 107 114 121 126 127 129 122 121 115 111 108 106 101 100 95 91 87 85 86 85 83 81 81 80 80 81 81 81 80 81 80 80 81 85 88 91 92 95 95 96 99 101 104 104 106 103 97 94
86 89 101 111 121 127 129 123 121 120 114 110 108 106 101 97 95 90 90 88 86 86 84 83 82 82 83 83 83 85 86 85 84 85 86 92 96 99 101 104 105 105 106 109 107 103 94 92 95
73 78 90 99 111 122 128 125 121 119 117 116 112 108 106 103 98 95 93 92 91 90 88 87 87 87 88 89 89 89 87 89 90 93 95 95 98 102 105 109 111 112 112 110 101 97 96 97 100
61 69 81 90 98 106 118 126 119 120 118 115 113 111 109 106 104 100 99 97 95 93 92 91 91 91 91 91 92 92 93 94 96 98 99 101 104 106 106 109 111 113 110 105 103 99 101 103 108
61 64 72 83 90 97 110 112 118 120 117 116 115 113 111 110 107 107 104 101 99 98 96 95 95 94 95 95 96 96 97 97 99 102 104 106 107 108 110 108 110 107 105 102 101 105 107 112 119
56 58 64 72 84 92 99 102 104 111 118 119 116 114 113 110 110 108 107 105 102 101 100 99 98 98 98 98 99 99 100 101 102 106 107 106 110 111 109 111 107 101 101 103 107 110 116 117 105
49 54 59 64 73 81 86 90 97 101 106 114 115 115 114 113 112 110 107 106 105 103 101 101 101 100 100 101 101 101 101 104 106 107 106 110 111 111 109 104 97 99 103 108 113 119 104 102 97
42 49 52 59 65 73 78 81 85 94 100 102 107 112 114 114 113 112 110 108 108 106 104 104 104 104 103 102 103 104 106 106 108 108 108 109 106 101 97 99 99 102 109 115 104 97 89 87 90
41 46 50 55 60 66 72 74 80 85 91 97 99 102 105 109 111 111 110 110 109 107 107 106 104 105 104 104 105 106 107 104 106 104 105 94 93 95 97 101 106 112 108 94 87 82 78 76 81

GFSSGP_250_spd_048.txt.gz
Wind_Speed
87 83 83 78 74 70 68 64 58 53 54 51 51 47 44 45 45 44 37 33 33 34 34 33 30 28 28 27 26 25 26 24 24 21 19 18 19 21 21 22 23 24 27 29 30 31 33 35 38
91 86 86 81 73 72 71 66 60 58 58 54 53 50 47 46 46 44 40 32 31 31 31 30 29 27 26 25 25 26 27 24 21 20 20 21 21 22 23 24 26 28 30 31 33 34 36 38 41
96 88 85 81 76 75 74 68 63 61 59 56 54 51 49 48 46 46 41 36 33 31 30 29 29 28 27 26 26 26 26 24 22 22 23 23 24 25 26 28 30 31 33 33 34 36 39 42 45
97 94 87 81 78 81 75 69 69 65 62 58 54 52 51 50 49 48 43 39 37 33 31 30 29 29 29 29 29 28 27 26 25 25 25 25 27 28 29 31 32 35 35 36 38 40 44 48 52
103 96 92 82 77 83 78 75 72 69 65 60 56 55 56 53 51 49 45 41 37 36 35 34 33 33 32 32 30 28 27 25 26 27 28 29 30 31 33 34 36 38 39 41 43 45 50 53 55
109 101 93 84 84 87 82 79 74 71 68 64 60 60 58 56 54 52 50 46 42 38 36 35 35 34 34 33 31 29 28 27 27 29 31 33 34 35 36 39 40 41 43 45 47 50 54 57 59
110 106 96 91 89 87 84 79 74 74 74 68 65 63 61 60 58 57 54 48 45 41 39 37 36 35 34 34 32 31 30 31 31 33 35 37 39 40 42 43 44 46 48 50 53 56 59 61 64
112 110 104 97 95 92 86 80 75 74 77 72 68 64 67 64 63 60 57 53 49 46 44 41 39 40 38 37 35 35 35 36 36 36 38 40 42 44 46 46 48 50 52 55 59 62 64 66 70
117 114 107 98 99 97 90 86 82 77 77 76 71 69 69 66 65 62 60 57 54 52 50 48 46 43 42 41 40 40 41 41 40 41 43 45 45 46 48 50 52 54 57 60 63 65 68 71 72
118 114 103 102 100 100 98 93 87 83 79 80 75 72 71 71 67 66 64 61 58 55 54 51 49 47 46 45 44 45 46 46 46 45 46 48 50 51 53 54 57 60 63 64 66 69 71 71 71
119 113 110 109 105 107 101 99 95 90 82 80 80 77 74 70 66 68 68 65 63 60 58 55 53 51 49 48 48 49 49 51 50 50 52 53 54 56 57 60 62 64 67 70 72 71 71 70 69
121 116 116 113 111 108 106 105 100 96 87 82 83 82 78 75 73 70 71 69 66 65 64 60 58 57 54 53 54 54 53 53 53 54 55 57 59 60 63 65 68 69 72 73 71 71 69 66 67
120 120 120 118 115 113 112 109 101 97 93 86 84 83 81 78 77 77 74 69 70 66 64 62 61 60 60 60 58 58 58 58 58 59 59 60 63 65 67 69 71 73 74 72 69 68 68 71 73
119 122 124 122 120 117 116 111 104 100 96 91 83 85 83 81 79 78 78 77 73 71 68 66 65 63 62 61 61 61 62 61 61 62 63 65 68 71 73 73 74 73 70 67 70 72 74 74 77
121 124 128 125 123 118 118 117 108 102 102 96 90 83 84 84 82 81 78 76 75 74 73 71 70 69 68 66 65 65 66 66 66 65 67 70 72 74 74 74 71 69 70 72 72 74 76 80 80
119 125 128 125 125 121 119 118 116 111 106 100 93 88 87 86 84 82 81 78 76 73 73 73 73 73 72 70 69 69 68 69 70 70 73 73 74 74 73 71 70 71 73 76 78 76 78 80 81
118 121 125 125 125 124 121 119 117 116 115 103 95 91 87 88 86 83 81 79 77 75 75 74 74 75 73 73 72 71 71 72 73 74 75 75 75 73 70 72 73 75 76 76 77 79 80 84 87
109 115 125 126 126 125 123 121 121 118 114 107 99 94 92 89 86 84 83 80 78 79 79 78 76 74 73 73 73 73 74 76 74 75 73 71 71 71 73 73 75 77 78 78 79 81 84 88 92
107 117 122 125 127 127 126 125 123 120 116 110 104 98 95 92 88 85 83 82 79 78 79 79 79 77 75 73 73 72 73 73 72 69 70 71 71 74 76 77 79 79 79 80 83 85 89 91 96
103 113 119 129 129 128 128 126 124 119 116 111 108 104 99 95 91 87 84 82 83 82 81 81 81 78 76 73 69 68 67 68 69 69 70 74 75 75 78 79 79 82 83 85 89 92 94 97 103
98 108 116 128 127 127 127 126 123 120 115 111 110 105 103 99 95 91 87 85 84 82 80 80 78 77 75 75 75 74 73 72 73 75 76 76 77 79 79 79 82 86 90 93 94 97 101 105 110
94 101 111 120 131 127 128 125 123 121 118 112 110 108 105 101 97 94 92 91 89 87 84 79 77 77 75 74 73 71 71 73 76 77 78 82 84 87 87 88 89 90 92 95 99 102 107 111 112
92 96 106 115 121 131 127 123 121 121 117 114 111 108 107 102 99 96 94 93 92 92 90 86 83 80 77 76 77 77 77 77 79 80 84 86 90 91 95 95 96 97 97 100 103 108 109 112 112
84 91 97 106 115 119 123 123 119 119 116 116 115 112 110 107 103 101 98 97 95 94 93 91 90 88 86 85 84 83 83 84 86 87 87 89 92 96 97 100 101 103 104 107 109 109 111 114 109
72 81 86 90 97 104 118 123 117 122 117 117 116 114 113 109 106 103 103 101 99 98 96 93 92 91 91 91 91 90 89 90 90 90 93 95 96 98 99 103 106 109 111 112 112 112 114 110 99
60 63 72 82 85 100 111 112 112 122 124 122 116 114 113 113 111 108 107 104 102 101 99 97 95 93 93 93 92 92 91 92 94 95 97 98 99 102 103 105 107 109 110 113 115 115 112 101 98
54 58 63 69 79 90 95 101 106 111 121 123 121 118 116 113 112 111 109 106 105 103 102 101 99 98 97 96 95 95 95 96 97 100 101 102 103 104 105 105 107 109 111 114 114 107 98 99 103
49 55 56 59 67 78 86 90 94 103 108 114 119 122 120 118 115 112 109 109 108 107 105 104 103 102 100 99 100 100 99 99 100 102 103 104 105 106 106 108 110 112 114 113 102 95 98 103 109
42 47 52 58 60 68 78 81 89 96 99 105 110 114 117 119 117 114 111 110 109 108 107 106 105 103 103 103 103 102 103 104 103 104 104 104 107 108 110 112 114 113 110 98 93 98 102 107 103
42 46 49 55 61 65 69 75 81 87 92 94 100 105 109 116 116 116 114 112 110 108 106 106 106 105 104 104 103 103 103 105 105 105 106 108 110 111 113 113 111 100 94 93 98 103 105 97 86

GFSSGP_250_spd_051.txt.gz
Wind_Speed
95 94 92 88 79 71 67 66 68 62 60 54 50 45 44 44 44 44 42 40 38 34 34 36 36 35 35 33 31 29 28 28 27 26 26 25 24 23 20 19 17 17 19 22 24 27 29 30 32
97 94 93 89 82 72 71 71 67 65 62 56 53 48 47 48 48 46 43 40 36 34 37 35 35 35 33 31 30 30 30 29 28 27 26 26 23 21 20 19 19 20 23 24 27 29 31 33 35
99 96 93 88 82 76 78 75 69 68 62 59 54 50 49 49 49 45 43 42 37 34 35 35 34 33 32 31 31 31 30 30 29 28 26 25 23 22 23 22 22 23 25 27 30 33 35 37 39
101 99 95 90 81 84 83 78 73 71 65 63 57 52 51 50 50 46 45 45 41 37 33 32 33 32 31 30 30 30 30 29 29 28 27 27 25 24 24 24 25 26 28 32 33 35 38 40 43
105 103 99 92 86 89 85 81 76 73 69 65 61 54 53 52 50 50 47 46 43 40 35 32 31 31 30 30 31 32 30 29 29 30 29 26 26 27 27 28 29 30 33 37 38 40 42 45 48
111 105 101 93 92 93 88 84 81 77 73 68 64 57 54 54 52 53 49 47 46 42 40 37 35 34 33 33 33 33 32 31 32 29 27 26 27 28 30 31 33 35 38 40 41 43 46 49 53
113 108 101 99 99 97 89 86 85 79 75 72 66 62 58 59 55 55 53 50 49 45 42 39 38 37 36 35 35 34 34 33 33 30 28 29 29 31 32 35 37 39 41 43 45 48 51 54 57
116 113 108 105 104 101 92 88 86 81 76 72 70 65 63 64 59 58 56 53 51 48 46 44 41 39 37 37 36 36 35 34 33 32 33 32 33 34 37 39 40 43 43 46 49 53 56 59 62
116 117 109 104 102 101 93 90 87 84 79 74 71 71 68 64 62 59 58 57 55 52 49 47 45 43 41 39 39 37 37 36 36 36 37 37 37 38 40 42 43 46 47 51 54 57 60 64 67
116 114 108 105 102 100 99 94 88 85 84 80 76 74 70 67 66 63 62 61 58 55 53 51 48 46 44 42 41 41 41 41 40 41 42 42 43 44 45 46 47 50 52 55 58 62 65 68 70
117 118 115 112 109 106 102 101 93 86 84 82 78 76 75 70 69 67 66 64 62 59 57 55 53 51 49 48 46 46 46 45 44 45 46 46 47 48 48 50 53 54 57 59 62 66 69 70 70
115 115 116 116 114 107 103 101 97 89 85 83 80 79 64 73 72 69 67 65 65 62 60 59 57 56 55 53 51 50 50 49 48 48 49 50 50 50 52 54 57 59 61 64 67 69 71 71 68
113 117 119 119 115 112 108 104 100 95 90 86 81 77 70 67 72 72 69 68 68 67 66 62 60 59 58 56 55 55 54 53 54 53 53 55 55 56 57 59 60 62 64 67 70 71 69 69 68
110 117 120 121 117 115 111 107 105 100 96 94 87 82 80 79 77 74 72 72 69 69 69 65 64 64 62 61 60 59 59 59 59 59 58 58 59 60 62 63 65 67 70 71 72 69 69 71 73
109 118 120 121 120 115 116 113 107 106 103 100 96 92 87 84 80 77 77 74 72 71 69 69 69 67 65 66 66 63 62 61 61 60 61 62 63 64 65 67 69 71 72 72 71 69 71 74 76
107 116 121 122 120 119 119 114 111 114 108 106 101 94 92 87 84 82 79 78 76 73 72 70 69 69 70 68 65 65 65 65 65 65 67 67 67 67 69 71 72 72 72 72 69 71 74 77 80
103 108 118 121 118 120 118 118 115 117 113 110 106 101 96 91 86 82 80 77 75 76 75 74 74 75 74 71 70 70 70 70 70 70 70 70 70 72 72 72 72 72 70 70 72 75 77 80 82
92 100 113 116 118 119 120 119 119 117 120 114 110 105 100 96 91 84 79 77 77 78 78 77 77 77 76 74 73 72 72 72 72 72 73 73 73 72 71 73 73 70 70 73 76 78 81 84 86
92 101 110 115 119 121 124 123 122 121 122 120 113 105 101 100 95 89 83 80 79 79 80 80 79 78 77 75 75 74 75 75 74 74 75 75 74 74 75 72 70 69 73 77 80 81 84 87 92
90 99 104 115 119 123 126 125 124 122 124 123 118 110 105 102 98 94 88 83 81 81 81 80 80 80 78 77 76 76 77 76 77 75 75 73 73 72 71 71 71 73 78 80 83 86 88 91 95
87 94 100 109 116 125 127 128 126 122 124 124 120 115 106 103 100 96 94 89 86 84 83 81 81 82 80 77 76 78 77 77 76 74 73 75 73 71 71 73 75 79 81 84 87 92 95 96 98
84 88 95 102 113 122 126 127 125 124 125 126 121 115 112 110 108 103 100 95 92 89 86 84 82 80 80 80 80 79 78 78 77 77 75 75 73 73 74 77 80 82 84 87 92 96 99 101 101
82 84 90 98 107 116 127 126 124 122 123 123 121 120 115 112 111 111 108 103 98 96 93 89 86 83 81 81 79 79 79 79 79 80 80 80 81 83 85 86 86 89 91 94 96 97 98 102 104
78 82 84 93 100 109 121 127 124 124 121 123 122 121 117 112 111 111 111 108 104 101 98 95 92 89 86 84 82 81 79 79 79 80 81 83 85 86 87 90 93 96 97 98 99 99 101 103 105
73 77 80 85 92 98 113 127 125 128 123 123 120 119 116 113 110 109 109 112 109 106 102 99 97 94 92 90 88 86 85 85 85 86 87 88 89 91 93 95 96 98 99 101 102 103 103 106 107
67 70 75 79 85 94 105 108 121 128 127 122 119 117 114 111 109 108 110 109 109 108 105 101 100 98 96 94 92 92 90 90 90 91 92 92 92 94 95 97 99 100 103 104 105 107 109 110 113
58 62 67 73 81 88 91 96 110 123 124 123 122 117 113 111 108 108 109 110 109 107 105 104 103 101 99 97 95 94 94 95 95 95 95 95 96 96 98 100 101 104 105 106 109 110 112 114 116
42 50 54 59 71 80 82 86 97 112 125 126 123 119 117 114 110 108 106 106 108 108 108 107 105 104 102 100 100 99 99 98 98 98 98 98 99 99 102 103 105 105 105 108 110 113 115 116 113
43 46 52 59 62 66 74 83 92 100 110 120 124 122 119 114 107 103 101 99 101 103 105 106 107 106 106 104 103 102 101 101 100 100 100 100 101 102 103 104 105 107 109 110 112 113 112 105 98
36 42 48 53 59 66 70 73 86 93 98 104 110 114 116 113 110 107 105 105 103 103 103 103 104 103 103 103 104 104 103 103 103 103 104 104 104 105 105 105 106 109 111 113 112 103 98 92 91

GFSSGP_250_spd_054.txt.gz
Wind_Speed
103 98 94 91 83 73 70 67 67 64 59 53 49 51 50 47 44 45 44 43 42 37 33 33 34 34 35 35 36 35 34 33 31 30 29 25 25 24 25 23 22 18 17 17 18 20 23 24 26
108 102 99 94 89 79 75 73 72 69 61 54 52 51 51 49 47 45 47 43 41 36 32 33 33 33 33 34 35 35 34 33 31 28 25 26 26 25 25 24 22 19 19 19 21 22 24 27 29
110 107 101 99 91 83 81 81 77 72 65 58 56 54 52 50 49 45 45 46 40 37 34 35 36 36 33 36 35 34 33 31 29 27 26 27 25 27 26 25 24 23 21 22 23 26 28 30 33
113 110 105 101 94 90 89 85 80 77 71 62 58 57 52 53 51 48 47 44 43 39 36 35 34 35 34 37 36 34 32 31 29 28 28 28 28 27 27 27 24 24 24 25 27 30 32 34 35
113 109 105 97 95 95 92 89 84 78 72 68 61 60 54 53 54 50 48 44 45 41 39 36 34 33 34 35 35 33 33 31 29 29 30 30 29 29 29 28 26 26 27 29 31 33 36 37 39
107 111 104 97 95 98 96 92 87 80 73 71 65 62 58 55 53 52 50 46 46 43 42 40 38 34 33 34 35 33 31 30 30 30 31 31 30 30 28 26 27 28 30 33 35 37 41 41 43
101 109 105 100 98 101 98 96 90 84 77 72 66 64 62 58 55 52 52 48 46 45 45 43 42 38 36 37 34 32 30 31 32 32 32 32 30 30 28 29 29 30 33 35 38 40 42 45 47
97 105 110 105 101 101 98 95 91 86 79 73 71 68 65 62 60 55 53 53 48 49 47 45 44 41 39 39 36 34 33 33 33 34 33 33 32 32 32 32 31 33 36 37 40 43 46 49 53
100 102 106 107 104 99 98 95 93 88 81 77 74 73 71 67 64 59 56 56 52 52 50 48 46 43 42 40 39 37 35 35 34 35 35 34 34 34 35 36 37 39 41 43 45 47 50 53 56
102 99 98 103 105 101 102 100 97 92 85 81 78 75 73 70 67 63 60 57 56 54 53 51 48 47 44 42 40 39 38 36 37 37 37 37 37 38 39 40 41 43 45 47 48 49 52 56 59
101 93 98 99 105 110 107 102 99 95 88 83 81 77 74 72 60 65 65 61 59 59 57 55 52 50 48 46 45 43 42 41 40 40 40 40 41 42 43 43 45 46 48 49 51 54 56 59 64
99 97 98 104 106 110 109 103 100 95 93 88 83 80 79 76 74 64 69 67 63 60 59 58 55 53 51 50 48 48 46 45 44 44 45 44 45 45 46 48 49 50 52 54 56 58 60 63 66
95 98 98 104 106 109 113 111 103 100 97 92 86 85 83 80 78 72 74 71 68 65 64 61 59 57 55 54 53 53 52 50 49 49 48 49 49 50 51 53 54 54 56 58 61 62 64 67 69
95 96 97 100 108 112 113 114 109 102 100 95 90 89 87 83 82 72 66 74 73 67 65 63 62 61 60 58 58 58 56 56 54 52 53 53 53 55 57 57 57 58 61 63 65 66 69 69 70
99 98 98 99 108 112 114 115 106 105 103 99 95 91 88 86 83 82 70 71 76 72 68 67 66 64 64 63 62 60 60 59 59 58 57 57 59 60 60 61 62 62 64 67 66 70 70 71 71
102 99 98 98 106 111 113 109 111 111 104 101 99 93 88 88 89 84 79 73 74 75 72 69 68 68 67 67 65 64 63 63 63 61 62 63 62 62 65 67 67 67 68 69 70 71 72 74 71
101 97 95 97 102 113 111 112 113 112 107 103 102 99 93 90 89 89 86 84 76 75 75 72 70 69 67 66 66 67 66 66 66 66 66 64 65 67 69 70 70 69 70 71 72 74 76 72 72
92 93 95 97 100 110 112 114 115 114 113 108 105 103 98 94 92 91 88 85 79 73 69 70 71 71 70 70 70 68 67 66 66 66 68 68 69 70 70 73 72 71 72 74 75 75 74 74 76
92 94 95 98 99 106 117 117 115 115 113 110 108 105 105 101 95 91 88 82 78 76 73 70 72 72 71 72 72 71 71 71 71 72 72 72 72 72 73 73 74 75 74 75 77 75 75 78 80
88 90 91 96 100 104 118 117 116 115 112 113 112 109 107 105 100 94 91 87 84 83 79 74 72 73 74 75 75 75 75 76 76 76 75 74 75 75 75 75 75 75 75 75 75 79 80 81 85
81 87 88 94 98 101 109 120 119 114 113 114 115 113 112 108 105 102 98 95 91 88 86 82 77 74 74 75 76 78 78 78 78 78 78 78 78 77 77 77 78 78 77 76 79 82 83 85 88
78 83 85 89 94 96 104 113 118 116 115 116 115 116 114 114 111 108 105 102 99 95 92 88 84 79 77 76 76 77 77 78 78 78 79 80 79 78 77 77 78 78 79 80 82 82 84 87 90
75 77 81 82 88 92 96 106 118 117 114 114 114 117 120 116 113 114 110 107 103 100 98 95 92 88 84 81 79 78 78 78 79 79 80 80 80 79 80 79 80 81 81 81 83 85 88 93 97
71 73 77 78 82 87 92 99 114 119 116 119 119 121 123 122 116 115 114 111 107 105 103 101 98 95 91 86 84 84 82 81 81 81 81 81 81 81 82 82 83 84 86 87 90 93 95 97 99
63 68 71 74 76 82 87 91 101 119 122 121 121 122 124 124 122 117 114 113 114 111 107 104 102 100 96 93 90 88 87 86 86 86 86 86 86 86 86 87 88 90 93 95 96 97 97 98 100
61 64 67 69 72 79 84 83 89 108 121 125 124 123 123 125 122 119 117 113 112 112 112 108 105 104 102 100 98 96 94 93 92 93 91 91 91 90 91 92 93 94 95 97 98 99 99 101 103
55 58 62 66 70 74 77 79 86 96 114 125 123 122 122 122 123 123 119 112 111 110 111 111 110 108 108 107 105 102 99 97 96 95 94 94 93 93 94 94 95 96 98 99 100 99 102 106 108
50 58 57 60 64 68 71 77 82 90 101 115 126 127 125 122 123 123 120 114 108 107 108 109 110 110 109 109 108 106 102 101 100 99 98 97 97 96 97 97 99 99 100 102 103 106 106 107 107
35 43 50 56 58 62 66 73 82 85 94 101 111 127 126 122 120 122 121 115 109 104 102 102 103 104 106 109 109 109 108 105 102 101 100 100 100 102 102 103 103 103 103 105 105 105 107 107 108
28 32 44 51 54 60 66 67 79 88 91 95 100 111 125 130 123 117 112 108 109 106 102 101 99 98 98 100 102 103 104 104 104 104 105 104 104 103 104 102 102 105 103 101 103 104 104 103 101

GFSSGP_250_spd_057.txt.gz
Wind_Speed
102 98 93 90 84 79 76 72 71 67 62 57 53 51 46 48 46 49 46 45 44 42 38 36 35 34 33 34 34 35 35 33 33 31 29 27 27 27 25 24 25 25 24 21 19 19 18 19 21
107 103 98 94 87 80 80 81 76 70 65 60 54 50 47 47 48 48 47 47 43 43 41 37 35 33 31 32 32 33 34 33 33 31 29 27 27 27 26 26 26 26 24 22 21 21 21 22 24
109 108 104 99 91 83 83 83 82 74 67 64 58 53 52 51 50 49 47 45 43 43 41 38 35 33 32 31 31 30 33 34 33 31 29 29 29 27 27 27 27 27 26 24 24 23 24 26 27
108 112 109 105 95 88 85 85 85 78 74 69 62 57 53 52 51 49 49 48 45 42 42 39 37 35 32 33 34 31 33 35 33 31 30 30 29 28 28 28 28 28 26 25 25 26 28 29 31
106 108 110 105 99 96 93 90 88 82 78 72 65 61 57 54 53 50 49 48 46 41 41 41 40 37 33 33 34 33 34 36 35 33 33 30 29 29 30 30 30 29 27 27 27 28 30 32 33
105 105 106 104 103 104 100 97 90 87 80 73 68 63 59 56 54 52 51 48 48 44 40 40 41 39 34 31 33 32 34 36 35 34 32 30 29 30 32 32 31 30 28 28 29 31 32 34 35
100 103 99 106 106 106 103 101 97 90 86 81 75 69 65 59 55 56 54 51 49 47 43 42 42 41 36 34 33 33 35 36 36 34 31 30 30 31 32 32 32 30 29 30 32 34 35 36 38
98 101 103 102 108 105 106 103 101 97 92 86 80 74 68 63 60 57 55 52 50 49 47 45 44 43 40 37 33 33 34 36 35 33 32 32 33 32 32 33 32 31 32 34 36 37 39 41 43
99 98 100 100 100 105 105 106 104 100 95 91 85 80 73 68 63 60 58 55 54 49 48 48 45 44 44 40 39 36 36 37 34 34 33 33 33 33 34 34 35 35 36 38 40 41 43 45 47
98 97 95 95 99 102 107 106 108 103 99 94 90 84 79 70 66 62 63 58 57 54 50 50 48 47 47 44 42 41 40 39 38 38 36 35 35 34 35 36 37 38 40 42 43 45 47 49 51
95 91 94 101 105 107 103 108 108 105 100 95 90 87 83 75 70 67 57 58 59 58 55 53 52 51 48 48 45 43 42 41 40 40 38 37 37 38 39 39 40 41 43 44 46 47 50 52 55
92 91 96 99 104 100 97 107 107 104 101 98 92 88 85 80 75 71 64 57 59 62 59 56 54 53 52 50 49 47 46 45 43 42 41 41 41 41 41 42 43 45 46 48 50 52 53 55 57
93 93 95 100 101 98 100 106 107 104 101 97 94 90 86 81 79 79 72 61 61 63 64 62 57 54 54 54 54 51 49 48 47 46 46 45 45 45 45 46 47 49 50 52 54 55 57 59 60
93 94 96 100 98 99 97 101 104 104 102 97 95 93 89 83 82 80 79 76 63 63 64 64 63 59 57 57 56 56 53 52 51 51 50 49 49 49 49 50 51 53 55 57 57 59 62 63 65
95 96 97 99 100 98 99 97 96 104 102 98 95 93 92 88 85 85 81 80 76 68 63 67 65 65 61 60 60 58 58 57 56 55 54 54 54 54 55 55 56 56 59 59 61 63 66 66 67
97 95 97 97 98 94 98 93 97 103 102 101 99 95 94 93 91 88 84 80 79 79 78 69 69 69 66 64 62 61 61 61 60 58 58 58 58 59 60 60 59 59 60 62 65 66 67 68 68
97 92 92 94 96 94 94 95 99 101 99 101 101 99 95 96 95 92 88 84 82 82 79 75 74 72 70 66 65 65 66 65 63 63 62 63 63 63 63 63 62 61 64 66 67 69 70 71 72
89 89 91 93 93 94 92 99 100 101 101 100 103 101 97 97 97 95 91 89 86 84 84 83 80 75 74 71 69 68 67 67 66 66 66 67 67 65 65 65 65 65 67 69 71 72 73 75 75
92 93 93 95 93 92 96 101 100 99 98 98 99 102 101 99 99 97 94 91 92 87 84 84 82 80 73 73 74 72 69 67 67 67 66 67 68 66 66 68 70 71 72 71 73 76 77 76 77
89 94 95 96 97 95 96 100 100 99 98 100 98 100 103 104 103 100 97 95 92 92 88 85 84 83 81 75 69 71 71 69 69 69 70 69 68 69 71 73 74 74 74 76 76 76 76 78 79
85 91 95 95 97 96 95 95 96 94 95 98 97 100 103 106 105 106 102 98 97 94 91 88 85 84 83 80 72 67 68 70 71 72 72 71 72 74 75 76 77 78 77 78 79 80 80 80 80
79 85 90 96 97 97 96 92 91 94 94 94 97 99 104 107 108 107 108 105 102 99 95 91 88 87 86 84 82 74 70 69 70 71 73 74 75 75 76 77 77 79 79 80 80 81 81 81 82
73 78 82 90 95 96 93 91 91 91 90 91 98 103 104 107 109 109 109 108 107 103 99 95 91 89 87 86 83 79 77 75 74 74 75 76 77 78 78 78 78 79 80 81 82 83 84 85 86
71 72 74 78 85 88 90 88 89 91 93 95 99 102 109 108 109 112 112 109 107 107 105 100 97 93 91 89 88 86 83 83 81 79 78 78 78 78 79 80 82 83 84 85 86 87 88 90 92
67 67 67 70 75 79 82 82 87 88 90 93 104 104 108 113 112 112 112 113 112 110 109 108 103 99 95 94 93 92 89 88 87 87 85 85 84 83 83 84 85 86 87 89 90 93 94 95 96
61 62 64 66 70 73 77 74 81 85 89 95 99 104 102 107 113 113 112 113 114 114 113 110 108 106 103 100 99 98 96 95 93 92 92 91 90 90 90 89 91 92 95 95 96 97 98 97 98
53 57 60 62 66 70 70 69 78 80 83 89 96 98 112 109 110 116 118 114 113 114 114 113 112 110 107 105 106 104 103 100 99 98 97 97 95 96 97 97 96 97 97 99 100 100 100 102 102
46 54 56 57 61 64 64 66 74 77 79 86 91 95 104 120 116 117 119 121 117 114 112 112 112 112 111 111 110 109 107 105 103 102 102 102 101 101 101 100 100 99 100 101 102 103 104 105 105
42 43 48 55 56 57 60 65 70 74 78 82 87 91 99 105 122 118 117 119 120 116 111 110 109 110 111 111 109 109 110 110 110 109 107 107 105 105 104 104 103 104 102 103 103 104 105 104 105
26 37 44 48 53 55 57 59 66 72 78 82 86 90 94 101 106 119 117 112 116 120 115 106 107 106 106 106 107 108 108 109 109 109 108 108 105 104 102 102 100 101 100 101 102 102 102 101 98

GFSSGP_250_spd_060.txt.gz
Wind_Speed
105 98 95 94 91 79 77 73 71 69 63 58 55 53 49 48 46 47 48 44 42 41 39 38 37 35 35 36 37 38 36 35 34 34 32 31 30 27 27 27 26 28 26 27 26 27 23 23 23
108 105 101 99 94 84 79 77 75 70 69 64 59 56 51 51 50 47 48 47 44 44 43 41 38 38 37 36 36 36 35 34 33 32 31 30 29 27 29 30 29 29 28 29 28 27 25 25 25
110 109 104 101 96 88 86 83 78 75 71 67 63 59 56 54 52 50 48 49 47 47 45 43 40 40 39 37 36 35 32 29 30 31 32 32 31 29 30 30 31 30 30 30 30 28 27 28 27
106 112 110 101 94 93 86 86 83 80 75 70 68 62 59 55 54 52 50 49 47 48 46 43 41 40 40 39 37 35 31 27 27 31 33 33 32 31 32 31 32 30 31 31 32 30 28 29 30
105 109 112 105 100 96 91 89 85 84 80 76 72 67 61 57 56 54 51 49 47 47 45 41 41 40 40 40 37 34 32 32 29 30 33 34 32 32 32 32 32 31 32 33 32 32 30 30 32
106 104 107 106 105 101 96 93 91 88 83 81 77 71 67 64 59 56 53 52 49 49 46 44 42 41 41 41 39 35 33 33 34 32 35 35 34 33 32 32 32 33 34 34 33 34 32 32 34
100 105 101 107 108 105 103 100 95 91 86 84 82 78 72 67 63 60 55 53 51 48 46 45 45 41 40 40 39 36 32 32 34 33 35 36 36 35 34 32 33 34 36 35 35 35 34 35 38
100 103 105 107 106 107 104 104 100 95 88 86 85 80 75 74 66 63 58 56 53 50 47 45 46 43 42 40 39 38 32 33 34 33 35 36 36 35 34 34 34 36 36 35 37 38 38 39 41
99 101 101 104 105 108 108 108 106 99 94 89 86 82 78 75 71 68 64 58 56 54 50 48 47 46 45 42 40 40 36 33 35 35 36 36 37 36 36 36 37 37 37 38 40 41 41 42 44
100 98 97 100 106 105 109 110 108 105 102 95 90 86 82 78 74 71 67 61 57 56 54 51 49 47 47 45 43 42 41 38 35 35 37 37 37 37 38 38 38 39 39 40 41 43 45 46 47
98 94 93 101 104 107 107 110 109 107 105 99 95 90 85 82 77 74 70 66 62 56 54 52 50 48 48 48 45 45 44 42 40 39 40 40 39 41 41 40 39 39 40 42 43 45 46 48 49
96 95 97 101 104 102 105 105 109 110 107 104 101 97 93 87 82 78 73 69 66 64 60 56 54 53 50 49 48 47 47 46 45 43 43 43 42 42 43 42 41 42 44 45 46 48 49 51 53
96 97 96 100 99 102 105 106 105 108 109 106 104 102 98 93 88 83 77 72 67 66 63 61 57 56 53 52 52 49 50 50 50 47 46 45 45 44 44 44 44 45 47 48 49 50 53 54 56
95 95 96 97 98 101 102 103 105 105 108 108 105 102 101 95 93 87 82 78 72 67 64 62 61 59 59 57 56 54 52 52 52 52 51 49 49 48 48 48 48 49 50 52 53 55 58 58 58
97 95 95 95 96 99 102 102 95 102 102 107 107 104 101 99 94 91 86 82 77 71 64 66 62 59 60 62 60 60 57 55 55 55 55 54 52 52 52 52 52 53 55 56 57 59 62 61 61
97 99 94 93 98 100 102 96 97 106 102 101 105 106 102 99 99 96 93 85 81 76 72 68 70 68 64 63 64 65 63 60 58 56 56 57 56 56 56 56 57 58 58 60 61 63 63 62 65
96 95 91 91 95 99 99 97 96 101 99 97 99 102 102 101 98 99 96 91 87 80 77 76 74 69 70 69 68 67 67 66 62 60 59 59 60 61 61 61 61 61 62 63 65 65 64 66 69
83 87 89 90 92 95 94 96 98 97 97 98 98 97 100 103 99 98 99 95 92 87 81 79 77 76 77 75 75 72 70 70 67 64 63 63 64 64 64 64 63 64 67 66 66 66 68 71 73
87 90 92 92 92 94 93 93 97 97 95 95 94 94 97 101 102 99 97 95 95 91 86 84 79 81 82 82 81 79 76 74 73 69 66 67 67 67 67 68 67 67 67 68 68 69 72 76 77
86 87 92 93 95 94 93 92 94 93 94 95 95 90 95 100 100 100 98 97 95 93 90 89 85 81 81 82 84 82 79 76 72 72 73 72 71 70 69 69 70 69 70 71 72 74 77 80 79
84 85 89 92 92 91 91 89 89 92 95 96 94 94 94 100 100 102 102 100 99 97 95 94 92 87 81 80 81 83 82 78 77 73 69 73 74 74 73 72 72 71 72 75 78 77 76 77 79
82 83 87 91 92 90 89 88 87 91 93 95 95 93 94 97 102 101 102 104 103 101 99 97 95 95 94 90 87 86 82 80 81 77 73 70 68 68 70 72 72 72 73 75 77 78 78 79 80
75 80 83 86 88 89 88 86 89 90 92 93 95 95 94 95 98 101 103 104 105 103 102 100 100 100 97 93 89 88 87 86 84 84 82 79 75 71 71 71 72 73 75 77 78 79 79 80 82
74 76 77 79 82 84 85 85 86 89 90 93 95 94 94 93 95 98 100 103 104 105 105 105 103 102 100 99 97 93 90 89 88 88 88 87 84 83 81 79 78 78 79 80 81 83 85 86 87
69 69 71 73 74 78 82 83 86 89 89 92 92 96 97 95 94 96 98 99 102 106 108 108 107 105 104 102 102 98 95 93 92 92 92 91 88 85 84 83 85 86 86 87 88 89 90 91 93
63 65 65 66 69 75 81 82 86 92 90 91 93 92 92 93 92 94 95 96 99 103 109 111 110 108 108 106 105 104 101 99 95 93 92 92 91 91 90 89 89 90 90 91 93 94 96 98 99
59 62 62 64 67 71 75 80 89 91 89 92 93 94 94 93 93 93 93 95 97 101 105 109 113 113 111 109 110 109 106 105 102 100 97 95 94 94 96 96 95 94 95 97 100 100 100 103 104
53 57 61 65 68 69 70 74 82 86 86 89 93 94 94 95 95 93 93 96 99 100 101 105 109 113 113 112 112 111 109 108 107 106 104 103 103 101 100 100 100 101 101 102 103 105 104 106 108
47 49 53 58 60 63 65 70 76 80 83 85 87 89 92 94 96 96 97 98 101 103 103 103 101 104 111 114 114 114 112 110 109 110 109 109 109 107 108 107 106 107 107 106 106 107 108 107 107
40 43 46 49 55 61 65 67 72 75 80 82 81 83 86 88 92 94 97 99 99 110 104 104 101 98 98 102 109 114 115 115 115 114 114 114 114 113 112 112 111 110 110 110 111 109 107 103 104

GFSSGP_250_spd_063.txt.gz
Wind_Speed
101 110 100 97 94 90 85 82 77 74 71 69 63 61 59 59 55 51 51 50 47 42 41 42 40 39 37 38 38 38 38 38 38 35 32 33 32 32 32 29 29 28 28 27 29 29 29 29 28
100 107 111 104 97 91 85 84 78 77 74 71 67 64 59 59 57 52 51 50 48 44 41 41 38 39 38 38 38 38 38 38 37 36 35 33 32 31 29 30 30 30 30 31 32 31 30 30 30
104 104 110 107 102 95 88 84 84 78 78 74 70 67 61 56 55 53 50 49 49 47 43 42 40 40 41 40 39 39 38 37 36 35 35 33 30 30 29 31 31 31 32 32 33 33 32 32 32
104 105 106 109 103 93 95 89 87 82 80 78 74 68 63 60 58 56 52 51 49 48 46 44 43 42 42 42 42 40 39 38 37 35 31 29 30 31 32 32 32 33 33 34 34 33 33 34 34
103 105 105 106 104 101 103 91 85 85 84 80 77 71 69 64 60 58 55 53 51 46 48 46 44 43 43 42 41 41 41 40 37 35 30 27 28 31 32 33 33 35 35 35 35 34 35 36 35
102 101 104 102 103 105 102 90 94 92 87 83 81 76 73 70 64 59 57 53 52 50 47 47 45 45 45 44 42 42 41 40 37 35 32 31 30 31 33 34 34 36 36 37 35 36 37 38 38
100 102 98 98 109 111 98 99 97 93 92 86 80 79 73 71 70 64 60 57 56 53 49 47 45 46 45 43 42 41 40 39 37 35 35 33 33 34 35 36 37 37 37 37 36 38 38 39 39
100 102 101 104 109 107 106 104 101 97 90 86 85 77 74 73 71 70 62 61 56 54 50 48 46 47 46 45 44 42 39 38 38 36 35 33 34 34 36 38 38 37 38 37 38 39 39 40 41
100 102 102 103 105 107 105 107 104 101 96 92 89 86 84 79 76 72 69 66 61 56 54 52 48 47 46 44 42 43 39 39 39 38 35 34 34 36 37 38 38 39 39 39 39 39 41 42 43
99 102 99 100 104 104 110 110 107 105 101 98 92 89 86 82 79 75 72 68 67 62 58 54 51 50 48 46 43 43 42 41 39 39 36 35 37 38 38 39 39 40 41 41 42 41 43 44 44
98 97 98 103 105 102 109 110 110 106 105 99 94 89 87 84 83 81 77 74 71 65 60 59 55 53 52 49 46 46 45 44 42 41 40 37 35 37 38 39 41 42 43 43 43 43 44 45 47
97 97 102 106 105 102 107 110 112 110 107 103 100 94 91 89 86 82 79 75 75 72 70 64 60 57 55 54 52 49 47 44 44 42 43 42 39 39 41 42 42 43 43 43 43 45 46 48 50
95 95 99 103 103 103 105 108 109 111 108 106 103 99 95 91 88 85 82 79 77 75 72 69 65 60 56 55 54 51 49 46 45 45 44 46 45 44 44 45 46 46 45 45 46 48 50 51 53
92 97 97 97 102 103 105 106 107 107 109 109 107 104 101 96 91 89 85 84 81 77 74 71 67 65 60 57 55 52 52 51 50 48 48 47 50 49 49 48 48 48 48 50 51 53 54 56 57
92 97 100 98 101 103 104 107 103 105 109 112 110 107 104 100 96 92 89 88 84 81 78 75 72 67 65 61 59 57 56 56 54 54 52 51 49 52 53 52 53 54 53 54 55 56 57 58 61
89 99 100 100 103 102 102 102 104 108 109 111 111 109 106 104 101 99 96 91 87 82 81 77 74 70 67 64 62 60 58 59 58 57 57 56 54 53 54 56 57 57 58 58 59 59 61 62 63
91 99 102 102 100 102 99 101 103 106 107 107 109 110 109 107 106 100 98 97 90 86 85 82 79 76 71 68 67 65 62 62 62 61 59 60 61 60 59 58 59 60 61 62 63 63 65 66 67
83 91 95 100 97 99 99 100 97 101 104 105 106 107 109 108 105 104 101 100 99 93 89 86 83 80 75 72 73 71 72 69 65 64 63 63 64 67 66 64 63 64 65 65 66 67 68 70 70
85 89 94 98 94 96 98 98 96 100 100 102 105 104 104 104 105 105 106 104 100 98 95 91 88 84 80 74 75 75 76 76 75 75 72 69 69 70 71 69 68 69 69 70 70 70 72 71 72
83 88 89 95 91 93 95 98 100 96 95 99 102 102 101 102 102 103 107 107 106 101 97 94 90 85 81 79 73 70 74 79 80 79 78 76 75 72 72 73 72 70 72 73 73 73 74 74 74
78 80 84 87 93 94 93 93 94 93 93 96 100 101 102 103 103 102 105 106 106 106 103 98 93 90 86 82 79 75 71 74 76 78 77 78 77 77 75 73 71 72 73 74 73 71 70 72 74
80 83 84 87 91 92 93 90 92 90 92 95 98 98 99 102 101 101 101 101 104 105 104 103 100 96 92 88 86 86 82 75 73 75 77 79 80 81 80 79 76 74 73 71 71 71 71 72 73
77 79 82 83 88 86 89 88 86 87 91 94 96 96 97 99 101 98 98 102 103 103 103 103 103 103 101 98 93 91 89 90 85 78 74 75 81 82 82 81 78 76 73 74 77 77 77 79 82
73 74 76 82 84 83 86 86 87 87 88 92 94 96 97 99 101 98 96 98 101 102 102 103 103 104 104 103 100 98 97 94 90 84 80 77 77 80 83 84 84 83 84 86 86 87 88 88 87
66 69 73 76 76 79 79 82 85 84 88 90 92 95 95 96 98 99 96 94 97 101 103 103 104 105 105 104 104 104 102 98 98 96 92 90 86 85 85 89 89 90 90 92 93 92 91 91 91
63 67 68 69 70 72 76 79 83 86 87 89 90 91 92 94 97 98 97 95 95 97 101 105 106 106 106 107 107 106 104 103 102 103 103 100 96 92 91 92 92 94 95 96 97 96 96 95 96
60 61 62 63 64 68 75 79 82 87 88 87 86 89 92 93 94 97 97 97 96 96 99 101 105 108 109 108 108 107 106 106 105 106 105 106 105 104 101 100 99 98 98 98 99 99 99 100 101
60 60 62 63 65 68 72 76 81 85 86 85 87 89 90 94 95 95 97 97 96 97 98 99 100 104 108 111 111 111 109 108 108 108 109 108 108 108 108 107 105 104 104 104 103 103 104 104 106
54 56 59 61 64 67 70 74 76 80 83 83 86 90 90 92 94 96 97 97 96 97 97 99 99 100 102 104 106 107 108 110 110 110 111 111 112 112 112 111 111 110 110 110 112 112 111 110 110
48 50 54 60 64 67 69 70 73 77 80 82 84 86 88 91 93 95 96 98 98 98 99 100 102 102 103 104 103 103 103 105 107 110 112 115 116 115 115 113 114 115 115 116 113 114 114 113 115

GFSSGP_250_spd_066.txt.gz
Wind_Speed
102 103 109 106 100 90 86 85 87 79 70 66 65 69 66 60 56 51 51 50 46 45 43 42 39 40 40 40 40 38 37 37 37 36 36 34 34 32 32 31 29 30 29 28 29 28 29 30 30
101 103 105 111 107 94 86 90 89 81 76 68 70 70 66 66 60 58 54 50 48 45 45 44 42 40 39 40 37 38 39 37 36 35 36 34 32 32 33 31 29 28 30 30 31 31 32 33 33
102 104 104 108 105 97 89 92 91 87 80 75 73 72 66 64 63 60 59 55 51 48 46 47 44 41 38 38 37 36 37 37 36 36 35 33 33 32 34 31 29 29 31 31 31 32 34 35 34
103 103 102 100 102 101 95 97 96 91 84 79 77 72 67 65 65 64 60 57 55 52 49 48 46 43 38 38 37 38 37 37 38 37 36 34 32 34 32 31 30 31 31 32 33 35 35 36 37
101 102 100 96 99 104 102 105 98 89 88 85 81 73 68 68 66 63 60 59 56 54 50 47 46 44 40 39 39 39 39 39 39 39 38 36 33 31 29 29 30 31 32 33 34 36 36 38 39
101 102 100 95 98 106 111 105 95 90 92 87 81 77 71 71 71 70 64 57 55 52 49 47 45 43 43 42 41 41 40 38 38 39 37 36 34 32 30 30 29 32 34 34 36 37 38 39 40
101 101 96 96 101 107 121 104 95 93 93 90 86 78 74 74 73 69 66 62 54 53 51 50 47 43 44 44 44 43 41 39 38 37 36 34 34 34 33 32 31 33 35 36 38 39 39 40 40
99 100 99 99 102 108 115 108 96 96 95 91 90 80 74 76 77 71 67 63 59 58 55 53 50 46 43 43 44 42 41 40 37 36 36 35 35 35 34 33 33 34 36 39 39 40 40 41 41
99 101 99 98 104 109 105 109 101 100 96 92 90 83 80 79 73 79 74 68 61 62 58 54 49 46 47 45 45 43 41 41 39 37 36 34 37 36 35 34 33 35 37 39 39 40 40 42 42
97 98 94 97 102 106 102 103 113 108 100 97 96 88 86 83 75 77 73 72 68 65 62 58 52 49 49 46 45 43 43 41 38 37 37 37 37 38 37 37 36 37 38 39 40 41 42 43 44
95 95 94 99 105 107 102 105 109 109 105 102 95 90 88 86 84 79 76 74 70 68 67 61 58 51 49 50 49 46 45 44 41 39 39 39 38 39 40 39 37 37 39 40 41 43 45 45 46
92 96 97 101 101 104 101 102 110 112 111 98 98 94 91 89 87 84 81 74 69 70 68 67 63 59 56 55 53 51 49 48 46 43 42 41 40 39 41 42 41 39 39 41 43 44 46 46 47
90 92 96 100 99 100 102 104 109 107 105 106 104 99 95 91 89 86 85 79 75 74 73 70 69 64 60 59 55 53 52 52 51 49 46 45 42 41 40 43 45 45 44 44 45 47 48 49 50
87 94 99 98 99 105 104 106 106 105 104 106 107 104 98 94 90 89 87 83 82 80 79 75 71 69 64 65 63 61 58 56 54 52 50 48 45 44 44 44 45 48 50 51 52 53 54 54 56
89 97 98 100 101 100 99 108 102 102 105 109 110 107 102 99 95 92 92 87 85 84 82 79 76 73 71 69 69 65 63 60 56 53 52 51 49 49 50 48 48 49 50 53 56 57 58 59 60
88 94 95 97 98 105 102 97 105 109 106 106 109 109 106 104 99 96 93 89 87 85 81 80 78 76 74 71 71 68 66 63 61 59 56 53 52 54 53 52 52 54 55 55 56 58 60 61 62
88 89 93 96 100 102 98 102 108 108 100 106 108 110 109 107 104 100 97 94 92 88 86 82 80 79 79 73 72 70 69 66 65 62 57 56 57 58 57 57 56 57 60 61 61 62 64 65 65
76 81 86 90 96 100 100 101 102 105 105 105 105 107 109 109 107 104 103 99 96 93 93 88 84 82 79 78 76 76 73 70 67 64 61 62 61 61 62 64 63 64 65 65 67 67 68 69 70
81 84 84 91 97 104 105 102 103 105 104 104 103 103 104 107 109 109 105 104 100 96 93 92 89 86 84 80 80 77 76 73 70 70 71 73 74 74 72 72 69 65 66 68 70 71 71 72 73
83 85 84 89 99 106 105 102 102 103 104 104 103 103 102 104 107 107 107 107 104 101 99 93 93 92 88 84 83 83 78 76 76 74 73 75 73 73 71 70 71 73 73 70 71 72 73 73 72
81 81 85 91 97 103 96 94 95 98 100 101 103 102 103 104 105 104 106 107 106 104 102 98 99 93 92 92 90 85 83 82 80 76 73 72 73 74 74 75 73 74 75 75 76 78 78 74 75
76 80 80 86 90 97 93 94 95 94 97 98 98 99 101 104 102 100 102 106 107 107 106 104 102 102 98 93 91 91 92 88 85 81 78 74 75 75 72 73 74 75 75 77 79 79 79 77 78
76 80 79 79 89 91 85 84 90 89 90 94 97 96 98 99 102 102 101 105 109 109 109 108 107 106 103 97 84 90 91 90 89 89 87 86 80 79 76 73 72 75 76 78 82 84 83 84 84
69 74 79 85 87 84 81 80 85 89 88 91 94 95 95 96 97 101 100 104 107 105 106 108 107 108 107 105 105 103 101 97 96 94 92 90 89 85 81 78 78 78 79 78 80 80 82 84 85
65 70 74 78 73 74 77 74 81 81 85 89 92 96 95 96 96 97 101 103 103 104 106 107 105 105 107 107 106 106 106 105 102 100 98 96 94 92 91 91 86 81 78 80 82 82 83 84 86
62 67 72 72 70 70 74 75 78 78 85 89 91 93 94 96 94 94 96 100 102 103 103 105 106 105 105 107 106 106 107 107 106 106 106 104 102 100 99 98 95 93 90 88 88 90 91 92 94
59 61 62 66 69 72 75 75 77 80 84 88 87 88 89 92 93 94 94 97 99 102 104 104 101 102 104 106 107 108 107 108 108 108 108 107 106 105 104 105 104 103 103 103 103 102 103 102 102
54 59 61 65 69 71 73 74 77 80 82 83 84 85 87 87 87 91 93 95 97 100 104 102 104 100 100 103 105 106 108 110 110 109 109 109 107 107 107 107 107 108 108 108 109 110 111 109 110
52 55 59 63 65 68 70 72 74 79 80 81 84 83 84 85 86 87 90 93 95 97 102 102 102 103 103 102 102 103 104 107 110 109 109 108 107 108 108 109 109 109 110 111 110 111 111 112 113
55 57 59 61 63 65 66 67 70 75 80 81 81 81 81 83 85 87 88 91 93 96 99 100 102 102 104 104 101 102 104 104 106 107 109 111 109 109 108 108 109 109 110 110 110 111 113 115 114

GFSSGP_250_spd_069.txt.gz
Wind_Speed
98 101 102 108 109 101 92 89 89 84 79 74 68 66 63 60 58 58 56 51 47 45 45 44 40 37 34 34 36 37 37 34 33 33 33 33 32 33 33 33 33 31 30 30 30 28 29 30 31
99 100 103 106 107 101 94 93 88 86 85 78 70 69 64 63 58 56 59 55 51 49 47 45 42 39 37 34 35 37 38 36 35 34 33 32 32 33 31 30 30 31 31 31 30 29 31 31 33
98 100 102 104 105 102 93 94 90 95 88 83 74 73 68 62 60 62 61 55 53 52 50 47 44 41 39 38 36 36 37 38 36 34 32 32 32 32 31 29 31 30 31 30 30 30 31 32 34
96 101 102 99 97 100 96 99 97 98 91 84 80 75 70 64 57 57 63 64 56 53 49 49 46 43 42 40 38 36 36 37 37 34 33 32 33 34 34 32 31 31 30 30 31 31 32 32 35
96 102 102 97 97 99 103 106 102 97 91 88 81 79 74 66 61 58 62 59 56 56 54 51 48 45 42 42 40 37 35 37 36 34 34 34 33 34 33 32 32 30 30 30 31 32 33 34 36
99 102 100 95 96 103 111 112 101 97 94 92 84 78 81 69 68 62 59 60 60 60 56 57 54 49 45 42 42 39 37 36 36 35 35 34 33 33 33 32 32 33 32 31 31 33 34 35 37
98 100 96 98 100 111 116 117 99 98 95 91 90 83 84 73 68 69 63 58 56 57 59 58 56 53 47 44 43 42 39 39 38 36 37 36 32 32 32 32 33 34 34 33 32 32 35 37 39
98 99 99 99 103 110 118 108 109 103 96 91 90 88 84 78 63 64 71 64 64 57 58 56 57 54 48 45 43 42 41 40 40 38 38 36 34 32 31 32 34 35 35 34 33 33 35 38 39
96 100 98 99 104 110 111 107 107 108 97 92 90 93 89 84 73 67 64 66 63 63 60 59 56 54 49 47 45 43 41 41 40 39 38 36 36 34 33 31 34 35 35 34 33 35 37 38 39
93 97 98 101 106 109 107 106 103 106 103 96 95 96 95 87 83 76 73 62 64 65 66 62 59 56 52 50 48 46 44 43 41 40 39 37 37 35 33 33 32 36 37 38 38 37 38 39 40
89 89 97 103 107 108 105 104 104 103 108 102 98 95 94 92 86 81 81 74 63 64 67 65 62 58 54 51 49 46 46 44 43 41 39 39 39 37 35 36 35 34 36 39 39 39 38 40 42
84 91 96 102 106 106 105 104 105 103 104 105 101 96 90 90 89 85 84 76 72 74 69 66 61 59 59 57 52 50 49 46 45 44 44 43 42 42 41 40 39 38 36 37 39 40 41 43 45
81 86 93 100 105 104 106 104 102 106 104 105 103 100 94 89 89 87 84 75 73 65 65 73 68 69 66 62 58 57 53 48 48 47 48 47 45 47 47 45 45 43 40 39 40 42 43 46 49
79 83 91 95 100 102 106 104 102 105 110 108 105 101 98 94 90 89 87 79 72 72 70 61 72 72 69 67 64 61 59 57 55 52 50 48 49 51 52 51 50 47 45 44 44 44 44 46 49
82 83 88 97 100 106 104 105 102 105 110 110 110 105 102 100 95 92 85 78 81 76 69 69 71 68 70 69 67 65 64 63 61 58 55 56 56 55 56 56 54 52 50 49 48 48 47 49 51
81 83 89 93 97 104 104 102 105 106 107 108 106 110 105 102 98 96 93 91 81 78 83 78 74 74 74 71 67 69 67 65 65 62 61 60 60 59 58 57 56 56 55 53 52 53 54 55 56
84 82 86 92 98 104 102 102 103 105 106 107 105 106 113 106 100 95 93 91 91 80 85 84 82 81 81 78 76 75 74 72 68 68 67 65 64 62 60 60 61 61 60 59 57 58 59 62 62
77 83 85 88 93 94 99 104 106 104 107 106 107 107 109 111 107 103 96 90 86 87 82 87 87 84 84 83 82 80 78 74 72 69 68 69 66 65 66 65 60 61 63 64 62 63 68 68 67
78 86 81 85 90 96 100 101 102 103 105 108 108 108 106 108 111 109 105 101 97 93 87 79 78 82 86 84 85 82 79 77 75 72 71 71 70 68 70 71 70 69 69 67 68 69 67 69 69
75 81 82 86 91 95 100 98 101 102 102 105 108 106 106 107 109 110 110 107 103 101 95 87 86 80 80 79 76 76 78 80 79 77 74 72 73 72 72 71 69 70 71 72 72 70 73 71 72
74 78 82 84 88 92 95 98 105 103 100 103 105 106 105 106 106 105 107 109 108 105 102 99 95 90 84 82 78 79 80 80 80 74 75 76 76 74 75 76 76 75 73 72 73 74 75 76 75
70 77 82 79 83 89 95 99 103 99 97 98 101 104 106 105 104 102 106 108 109 107 106 104 103 98 93 89 79 74 78 86 86 83 80 83 82 78 79 79 81 82 80 79 79 79 80 77 75
69 74 79 78 85 90 94 98 100 97 97 96 99 101 103 105 101 103 104 105 107 109 109 109 107 103 101 98 93 80 75 79 76 78 80 85 88 88 89 89 89 87 87 86 85 81 81 80 78
67 71 76 80 81 85 91 95 95 93 91 94 95 97 99 102 103 102 105 103 105 106 108 110 110 109 104 94 99 91 97 87 85 83 84 85 88 92 93 93 91 91 87 86 85 85 86 84 83
65 72 77 79 79 81 84 88 92 89 89 89 91 93 96 98 102 102 103 110 109 106 106 105 105 105 106 108 106 105 100 94 90 95 95 94 90 90 94 96 97 95 95 93 93 92 90 87 86
63 71 76 76 74 72 79 86 87 84 83 82 83 89 91 95 98 102 104 105 106 110 114 107 103 103 103 104 106 108 109 111 111 109 106 106 105 103 102 102 104 102 101 100 100 98 98 97 98
52 58 65 70 70 74 77 80 77 74 73 73 77 83 89 91 94 97 102 103 104 105 108 111 112 104 103 104 105 107 109 110 112 115 116 114 115 115 115 114 114 113 109 107 106 104 105 104 104
52 57 62 65 68 71 73 74 73 69 68 70 75 82 87 89 90 93 96 98 101 103 106 107 107 109 106 103 103 106 107 109 111 112 112 112 113 113 113 113 112 111 111 109 107 107 108 107 107
49 53 58 63 66 67 69 69 70 71 71 73 78 81 81 83 88 88 89 93 98 102 105 106 105 104 106 106 105 103 102 104 106 109 110 112 113 113 113 112 113 112 111 111 109 110 109 109 109
43 49 53 57 60 64 66 67 70 72 73 74 73 72 73 78 83 82 85 89 92 99 103 104 105 105 105 104 105 106 107 109 106 104 103 107 107 108 109 109 111 109 109 108 108 108 107 106 106

GFSSGP_250_spd_072.txt.gz
Wind_Speed
83 84 91 98 106 99 96 92 92 88 85 76 69 68 65 59 54 54 53 52 50 48 50 47 43 41 39 37 34 34 35 35 35 34 35 32 31 29 28 29 30 29 29 29 30 31 30 30 30
80 84 90 97 100 98 95 97 92 89 83 83 76 72 70 62 58 59 55 55 53 51 46 45 41 43 42 40 37 34 34 34 34 35 36 34 33 30 28 27 29 28 28 29 30 31 31 31 31
79 83 91 94 95 96 94 101 97 98 99 89 83 74 71 65 62 60 58 55 54 51 49 49 45 43 44 43 40 36 33 32 32 34 37 34 33 30 29 29 29 30 30 30 29 30 31 31 31
79 82 92 91 90 93 98 104 107 105 98 91 81 79 74 69 63 57 58 58 56 53 54 53 49 47 45 44 43 41 36 34 33 33 35 35 32 31 31 31 29 29 29 29 29 30 30 32 32
81 83 90 88 88 95 103 110 110 103 95 98 86 82 76 68 69 59 59 61 58 57 53 52 53 49 49 47 46 44 40 37 36 34 34 34 32 31 31 31 30 29 29 29 31 32 32 31 31
81 83 86 86 91 100 106 114 103 107 99 100 93 86 74 52 62 63 55 60 61 59 59 57 52 50 50 49 48 44 39 38 38 36 34 34 33 31 31 31 29 29 29 30 31 32 34 32 31
76 83 85 87 96 105 110 116 106 106 103 99 98 92 83 78 48 55 54 49 53 57 56 56 55 55 52 50 49 47 44 40 40 39 37 36 34 32 32 31 30 29 29 30 32 33 33 33 32
73 80 86 91 99 107 113 113 110 107 106 98 98 94 86 82 84 74 65 63 54 59 58 57 56 56 56 55 54 52 52 48 43 42 40 38 37 34 34 32 32 30 29 29 32 32 33 34 33
70 78 84 90 99 108 115 110 114 109 104 98 98 96 94 88 83 75 60 67 60 63 60 55 53 57 57 57 56 54 51 48 45 43 42 40 39 36 35 34 34 33 29 28 30 32 35 36 36
65 74 82 90 100 112 113 110 117 111 104 98 99 102 91 78 84 78 83 69 58 64 63 61 60 56 55 55 52 53 53 48 45 44 41 39 40 38 35 35 34 34 31 31 31 33 35 36 37
60 67 82 93 103 111 112 111 116 115 109 101 97 101 94 88 93 86 82 75 72 51 64 70 66 63 60 56 55 53 54 51 47 46 44 42 41 40 36 36 36 36 36 35 35 34 35 36 38
58 74 82 93 103 109 110 111 114 112 110 110 104 88 93 98 95 89 88 82 78 70 57 55 66 66 63 58 56 55 55 54 52 48 44 44 42 40 40 40 41 41 40 41 41 40 39 38 39
59 73 80 92 101 107 111 112 111 110 109 113 108 95 86 96 93 91 87 82 72 76 66 60 61 62 62 65 63 62 59 56 54 51 46 45 46 44 45 45 45 46 45 47 47 46 45 43 41
59 74 80 91 96 103 108 109 107 108 108 110 112 108 90 83 91 92 86 84 78 79 73 72 61 63 61 63 65 62 60 59 58 57 52 50 48 46 47 48 47 48 51 51 51 51 50 49 47
61 76 80 88 95 100 106 108 105 106 109 109 115 111 105 89 87 92 84 87 84 84 79 73 78 69 73 72 72 66 62 62 61 60 57 56 56 54 55 54 54 55 56 56 56 56 54 52 51
64 74 77 85 92 98 106 106 106 108 110 110 114 115 111 101 87 94 91 79 86 89 88 86 82 78 76 73 61 66 68 66 66 66 63 62 61 60 61 60 58 59 59 60 58 56 57 57 57
66 70 75 83 88 97 105 109 106 106 109 110 110 113 112 111 94 82 82 87 69 69 85 90 82 82 77 68 65 59 68 70 70 69 69 67 64 64 64 64 63 65 64 62 61 60 60 61 62
58 69 75 82 88 94 99 104 102 105 108 111 108 110 112 111 107 98 89 79 85 84 81 78 80 78 85 76 77 71 68 71 71 69 69 66 66 68 69 69 69 67 67 67 65 64 64 66 65
61 70 75 81 86 91 96 104 109 109 110 111 113 107 109 113 113 111 103 90 89 83 80 81 70 76 87 83 77 77 76 74 72 73 76 76 75 74 73 71 69 68 67 68 70 69 66 66 67
61 69 75 81 85 89 96 101 104 105 108 110 112 114 107 109 110 110 109 96 90 88 94 86 87 80 77 78 82 82 81 81 81 81 82 82 80 79 78 74 71 72 71 70 72 72 73 69 68
59 65 69 75 80 83 92 99 103 104 104 108 112 113 116 107 109 113 109 106 102 99 95 98 91 91 87 82 82 78 79 75 74 79 77 75 75 73 69 70 76 73 73 75 76 77 78 79 79
58 67 73 81 81 83 89 95 99 98 102 102 108 111 114 117 108 111 116 112 109 108 108 103 103 100 85 80 82 83 78 78 79 78 77 73 76 76 76 80 82 82 84 84 86 85 84 87 87
59 70 74 81 83 84 87 90 90 94 90 100 103 109 110 115 117 114 112 116 117 111 109 105 101 100 99 98 82 84 85 85 85 82 81 83 72 74 76 72 78 83 86 85 86 86 84 85 83
62 71 74 74 81 83 84 85 88 90 95 96 101 104 108 109 112 111 112 110 112 114 114 110 107 101 101 99 86 91 90 90 89 92 90 86 85 84 83 88 90 89 91 89 89 90 90 91 88
57 65 69 74 80 80 80 82 87 90 89 91 92 99 101 103 106 107 107 109 109 109 111 115 114 113 114 109 107 102 102 97 97 98 99 97 98 100 101 93 94 94 90 90 91 90 91 91 93
55 61 70 72 70 78 78 81 85 87 85 88 92 96 98 99 101 104 107 107 111 111 110 110 112 117 119 117 118 118 112 101 106 101 100 106 98 99 105 107 107 103 101 101 99 97 96 94 96
51 58 64 70 69 71 76 79 82 83 83 85 86 90 93 95 98 99 103 104 106 108 111 112 111 111 113 116 119 120 121 118 113 110 111 106 109 106 103 109 110 108 109 108 108 111 113 110 107
48 55 61 66 66 63 66 71 77 78 83 85 86 84 84 88 93 95 96 101 103 105 109 110 114 115 113 112 112 112 112 114 116 119 119 119 119 119 118 118 116 119 118 119 121 121 121 120 119
46 50 56 61 64 65 62 65 69 74 80 80 77 77 77 78 80 84 91 96 98 103 107 108 111 113 115 118 119 115 113 112 110 112 113 114 114 113 116 117 117 117 118 119 119 118 117 116 114
45 47 51 57 60 63 64 65 66 71 74 71 65 67 70 69 69 74 81 88 94 99 102 107 109 111 114 116 116 117 120 122 122 123 121 116 113 112 111 111 112 112 113 113 113 114 113 112 110

GFSSGP_250_spd_075.txt.gz
Wind_Speed
82 84 86 87 87 81 79 89 93 95 93 87 78 77 73 71 63 59 57 52 54 50 47 46 45 42 41 41 38 35 34 33 34 34 32 32 31 31 31 30 29 27 26 25 25 27 27 28 29
83 82 81 87 84 77 78 84 93 97 97 95 83 79 76 73 65 62 60 57 53 52 49 48 47 46 46 42 39 38 37 36 34 34 35 34 33 32 31 31 29 28 28 27 27 27 27 27 29
78 69 69 77 83 72 77 82 92 100 101 100 89 78 77 72 68 66 65 58 55 53 51 48 47 46 44 45 41 41 41 39 35 33 33 33 33 33 32 31 29 28 28 27 27 27 27 27 27
70 64 67 72 76 65 81 88 98 105 101 97 94 85 76 74 68 67 65 62 58 56 52 51 51 50 46 43 40 39 40 40 38 35 34 33 33 32 31 30 29 29 28 29 26 27 27 28 30
71 65 63 65 70 66 88 98 102 103 100 102 102 88 84 75 69 66 66 64 58 56 55 53 53 51 48 47 45 44 43 42 40 38 37 35 34 34 31 30 28 29 28 28 27 27 28 29 29
71 68 62 63 64 66 90 100 103 99 102 109 107 94 88 83 74 68 65 64 59 55 58 57 54 54 51 52 51 49 45 45 44 40 39 37 36 36 32 30 30 29 28 27 27 28 28 29 30
71 70 60 62 63 73 91 102 101 102 106 105 109 102 94 84 76 70 58 59 59 53 56 59 59 56 56 53 50 50 49 47 46 43 38 39 36 37 36 32 31 31 29 30 29 27 27 28 30
67 65 62 61 64 73 93 104 100 106 108 105 108 104 91 86 79 74 69 59 54 53 48 63 67 62 59 59 57 53 49 49 47 44 44 43 43 41 40 37 34 33 31 31 31 28 27 27 29
68 63 66 58 65 79 95 104 102 105 110 104 105 104 96 92 86 75 75 69 63 58 54 47 55 56 59 57 57 56 53 53 51 50 50 47 45 43 42 39 36 35 33 32 30 29 30 29 29
65 63 58 60 69 86 98 102 103 109 111 107 106 107 101 91 83 73 66 69 57 53 52 53 57 57 56 54 55 56 53 54 54 53 51 48 47 43 40 38 36 36 34 33 31 31 31 31 32
63 57 61 60 69 88 95 101 105 109 111 107 107 98 99 94 82 74 63 56 61 49 56 61 61 63 59 54 55 54 55 56 53 52 49 48 47 44 40 40 39 36 35 36 35 35 36 36 37
58 59 61 66 76 91 98 100 104 107 111 110 107 107 103 101 90 78 66 68 64 67 62 52 48 56 60 59 60 60 56 53 52 50 48 48 48 45 44 43 42 39 37 38 39 39 40 42 44
51 56 57 64 73 87 95 98 103 106 110 112 114 94 101 102 99 91 84 72 73 69 74 72 56 53 53 52 54 59 62 57 54 52 50 49 49 49 46 45 45 44 43 42 41 42 43 46 48
49 51 59 67 77 86 92 95 101 107 111 107 110 105 103 101 102 100 100 98 94 85 80 75 68 60 41 47 45 52 59 60 58 56 55 55 53 53 50 49 47 47 47 46 47 48 49 52 52
51 54 62 68 74 87 92 99 102 107 111 112 101 101 101 99 92 94 95 85 90 87 86 81 81 80 74 62 53 54 54 53 56 59 60 55 55 55 55 56 54 52 55 52 53 53 54 54 55
46 56 60 66 77 89 95 92 99 108 112 112 109 108 101 95 94 92 92 80 82 85 87 88 88 83 81 73 72 59 56 54 52 56 57 58 59 58 58 58 59 59 58 60 60 57 56 58 59
48 49 54 64 74 88 92 95 100 106 112 117 117 108 103 97 95 97 92 87 89 88 80 85 87 87 85 88 83 79 67 50 52 58 59 60 63 64 65 67 64 64 64 65 63 61 61 62 62
37 47 54 62 72 83 90 92 97 102 112 118 113 114 106 100 91 96 101 98 99 99 81 81 80 80 76 70 78 79 65 77 73 73 69 61 59 67 65 66 68 68 67 66 66 66 67 64 62
44 51 53 62 72 81 86 89 96 111 116 118 116 114 110 97 104 92 89 96 101 97 80 85 81 81 81 81 70 76 78 71 72 62 64 69 69 67 68 67 70 72 72 74 73 72 72 70 67
45 52 56 62 73 79 83 86 98 101 113 118 119 119 118 115 105 100 97 96 94 88 72 79 86 90 94 77 88 88 86 79 77 72 73 77 70 70 72 76 77 80 79 78 79 77 72 69 71
43 49 53 61 72 77 81 87 97 100 110 115 117 117 116 121 120 109 102 99 96 96 91 76 85 90 90 89 86 94 92 93 83 74 75 80 79 79 76 79 80 77 79 80 74 75 72 70 77
45 50 56 63 71 80 82 85 91 102 106 116 116 117 116 116 121 124 120 102 102 103 99 96 86 83 91 75 74 72 76 79 77 77 70 75 81 80 80 78 79 79 80 81 82 84 84 81 80
48 54 58 61 66 75 81 82 88 102 104 105 112 114 119 115 118 119 121 125 117 99 101 102 96 94 87 88 73 83 73 75 75 76 74 73 80 82 83 81 83 88 87 90 91 91 90 90 86
48 50 55 63 71 77 80 78 82 89 100 103 109 115 117 120 117 115 118 120 127 123 103 90 94 90 87 93 87 87 88 89 89 88 86 85 81 80 77 77 80 80 81 87 90 91 90 85 83
41 53 60 67 66 69 77 79 84 89 96 99 103 110 115 114 121 116 111 116 122 126 125 116 106 97 92 95 95 95 95 93 94 90 90 92 94 90 91 95 98 96 94 93 91 91 95 97 98
44 56 61 61 57 65 70 77 83 85 88 90 94 100 109 113 114 118 118 114 111 115 122 126 121 120 118 107 99 99 100 94 101 101 103 105 105 103 102 102 101 100 100 98 100 102 100 102 104
43 46 47 54 52 58 66 72 78 84 84 85 87 91 95 106 110 114 116 120 114 112 112 115 120 127 127 122 117 113 106 104 107 113 114 117 112 111 112 109 108 109 107 108 108 108 110 110 111
39 39 43 45 45 52 58 67 75 80 82 84 85 85 88 93 99 107 113 115 118 123 119 115 114 120 122 123 125 123 121 121 120 116 116 111 106 111 114 110 109 109 110 114 115 115 115 114 115
34 40 42 43 46 50 55 60 71 77 77 74 74 78 82 84 88 97 105 111 114 117 118 126 126 121 119 120 125 128 129 130 129 126 127 127 125 124 126 125 127 127 123 122 123 125 125 125 127
35 39 42 44 44 45 50 55 61 63 67 71 70 75 78 80 83 88 91 99 106 111 115 117 120 127 130 128 129 130 126 123 123 126 130 134 136 136 138 139 139 138 137 136 135 131 128 125 122

GFSSGP_250_spd_078.txt.gz
Wind_Speed
82 81 80 80 77 72 61 64 69 75 83 84 90 87 85 74 72 67 59 55 53 53 51 49 47 45 43 40 35 36 36 33 32 30 30 31 32 30 28 28 26 26 27 27 29 29 27 26 24
86 83 79 78 77 72 62 68 70 78 84 87 93 88 90 82 76 70 63 61 58 55 53 51 50 48 45 43 40 37 36 35 33 33 33 32 32 31 31 30 29 28 28 28 28 28 28 26 25
85 84 81 79 77 72 66 70 77 84 88 90 89 91 88 83 82 79 70 64 62 57 55 53 51 51 46 43 42 41 40 37 36 36 36 34 31 29 28 28 29 30 29 28 27 27 26 25 25
82 85 85 78 77 76 71 78 89 88 88 90 92 96 91 84 82 78 74 69 67 62 59 56 53 53 49 46 43 42 41 39 36 34 35 34 33 31 29 29 29 29 28 28 27 26 25 25 24
82 85 85 83 81 81 79 81 95 91 88 90 96 91 91 85 87 79 74 72 70 65 62 58 57 54 52 48 46 43 42 40 37 36 36 36 34 34 34 32 31 29 28 28 27 26 26 26 25
78 83 86 85 84 86 85 83 89 87 85 91 98 96 96 92 89 78 67 72 72 68 64 61 58 56 55 50 49 48 45 43 43 41 41 38 36 34 33 33 31 30 30 29 28 26 27 27 26
79 80 80 82 82 85 80 81 85 85 84 92 93 103 101 93 90 81 70 67 62 65 67 64 61 58 58 54 51 51 48 47 48 46 45 43 39 36 34 33 33 35 34 32 30 29 27 27 27
76 78 76 78 72 72 64 73 83 85 85 96 99 104 102 93 95 84 77 76 58 63 64 65 61 59 60 57 55 52 52 51 47 46 46 46 42 39 39 38 39 36 38 35 32 31 30 29 26
76 75 74 71 71 63 63 69 78 82 86 96 99 106 106 102 98 88 81 78 64 59 58 60 63 58 59 58 58 57 55 54 55 53 50 47 45 43 42 42 41 38 36 36 33 32 31 30 28
75 74 72 74 73 72 69 67 76 84 88 96 99 106 108 107 96 92 81 78 76 59 64 61 58 58 53 54 56 56 56 58 57 56 53 52 49 46 45 43 43 40 36 31 32 33 31 31 31
73 70 72 71 72 72 71 70 75 83 88 95 101 106 107 109 98 93 89 86 84 76 55 51 51 55 47 46 47 52 54 53 55 52 51 50 48 48 47 44 42 41 38 36 36 36 35 34 34
72 67 66 74 73 72 69 72 76 84 87 97 106 107 87 111 97 97 90 84 88 81 75 68 58 64 62 58 49 53 52 51 52 51 50 50 50 47 44 43 40 41 42 40 38 38 38 38 38
70 68 67 73 75 71 73 70 76 81 87 97 111 112 115 111 101 96 96 90 85 77 74 74 65 69 62 55 53 50 48 47 52 53 52 49 46 47 47 46 44 42 46 44 43 42 42 43 42
70 69 68 68 72 72 68 69 78 84 87 95 107 110 102 109 103 100 96 91 87 80 71 67 63 55 46 44 49 47 48 49 50 55 56 57 52 49 49 48 47 48 48 48 47 48 47 46 48
66 62 64 62 66 65 67 72 78 86 90 91 102 107 95 103 99 100 92 91 85 83 72 67 76 73 55 57 61 50 52 57 58 54 50 55 55 52 51 51 55 51 49 51 52 52 53 53 54
55 53 53 54 58 60 64 70 80 85 89 93 103 102 94 87 104 99 94 94 79 76 72 71 66 71 71 66 62 58 52 49 51 45 43 47 50 51 54 52 51 53 53 54 55 57 58 61 60
42 44 44 49 53 60 65 78 85 80 89 96 109 104 105 91 89 87 90 81 74 75 79 75 74 68 67 69 68 65 62 66 66 66 60 50 55 50 50 53 54 53 57 60 59 61 61 62 62
37 36 39 45 48 54 63 76 77 83 88 103 116 107 103 90 91 92 92 83 97 90 82 83 83 75 69 73 76 76 83 79 75 78 76 66 59 54 58 58 60 62 60 57 62 65 65 64 64
31 37 38 45 51 59 70 75 80 83 91 101 116 114 104 96 97 96 91 99 90 95 95 77 72 84 80 75 78 78 86 83 68 65 84 80 76 77 71 69 66 65 65 67 64 65 68 70 69
32 35 40 50 55 63 72 77 84 86 92 101 119 113 111 97 99 99 99 100 109 95 90 95 82 84 80 66 66 74 78 91 92 79 70 68 73 75 79 66 69 73 70 72 71 75 76 75 75
30 33 40 47 51 59 69 75 78 86 89 98 120 118 114 110 100 100 100 100 103 109 112 103 89 80 87 79 66 65 69 78 86 85 74 79 67 72 70 73 77 80 84 85 81 81 79 82 84
32 37 40 46 52 59 66 74 77 81 89 99 117 122 123 121 117 106 107 107 105 99 90 99 100 94 84 80 66 64 69 63 64 66 71 77 80 79 79 81 84 84 85 85 86 89 88 86 85
31 35 39 44 51 61 68 70 71 77 83 99 115 124 122 111 116 116 120 110 109 102 102 91 92 96 95 92 84 76 73 77 70 71 74 79 83 81 86 86 86 92 97 90 92 94 91 94 95
31 31 34 44 51 59 63 66 68 79 85 94 108 124 123 123 117 119 113 108 107 109 112 107 101 94 98 101 96 87 89 83 82 84 88 87 85 84 83 86 87 86 73 89 92 91 96 99 98
29 32 36 43 50 58 60 65 70 79 86 96 105 123 123 125 122 117 117 112 119 115 115 105 106 107 103 102 106 106 102 102 100 100 102 97 87 81 88 90 91 93 95 99 99 102 99 98 94
28 29 34 41 49 58 63 66 69 72 83 87 96 117 127 121 125 120 114 112 112 107 97 107 107 104 102 115 113 98 97 98 98 96 98 98 96 91 92 93 99 102 100 103 107 107 102 100 101
25 29 34 38 41 51 58 61 64 66 79 84 92 105 120 127 120 119 125 122 117 110 109 108 107 101 100 105 112 106 103 104 109 110 108 104 101 105 107 104 96 104 111 109 109 110 106 106 111
20 23 25 28 33 43 50 56 58 63 71 80 84 86 107 118 127 126 119 124 129 122 116 113 115 110 99 104 106 104 104 105 110 109 108 108 102 103 114 110 109 110 108 106 112 117 115 113 119
11 13 16 18 22 25 34 48 54 58 64 71 77 82 89 109 124 127 125 125 126 124 125 127 126 128 121 114 108 106 107 104 104 100 97 96 106 110 111 109 111 118 117 113 115 121 123 123 118
10 10 13 14 15 17 22 27 43 53 56 66 73 78 84 88 99 117 125 124 125 122 122 124 126 133 136 135 131 131 132 129 129 125 123 120 118 113 116 120 123 122 121 122 125 128 130 131 134

GFSSGP_250_spd_081.txt.gz
Wind_Speed
77 80 79 72 68 65 59 56 59 66 72 72 80 80 75 70 68 65 64 60 56 53 51 49 48 47 44 41 38 36 34 30 30 29 27 27 27 26 26 27 26 25 25 25 25 25 27 28 27
61 79 83 83 72 66 62 54 59 70 71 71 79 83 82 77 72 69 69 67 60 57 56 52 49 49 48 45 41 41 37 34 30 30 29 29 29 28 28 27 26 25 25 26 27 27 27 27 26
75 75 78 81 82 73 67 59 60 66 74 74 76 81 81 81 74 72 72 72 65 61 59 57 52 50 49 48 45 42 39 37 36 33 31 29 31 31 28 27 24 23 25 24 26 25 26 25 23
78 80 82 78 79 79 69 70 62 65 75 77 80 79 77 77 77 76 78 78 72 66 64 61 57 52 50 50 47 45 41 40 38 36 33 32 33 30 28 28 28 28 26 25 25 25 25 25 24
79 83 81 76 76 79 75 71 69 67 76 80 75 77 79 77 74 77 72 76 79 78 70 65 61 57 53 52 51 47 46 44 41 37 34 32 32 32 31 30 30 29 26 25 24 26 26 25 26
76 85 83 76 78 75 80 74 73 73 71 76 75 80 79 82 79 76 73 73 78 76 76 71 65 62 56 55 52 48 48 47 44 39 36 35 35 36 35 34 33 31 28 27 28 29 29 26 27
75 81 78 80 81 75 78 83 75 79 75 73 76 77 78 82 79 74 75 64 76 71 69 78 72 66 61 58 55 53 50 48 45 43 40 38 40 41 39 37 36 32 31 32 34 31 31 30 28
78 78 73 78 79 75 83 86 85 78 77 78 75 68 76 84 84 76 67 46 61 79 65 67 72 70 65 61 58 54 53 51 49 46 44 43 42 40 39 39 37 36 36 36 34 34 31 31 30
75 76 68 74 78 79 81 82 89 86 81 78 75 74 85 92 91 84 77 81 71 81 75 68 66 68 70 65 62 57 54 54 53 49 47 46 45 44 44 41 38 40 39 38 37 36 33 31 30
77 69 70 74 75 80 83 82 86 85 85 82 82 86 95 97 98 88 81 76 62 77 78 67 64 67 66 68 65 59 57 57 55 52 52 52 48 50 49 47 47 42 42 41 40 37 34 34 33
74 66 74 70 74 78 84 84 84 83 79 80 79 89 97 100 103 93 91 91 84 75 75 60 67 66 67 63 64 60 57 55 58 57 51 48 51 51 50 46 45 43 42 42 37 35 35 36 35
73 66 71 71 74 76 82 87 85 81 72 77 79 89 95 102 107 100 95 83 106 87 80 56 69 65 58 57 60 61 57 53 53 58 56 53 50 48 45 44 44 45 41 39 38 37 40 39 37
72 70 68 72 73 75 81 81 85 79 79 73 80 86 98 104 105 104 100 108 87 91 82 78 71 73 62 58 56 58 59 52 46 52 48 47 47 44 43 38 38 39 41 41 41 40 40 42 42
72 70 68 70 73 75 79 84 81 78 76 72 81 84 101 111 86 105 100 101 93 92 84 79 74 79 64 59 58 51 52 53 54 53 44 44 46 48 50 48 47 47 46 45 46 44 46 47 44
71 69 71 72 78 75 79 83 73 79 75 72 76 88 100 112 101 90 91 87 90 96 84 90 70 79 70 53 53 55 57 59 57 63 43 48 52 53 51 51 53 53 51 50 49 51 52 50 48
70 73 73 76 76 75 76 71 74 72 68 70 78 91 100 112 107 89 101 100 94 87 90 89 85 80 72 76 75 66 65 60 52 52 52 54 55 50 49 46 41 48 51 52 53 54 51 47 51
72 73 72 70 64 64 52 64 62 64 64 74 86 96 99 109 104 100 102 87 93 89 92 89 86 87 84 76 73 66 60 52 56 56 54 55 55 48 40 36 39 47 49 50 51 52 52 53 52
62 58 55 52 49 40 46 51 56 59 68 73 87 98 100 115 98 83 91 73 84 87 85 88 78 85 76 68 72 67 59 61 60 64 67 60 55 48 52 58 56 54 56 56 56 58 64 59 55
46 44 41 40 40 40 43 45 52 65 72 78 87 101 97 113 99 68 81 79 70 84 86 89 77 72 73 72 71 71 78 76 70 69 69 68 64 62 67 73 77 73 72 75 72 78 75 75 68
38 35 32 34 39 39 40 49 62 71 75 87 98 107 99 106 102 77 73 70 70 71 69 81 80 80 76 74 70 75 74 72 79 77 76 73 73 72 71 77 84 84 86 84 83 81 84 72 74
29 30 30 30 32 38 43 53 68 74 80 93 97 109 100 113 107 86 75 85 86 77 84 79 74 72 80 79 81 75 78 75 78 76 77 76 74 69 71 70 71 78 81 80 80 79 80 82 79
21 23 25 26 32 39 45 55 65 74 82 89 99 106 106 123 102 84 91 93 94 96 99 94 84 85 81 75 78 75 74 74 79 80 79 73 71 73 69 69 75 76 72 73 78 79 81 85 88
15 21 22 25 31 40 48 54 60 67 69 86 96 110 115 127 113 103 101 104 102 103 101 94 94 89 80 75 77 81 83 79 73 77 69 60 68 73 78 77 82 85 88 78 85 86 89 89 95
14 18 20 22 28 37 45 51 59 66 71 80 98 107 121 114 113 104 102 108 104 106 105 98 102 95 94 85 78 81 82 78 73 68 71 78 73 68 62 63 72 80 82 85 86 88 92 91 99
13 15 18 22 28 40 45 53 62 64 65 83 100 114 121 123 118 103 108 112 108 107 102 105 103 104 100 91 86 79 77 76 79 80 76 68 74 72 77 75 78 71 80 81 81 84 87 93 97
17 15 14 17 28 34 39 45 43 52 60 77 97 116 120 122 119 119 113 113 112 109 113 112 108 109 109 99 92 88 84 86 81 86 93 91 87 88 83 84 82 80 80 83 86 92 96 98 101
14 13 15 18 23 27 32 37 40 50 60 78 91 112 121 117 119 126 119 113 116 120 114 114 118 113 110 109 104 100 100 97 95 87 84 90 88 88 90 91 91 91 92 96 105 107 108 101 105
11 7 4 7 13 18 24 31 39 46 53 68 88 104 120 120 119 126 122 117 114 116 119 116 119 121 119 117 112 111 109 104 111 112 105 102 101 101 102 98 96 101 106 109 109 113 114 113 115
21 16 16 14 7 7 12 21 34 44 53 59 78 94 114 128 126 128 126 121 117 118 120 120 119 119 122 124 121 122 112 110 111 114 111 112 115 113 116 114 111 107 111 114 117 116 120 121 126
24 22 19 17 14 14 4 11 23 31 46 57 69 87 100 125 130 129 131 128 128 118 121 125 118 119 114 114 121 118 110 118 117 112 112 111 113 116 121 112 114 114 117 115 124 128 128 125 120

GFSSGP_250_spd_084.txt.gz
Wind_Speed
62 62 67 73 74 76 73 63 58 56 63 70 68 74 76 75 69 67 63 63 60 57 54 53 49 46 43 43 42 40 38 34 31 28 24 23 22 22 22 22 23 23 22 22 22 24 25 25 26
64 68 59 62 74 79 79 75 69 57 60 65 69 68 71 77 75 69 67 68 66 64 58 57 53 49 46 44 44 43 40 37 34 31 26 24 25 25 24 24 23 22 21 19 20 22 23 23 24
70 67 65 63 66 74 83 84 81 69 57 62 67 69 70 71 76 76 73 72 70 66 62 60 56 52 50 47 46 46 44 42 37 35 31 28 27 28 26 25 24 22 23 22 23 22 22 21 22
64 70 62 66 73 74 87 87 84 67 61 53 70 70 68 69 73 77 78 75 72 71 67 64 61 56 54 51 47 46 46 45 41 37 35 34 31 30 29 28 25 24 25 25 24 22 20 22 23
63 64 67 64 63 81 87 89 83 73 66 52 60 68 68 68 72 77 79 78 75 73 68 67 65 61 57 55 51 47 47 47 45 42 38 36 34 31 28 27 27 27 27 27 24 24 25 24 26
63 61 62 61 64 74 86 91 84 85 72 64 56 62 69 69 73 74 77 81 76 75 72 69 68 66 62 59 55 53 50 50 48 45 42 40 38 33 32 32 30 31 31 29 29 27 29 30 27
64 61 55 56 60 72 87 96 92 87 73 67 57 54 68 72 70 75 75 72 68 69 68 71 69 68 66 62 61 58 55 52 51 47 44 42 40 38 34 35 35 34 34 33 31 31 32 32 31
66 61 55 56 63 71 85 92 92 91 85 76 57 56 63 72 73 73 73 61 59 62 73 69 70 72 74 73 69 63 59 56 54 51 47 44 43 42 40 39 39 35 33 33 32 33 34 34 35
66 60 56 60 66 71 83 85 91 93 89 81 58 59 63 67 76 77 75 66 57 47 62 59 64 66 71 73 72 70 63 61 57 54 51 49 46 45 44 43 42 39 40 38 38 35 36 34 35
66 60 59 68 66 70 79 82 89 85 85 80 70 65 62 65 68 80 78 77 86 74 67 63 65 66 68 72 69 70 64 64 62 58 53 51 48 50 48 46 47 43 44 44 44 42 39 37 34
67 62 67 65 68 71 74 78 84 80 81 84 79 71 65 67 66 77 80 80 68 73 79 67 72 72 76 67 69 71 70 66 64 61 58 54 52 49 43 40 43 45 45 46 43 41 38 38 34
67 65 68 68 68 68 70 74 79 76 78 81 79 75 64 65 64 75 79 76 71 69 74 80 80 65 79 67 65 65 64 62 65 64 60 56 55 55 54 56 53 49 48 43 42 40 40 36 35
67 70 68 69 64 65 68 69 78 71 77 79 78 75 71 67 73 80 80 84 84 78 71 69 65 60 67 76 65 62 63 62 59 60 64 59 57 55 57 58 55 50 48 44 39 38 36 37 38
70 71 68 66 61 62 64 70 75 69 75 79 79 78 72 76 85 84 82 86 98 94 73 61 65 63 64 68 69 65 63 61 63 61 61 59 55 54 57 54 50 48 45 41 42 44 42 42 42
71 70 65 60 62 62 67 63 66 77 76 76 77 78 73 78 92 96 95 93 103 100 91 68 67 63 62 68 67 62 63 57 53 53 55 55 55 48 51 49 50 50 48 50 48 48 50 50 49
69 65 62 63 61 63 63 60 69 76 72 75 77 78 76 83 96 107 108 106 102 104 107 92 81 75 67 66 71 65 62 61 59 56 54 51 51 54 51 52 56 54 51 49 48 52 52 52 51
62 62 62 62 64 66 60 71 74 75 75 79 79 80 78 85 99 111 108 104 104 106 103 102 96 88 74 75 68 68 65 66 63 59 54 55 52 58 56 57 58 57 50 50 45 42 47 50 50
62 63 65 68 68 68 66 77 73 74 80 85 84 79 76 85 89 109 103 104 106 104 106 95 101 98 84 80 76 63 69 68 62 56 51 58 63 61 58 63 60 54 55 51 48 48 48 51 50
65 66 67 66 63 63 61 70 68 68 72 78 80 73 78 84 84 104 105 107 106 108 107 105 101 99 91 85 78 72 67 71 71 63 63 64 65 65 61 62 60 56 55 58 57 63 66 69 73
57 53 50 48 47 46 48 47 50 59 64 70 69 68 78 82 99 107 88 90 88 89 98 96 101 100 88 87 74 78 77 78 74 69 70 64 64 64 59 63 67 69 73 68 72 75 76 75 77
44 40 36 35 37 38 39 39 47 54 59 60 60 69 78 94 107 95 85 88 81 87 83 76 77 74 81 87 83 80 83 85 84 82 72 71 70 66 69 66 68 74 79 82 83 83 83 85 87
31 25 23 23 24 25 30 37 44 49 54 58 65 68 87 104 108 96 90 89 89 83 80 79 82 83 79 82 82 71 76 83 83 81 81 77 78 78 81 82 82 82 83 91 89 92 89 90 87
16 12 13 14 18 25 31 38 45 50 55 62 64 76 98 123 109 97 84 89 89 91 88 85 70 80 82 83 91 90 77 69 74 77 82 85 79 81 81 79 78 82 74 68 77 76 76 78 82
7 7 8 11 15 18 25 34 42 50 57 66 83 99 109 129 110 93 87 76 83 80 83 90 90 87 94 81 81 68 70 75 79 79 81 82 86 87 87 86 78 80 83 85 82 82 84 85 84
10 9 9 11 14 18 25 30 36 48 61 73 98 107 100 107 102 110 97 100 87 87 91 84 96 87 87 92 92 90 82 82 81 83 81 76 75 74 73 75 72 73 80 76 84 83 88 92 95
14 14 11 11 13 15 18 23 31 42 52 65 79 92 102 103 119 113 100 91 98 98 90 99 96 98 89 95 95 96 89 84 84 83 83 80 75 75 72 66 69 68 72 71 72 72 71 76 85
18 16 12 9 6 6 14 22 27 32 37 51 81 99 103 106 109 121 96 95 100 100 98 95 106 97 84 94 97 99 98 95 88 85 87 88 82 78 84 83 82 84 87 89 81 78 80 82 79
31 29 23 16 13 8 7 18 20 29 33 50 80 101 106 108 114 120 103 100 104 100 101 97 100 110 100 91 100 100 95 96 93 88 90 94 94 94 92 96 92 85 90 89 90 92 90 91 89
29 34 30 30 23 24 6 9 17 22 35 45 70 101 106 116 124 117 107 111 108 103 101 108 103 104 102 101 102 114 103 106 100 97 92 93 97 98 95 95 95 96 100 100 98 100 98 94 100
32 32 37 31 32 25 23 13 13 27 38 49 69 93 112 113 127 124 117 115 107 108 107 112 114 111 105 104 99 100 109 102 104 99 98 92 87 89 94 96 95 93 93 97 98 96 94 92 104

GFSSGP_250_spd_087.txt.gz
Wind_Speed
48 61 66 70 67 61 64 63 70 62 56 53 55 58 64 70 75 73 65 65 63 58 57 55 49 49 48 45 41 40 38 36 35 32 27 25 21 23 20 19 18 19 18 18 16 16 19 21 22
52 50 58 66 70 71 69 69 72 72 69 56 57 51 55 71 68 71 73 70 68 63 61 60 56 54 51 49 46 43 41 39 37 35 32 28 24 22 22 23 22 21 21 20 17 18 20 21 21
55 54 53 54 57 65 72 75 71 73 74 70 51 51 56 57 68 66 74 73 72 69 66 64 61 57 55 53 51 48 43 41 39 37 34 31 28 26 23 25 25 24 23 20 19 21 20 19 18
59 57 55 53 56 59 71 74 74 75 82 78 62 58 53 50 56 68 72 75 77 74 71 68 65 62 58 56 53 52 47 44 42 41 38 35 32 30 30 27 27 28 26 23 21 22 21 18 21
64 61 57 55 56 61 64 74 77 74 77 79 73 58 46 50 51 63 71 75 81 77 75 71 69 67 63 59 57 55 51 48 46 40 40 37 36 33 32 31 30 27 25 24 25 24 23 26 25
67 64 59 56 59 62 63 66 74 81 76 81 76 65 55 48 56 56 62 72 77 81 76 75 72 69 66 64 61 59 55 52 49 44 41 40 40 38 36 33 32 28 30 27 27 29 27 27 28
70 66 61 60 58 62 64 71 68 81 77 77 79 70 52 54 48 59 59 70 71 77 77 73 68 70 68 66 64 64 60 56 53 50 45 41 44 42 39 36 33 33 30 32 32 33 31 30 30
72 69 62 63 65 64 68 73 69 71 71 78 79 74 63 54 49 49 57 63 72 80 76 75 71 68 69 70 67 66 65 62 57 54 50 48 46 44 42 39 37 36 36 36 36 32 30 29 31
74 71 67 70 70 70 73 68 67 71 69 75 81 79 75 49 55 54 58 61 69 80 80 75 64 64 69 69 69 67 66 66 62 59 56 53 51 47 44 44 41 40 39 38 39 37 38 38 38
78 76 73 75 75 73 72 70 69 69 70 73 79 78 76 49 65 56 57 61 68 78 79 76 72 59 61 65 69 72 71 69 65 63 60 56 55 52 51 47 47 45 44 46 42 40 38 40 41
82 80 80 78 77 74 71 70 70 66 66 71 77 78 76 64 66 58 58 60 64 73 77 76 79 69 66 68 69 72 73 73 69 68 67 64 61 58 53 50 49 47 43 39 40 39 42 42 42
83 81 80 78 74 70 70 71 70 64 67 73 76 74 76 70 62 55 60 65 64 73 83 72 64 66 69 70 73 72 71 72 68 63 68 68 64 59 57 53 52 48 47 49 49 47 50 46 40
81 82 79 77 72 71 70 71 68 61 69 73 76 74 76 74 64 61 63 64 65 70 80 74 75 71 70 78 66 72 72 66 64 65 69 67 65 59 56 50 48 52 53 55 54 56 54 53 44
78 75 76 73 73 70 70 70 69 60 72 75 75 73 75 76 70 59 66 64 66 75 80 69 70 69 68 72 70 64 66 69 68 67 63 63 57 57 54 55 54 57 58 56 55 56 53 45 43
73 72 73 74 73 73 72 64 62 70 76 75 73 74 73 75 70 64 68 65 69 79 84 82 84 77 77 81 73 67 68 72 70 66 64 64 64 61 58 56 56 58 55 54 53 51 53 47 46
70 68 70 69 71 68 69 58 62 74 76 73 72 73 74 78 75 72 69 70 75 82 93 95 90 86 84 78 74 69 65 61 66 63 66 65 63 63 60 54 54 54 47 45 46 47 50 51 52
65 66 64 67 69 67 66 54 72 74 72 74 72 73 78 78 78 78 73 72 75 82 97 97 104 92 86 79 72 66 62 60 65 67 67 68 59 53 54 51 52 50 46 50 52 51 54 53 53
61 62 65 65 67 63 58 58 72 70 71 74 72 74 77 77 80 79 76 79 82 84 95 98 91 82 79 78 76 73 63 61 66 66 63 61 62 58 55 54 55 52 49 52 56 57 57 57 56
60 61 60 59 60 60 60 64 69 68 70 75 72 75 77 78 80 81 80 83 77 87 96 98 83 82 84 78 70 70 58 63 64 63 62 61 60 60 55 57 57 59 58 55 58 60 62 63 62
54 57 59 61 62 63 63 68 67 67 71 74 73 78 78 78 81 85 80 86 91 98 96 95 97 85 76 78 70 70 64 61 62 62 64 65 62 63 62 59 61 62 64 61 59 60 63 65 65
54 56 59 60 60 59 57 59 57 58 65 72 76 77 77 76 82 82 87 92 99 105 101 103 98 99 78 76 73 73 66 73 64 68 68 68 68 71 66 66 60 66 61 58 57 61 64 69 74
45 43 42 41 43 44 44 45 48 53 54 64 68 72 72 74 80 80 80 87 94 101 100 99 102 88 87 74 70 72 67 76 70 69 69 70 72 75 71 78 75 68 66 64 60 65 66 75 77
30 29 28 28 29 31 32 33 39 46 50 54 57 62 61 65 71 75 80 88 95 105 106 99 103 100 98 89 78 80 74 77 82 84 82 74 79 79 78 78 74 68 69 70 68 71 73 70 85
21 20 18 17 16 18 20 27 36 44 49 47 49 51 54 68 73 73 82 107 111 109 105 99 92 98 106 96 91 87 81 81 87 86 84 83 88 88 87 84 82 80 81 84 80 81 81 84 79
13 13 13 14 16 17 20 25 32 35 39 42 42 48 58 65 72 89 90 116 105 103 102 95 104 84 79 102 96 90 91 89 95 92 88 87 96 97 98 90 86 86 83 83 81 80 81 83 85
11 11 10 9 9 10 16 22 27 32 37 40 49 55 61 72 82 86 84 93 98 102 97 101 95 95 85 85 84 84 91 87 91 91 95 92 92 84 84 83 85 87 84 83 84 90 89 87 88
15 16 18 17 16 13 14 16 21 27 36 46 54 63 75 85 102 90 83 74 88 95 99 92 87 89 85 87 86 92 87 93 93 92 93 90 86 91 92 86 80 81 86 86 86 89 92 91 86
20 23 23 25 22 17 16 15 19 25 35 47 65 78 88 96 110 87 85 85 92 99 97 97 86 90 96 93 94 95 94 98 100 100 93 91 83 85 86 86 92 88 89 88 87 92 94 91 91
22 23 28 27 25 26 21 18 17 26 38 51 67 77 92 99 105 86 84 84 86 105 100 89 91 92 99 101 102 100 102 95 96 98 94 91 96 89 87 90 89 90 92 91 89 91 94 92 89
26 26 26 26 28 26 26 20 18 22 39 45 65 81 89 103 85 85 88 87 90 96 103 97 94 96 97 98 98 95 103 95 93 96 101 99 95 101 105 102 99 92 94 96 98 98 101 97 95

GFSSGP_250_spd_090.txt.gz
Wind_Speed
42 40 36 35 36 34 40 49 57 61 60 53 44 49 44 53 58 63 65 65 59 65 62 60 54 51 48 45 43 42 38 36 34 30 29 27 22 20 20 21 18 16 16 16 16 15 13 16 16
49 49 45 41 33 33 37 47 56 60 62 63 59 52 46 41 44 55 62 66 63 70 69 64 60 56 54 49 46 45 43 39 35 33 31 30 27 24 22 21 21 20 19 20 18 16 16 16 16
52 51 51 44 38 36 43 49 52 57 60 60 65 56 48 50 44 38 55 61 60 72 70 68 65 61 59 55 50 48 46 44 40 36 34 33 30 27 24 23 22 22 22 22 20 18 17 18 17
59 56 52 49 43 45 48 53 52 55 58 57 66 64 58 46 43 45 43 53 60 69 74 72 69 65 62 61 56 52 49 46 44 41 38 34 34 31 29 26 27 27 23 24 24 21 20 20 19
62 61 56 52 48 51 54 57 58 55 56 60 64 70 59 56 44 44 48 45 50 64 72 75 74 69 66 62 62 57 53 51 49 46 42 38 34 35 34 30 28 27 26 25 23 24 23 23 24
67 66 64 57 59 56 55 56 62 58 57 60 65 66 65 65 60 51 43 47 46 53 71 73 72 71 69 67 65 61 57 54 52 50 47 42 40 35 36 35 32 30 29 27 26 27 28 26 28
73 71 67 64 61 61 61 61 58 63 63 60 63 64 66 66 67 61 38 45 44 48 60 68 70 72 66 66 67 67 63 59 56 54 52 46 44 41 37 38 37 34 32 30 31 28 29 30 30
83 74 69 65 66 63 66 64 65 64 64 64 62 63 64 62 61 62 56 51 47 45 51 63 65 73 76 70 66 68 69 64 61 58 57 53 49 48 42 40 39 39 36 33 34 35 35 34 32
90 85 76 77 73 72 72 70 67 68 61 67 66 61 64 63 56 60 53 42 47 49 52 59 72 74 71 72 73 70 66 68 65 63 61 58 54 51 47 45 44 40 40 38 37 38 36 38 38
92 89 84 83 80 76 75 72 69 68 66 69 72 66 66 64 59 65 64 54 50 57 57 60 73 77 75 73 70 75 74 69 67 66 63 61 58 56 53 51 48 46 43 41 42 41 39 39 44
96 92 92 87 85 82 78 74 75 71 71 74 74 70 70 62 62 64 67 65 61 55 48 59 62 68 78 78 71 73 71 71 70 68 66 62 60 59 59 54 51 49 47 46 46 44 41 42 43
95 94 91 90 88 87 82 79 77 75 77 76 76 72 70 67 60 65 69 66 54 54 54 56 63 73 81 69 65 72 71 69 70 69 71 66 61 62 62 56 58 53 54 52 50 48 45 48 45
93 91 91 90 88 88 86 83 83 78 84 80 77 74 71 68 65 70 70 65 64 56 50 54 64 77 84 73 55 63 69 68 71 70 70 66 65 64 61 61 58 62 57 57 50 53 54 49 53
89 89 89 90 90 88 87 85 83 82 86 77 77 75 71 70 67 71 70 70 64 60 53 57 65 77 81 85 80 68 65 71 71 71 67 67 68 64 62 61 60 61 63 52 52 48 49 54 55
84 83 83 89 90 90 92 86 80 83 84 77 76 75 73 72 68 70 75 73 66 60 52 56 67 72 78 80 66 71 65 67 65 72 69 67 67 62 61 58 56 56 52 49 58 57 55 56 56
75 76 77 85 89 87 84 77 74 76 81 78 76 77 78 71 70 71 75 76 69 65 56 58 68 77 77 76 92 88 81 79 74 71 69 69 67 63 58 60 62 58 60 62 62 58 56 57 51
71 73 73 78 76 76 71 63 66 69 77 78 75 77 80 77 72 71 74 75 74 67 57 61 68 79 81 88 85 77 79 79 75 68 65 64 63 61 62 61 62 61 63 61 56 53 57 54 49
66 67 68 67 68 64 64 57 61 73 78 77 79 77 78 76 69 70 71 75 75 64 59 63 72 80 85 89 82 83 80 84 83 67 65 61 60 61 63 61 62 61 57 57 55 55 57 56 52
61 60 57 56 60 56 60 59 64 68 71 69 75 76 76 73 66 70 72 78 78 65 63 67 73 83 90 85 86 86 85 83 73 69 68 59 58 59 59 58 62 61 61 57 53 54 57 57 57
51 51 52 54 56 58 61 62 64 65 67 70 73 75 73 68 70 75 75 79 80 73 70 73 74 81 86 86 79 79 82 85 80 67 61 60 61 60 59 59 60 62 64 67 63 58 60 62 59
46 49 51 54 56 58 59 61 62 65 68 71 73 76 73 71 72 76 75 80 79 76 73 74 79 85 88 91 87 87 86 84 84 73 69 66 61 60 59 61 59 58 67 67 65 64 61 70 65
47 50 54 57 59 61 61 63 63 66 69 72 73 74 72 69 75 76 76 82 80 78 77 78 81 84 89 93 91 86 74 76 85 77 78 74 68 66 65 63 65 66 65 63 63 62 61 67 64
44 47 48 49 50 51 50 51 53 56 61 67 73 76 77 75 76 74 79 80 78 78 79 81 87 93 93 90 92 90 86 92 85 82 73 75 72 67 72 70 72 68 67 66 72 72 65 65 62
33 32 33 33 34 36 37 38 39 42 45 52 61 69 72 71 73 78 78 79 78 78 81 82 90 87 88 83 89 91 95 91 84 80 79 78 76 66 68 68 69 72 71 74 73 76 75 79 76
22 23 21 22 21 24 25 25 27 32 35 42 48 55 59 57 60 69 71 73 72 77 84 88 93 89 97 94 83 84 88 90 80 81 84 85 81 77 77 78 79 79 78 76 78 80 81 82 78
10 12 13 14 14 16 15 16 17 22 28 33 38 41 44 45 50 56 61 66 76 78 86 87 90 88 96 98 90 88 81 82 82 86 87 93 94 87 88 85 81 86 82 80 80 85 85 83 86
10 10 9 8 9 9 10 11 13 16 21 23 28 34 39 41 46 49 55 66 72 85 87 87 87 89 96 96 101 103 98 91 90 87 85 93 93 93 89 96 91 93 97 93 86 87 88 92 89
6 9 11 12 11 12 12 12 13 17 20 24 27 34 40 48 52 57 61 68 78 80 85 82 89 102 111 101 103 103 102 102 96 96 98 98 99 96 96 96 98 96 100 92 90 85 90 86 86
11 14 14 16 17 18 18 17 18 19 24 28 34 38 46 53 59 68 75 70 67 72 85 71 90 102 114 113 102 112 100 89 90 89 95 106 104 102 101 93 101 95 91 89 89 88 85 91 92
18 13 15 19 21 21 18 18 18 22 27 32 38 43 48 56 65 73 82 77 58 79 85 71 76 83 99 103 102 90 93 101 93 91 90 93 92 93 98 100 97 98 97 97 96 97 96 90 90

GFSSGP_250_spd_093.txt.gz
Wind_Speed
46 44 39 37 33 16 18 28 39 42 37 45 40 40 48 37 41 42 48 56 61 63 66 59 56 51 47 45 42 39 38 37 32 31 28 26 24 22 21 20 20 21 19 19 17 16 15 13 15
54 49 47 43 37 29 28 38 40 45 42 39 36 46 47 45 42 28 37 48 55 64 68 66 62 58 55 52 49 44 41 40 38 33 31 30 27 26 24 23 21 22 23 22 19 18 17 15 16
57 55 50 49 43 37 38 46 46 42 42 42 42 44 41 36 44 41 28 39 53 59 71 71 67 63 61 59 54 51 46 44 42 39 35 32 30 29 26 24 23 23 22 23 21 21 21 20 19
62 59 54 50 47 48 46 51 50 47 46 43 42 44 43 37 37 44 40 40 46 54 64 71 71 68 64 62 60 56 52 49 46 43 40 36 33 33 31 29 26 25 24 26 24 22 22 22 23
68 65 61 54 52 55 53 52 53 50 51 49 47 48 45 40 42 44 39 42 43 45 49 62 73 71 69 69 65 61 57 55 51 47 44 40 37 36 33 32 31 30 27 26 26 24 23 24 26
74 72 65 60 59 61 59 59 58 55 54 52 50 53 53 49 46 48 43 44 44 43 48 55 63 70 72 70 70 67 63 60 58 53 48 45 42 41 38 35 33 34 31 29 28 27 26 26 29
78 76 72 68 64 63 63 66 64 62 57 57 54 54 58 52 49 49 47 48 48 46 45 46 59 63 69 69 70 70 67 64 62 59 55 49 46 46 43 40 38 35 34 33 32 32 30 31 29
79 77 74 73 72 70 71 72 66 66 63 60 57 57 54 52 51 49 52 51 39 51 48 44 55 67 68 70 71 73 72 69 65 64 61 54 49 50 47 44 41 39 36 34 35 35 35 35 34
83 80 78 79 76 75 78 72 73 68 66 65 63 57 55 51 53 53 55 55 45 47 44 43 51 62 62 67 71 67 70 73 71 67 65 59 54 52 51 49 48 46 43 39 36 37 37 39 39
90 87 88 87 86 82 81 79 79 74 72 71 70 65 59 59 55 52 59 58 54 55 51 48 53 53 55 60 68 70 67 71 68 69 68 66 61 56 54 53 52 51 47 44 42 39 40 40 39
96 95 96 93 93 91 86 84 82 79 76 78 75 73 67 63 58 53 58 64 61 62 64 55 50 60 61 60 66 69 74 71 74 68 66 68 65 59 59 57 56 54 52 49 48 47 45 44 45
103 101 100 98 96 96 92 89 88 86 82 83 78 78 71 65 64 58 58 66 68 66 63 60 51 37 50 61 64 69 66 69 70 72 70 66 62 64 62 62 60 58 57 54 52 50 49 51 50
108 107 103 99 99 98 98 95 92 92 90 89 88 83 80 74 73 66 64 66 70 70 67 63 56 52 47 61 65 72 69 68 75 72 71 73 69 66 65 68 62 61 60 57 54 53 54 55 55
106 106 104 101 99 101 100 100 96 96 96 94 93 87 81 81 78 71 67 67 73 74 72 60 56 54 56 57 61 63 66 64 69 72 75 71 70 71 69 69 66 61 59 57 56 55 56 62 59
98 98 97 99 99 97 96 92 96 98 99 96 96 93 86 84 83 75 68 70 78 75 75 64 63 59 56 57 60 58 66 58 66 76 81 76 73 75 70 67 66 67 61 57 55 55 55 53 53
87 87 88 92 90 90 88 87 96 100 96 96 94 93 89 86 84 82 73 74 82 77 75 70 67 67 57 53 59 62 64 65 57 64 68 69 68 67 67 70 70 69 62 59 58 58 59 48 55
71 76 79 87 86 88 85 84 88 89 89 90 91 89 87 86 84 81 78 74 82 81 77 72 73 72 64 54 60 68 76 72 75 74 72 66 64 67 68 69 67 68 65 66 64 59 60 63 60
70 74 79 81 80 79 76 74 75 79 80 80 86 87 81 82 79 77 78 76 81 82 77 74 73 73 69 62 64 79 84 87 87 81 69 74 75 67 64 63 65 64 64 64 63 59 58 59 59
64 67 69 68 67 64 65 69 67 66 65 69 73 77 78 70 75 72 74 77 79 82 79 76 76 74 72 63 65 74 86 89 84 85 71 79 71 64 59 62 62 62 65 66 62 60 59 58 59
57 57 60 61 58 57 57 54 54 55 55 58 61 67 69 65 67 70 75 80 81 83 81 76 76 74 69 64 64 73 85 89 98 95 85 81 79 74 59 61 63 58 59 61 57 57 60 61 62
48 48 49 51 51 49 50 50 50 51 52 55 58 63 67 69 67 73 79 74 81 83 81 79 77 76 71 63 61 73 80 83 91 87 91 86 83 73 65 62 64 64 58 56 60 64 63 66 66
38 38 41 43 45 46 47 48 50 51 52 57 61 64 70 71 70 74 72 74 81 81 78 77 75 74 70 64 65 72 85 93 81 81 84 89 96 78 67 63 66 61 57 59 59 63 69 72 69
34 36 40 43 46 47 48 51 50 51 53 56 61 65 67 69 70 70 68 69 75 77 78 76 78 76 75 68 66 71 83 85 82 79 87 90 94 91 78 73 64 63 62 63 61 71 69 71 70
33 35 36 38 40 43 43 45 47 49 51 55 60 64 67 70 69 66 65 68 73 76 76 75 74 78 75 71 69 75 81 88 83 79 93 94 90 83 77 77 79 70 67 64 66 68 70 73 76
21 24 25 24 25 26 28 30 31 35 39 44 50 58 65 68 66 66 66 67 71 72 72 70 74 79 78 74 67 74 82 88 94 95 88 81 81 85 82 82 84 80 76 76 78 76 78 77 76
14 16 17 17 17 18 19 18 20 23 26 31 38 44 49 59 65 66 69 70 70 70 71 67 75 74 80 72 71 76 84 87 87 81 85 87 88 85 88 82 92 83 82 88 85 87 84 84 80
10 11 12 10 9 11 10 11 13 14 16 20 24 30 36 41 46 51 55 62 67 71 71 70 73 77 76 75 77 77 81 81 83 91 90 96 95 94 92 83 90 89 90 89 95 85 86 82 82
4 7 6 6 3 6 7 9 11 12 15 15 21 25 28 32 33 37 42 45 53 59 61 66 68 76 76 78 81 82 84 87 95 100 99 98 107 101 97 85 87 92 96 100 96 92 92 92 89
5 4 3 1 2 2 4 5 3 7 16 17 21 23 26 29 34 37 36 43 46 49 55 61 69 71 77 79 84 87 90 91 87 93 91 91 94 99 96 96 92 92 94 99 102 98 96 94 99
15 19 14 10 8 9 6 6 8 9 10 16 20 22 27 33 35 39 35 32 46 52 54 61 67 71 73 84 84 95 93 103 94 92 99 100 102 100 92 95 101 98 97 93 103 107 109 103 100

GFSSGP_250_spd_096.txt.gz
Wind_Speed
45 41 40 40 37 29 27 30 38 43 48 34 39 40 45 48 50 50 56 63 67 62 63 59 54 53 51 49 43 41 40 38 36 33 32 30 27 25 23 21 21 19 20 19 20 21 20 18 17
51 50 48 47 41 34 34 42 46 44 39 42 41 28 48 36 48 38 49 46 57 62 62 62 60 56 57 56 53 46 44 43 40 37 33 31 29 28 25 23 21 19 20 20 21 22 21 20 20
56 56 54 51 48 45 47 51 53 48 45 39 39 35 47 30 45 39 46 40 42 50 58 59 63 63 60 61 59 54 50 47 45 42 39 36 32 31 29 27 26 24 23 21 20 21 22 20 21
65 62 60 54 52 54 55 58 57 53 51 47 40 36 31 36 55 35 46 41 41 43 50 55 59 62 62 63 64 59 56 54 51 47 43 40 38 36 33 32 28 26 26 23 23 24 25 26 22
73 70 66 60 61 59 60 63 61 58 56 54 48 44 38 37 33 33 47 43 41 46 41 52 57 62 64 64 66 66 62 60 58 54 50 46 42 40 38 35 33 31 30 29 27 25 24 25 27
79 80 74 69 68 68 66 68 65 62 60 60 53 47 43 43 39 38 42 38 39 48 42 52 58 63 63 63 66 70 68 64 62 59 56 52 47 44 43 40 37 33 31 32 32 29 27 26 26
85 81 82 78 77 73 75 74 69 65 63 65 59 55 53 50 46 41 40 39 40 43 38 49 53 49 54 64 67 69 71 69 66 63 60 59 54 48 47 44 42 39 36 34 33 34 32 31 30
92 89 87 82 83 83 83 78 73 68 67 67 63 58 53 50 49 48 47 43 37 36 32 45 50 48 60 58 65 69 72 73 71 69 66 64 60 54 53 51 48 45 42 39 36 35 36 35 34
96 94 89 87 87 85 90 82 81 75 74 74 68 60 58 56 57 52 51 49 52 48 43 47 47 43 56 60 54 65 70 72 73 70 69 69 64 61 59 57 52 48 47 44 41 38 37 37 35
93 95 98 91 91 88 91 87 87 84 78 77 72 62 62 59 61 57 55 53 54 55 49 49 52 56 62 57 64 68 68 70 72 71 70 72 68 66 64 62 58 54 51 49 46 44 43 42 39
95 97 97 96 95 90 89 88 87 86 83 85 81 74 67 62 62 64 60 59 61 57 57 60 57 56 55 51 59 65 66 67 71 71 70 71 70 69 66 66 64 61 56 52 48 48 46 45 45
95 98 101 103 100 98 94 91 91 88 85 88 87 84 74 73 69 68 69 64 67 65 63 62 63 61 57 51 48 54 60 70 69 68 71 69 71 72 71 68 67 66 62 57 54 53 52 50 50
104 103 104 108 107 103 103 98 96 91 93 94 91 93 89 80 74 74 72 70 71 71 70 67 66 63 57 58 56 47 61 65 67 68 72 68 66 69 73 72 70 69 66 63 59 58 56 54 54
98 103 107 111 113 110 106 99 97 96 100 99 99 97 96 89 84 79 77 74 72 74 75 73 70 66 64 65 61 57 57 63 63 67 70 71 70 67 71 72 73 70 69 68 63 61 61 59 56
89 94 98 105 106 108 108 108 105 104 106 105 104 100 98 98 93 85 83 81 77 76 76 77 74 72 68 66 64 61 58 56 61 67 71 69 66 69 69 74 69 70 70 67 64 64 62 57 57
86 89 89 92 94 93 98 104 108 108 106 105 104 105 101 101 101 94 91 88 83 85 82 78 78 75 72 71 66 63 63 62 62 58 67 68 66 65 69 73 70 74 74 69 69 66 64 63 61
89 80 78 84 87 82 84 94 100 99 100 100 102 103 105 103 101 101 97 92 91 89 86 83 81 78 75 75 72 71 65 60 61 60 64 65 65 67 71 75 79 77 75 71 73 70 69 70 69
72 75 80 77 74 70 70 75 86 82 84 88 89 90 93 99 98 100 101 94 94 92 92 87 84 81 80 79 78 74 70 62 61 67 69 67 70 75 70 74 75 73 70 70 69 71 70 69 70
69 70 67 65 61 62 59 66 69 72 71 75 76 79 81 79 87 91 92 92 92 94 95 91 87 84 82 82 81 73 74 64 59 65 72 77 69 65 64 66 65 68 68 71 68 68 69 68 68
60 59 55 55 55 53 56 58 62 61 64 65 66 65 71 73 77 81 85 89 92 93 94 91 89 85 81 84 84 75 77 67 61 65 72 66 72 61 72 64 59 60 59 60 62 62 64 68 67
53 48 45 45 47 48 45 45 46 46 49 51 55 56 61 68 69 71 79 86 91 91 90 89 87 84 83 86 82 76 75 71 64 59 75 78 78 83 74 71 66 62 60 58 56 58 60 65 62
40 38 39 40 40 40 38 39 38 41 44 48 52 54 58 63 68 67 71 78 84 86 87 90 87 84 86 84 79 78 75 71 65 62 80 88 90 88 84 73 79 62 62 65 59 57 61 61 62
30 30 30 31 33 34 33 36 35 39 41 44 49 53 58 62 65 67 66 68 71 73 81 87 84 84 83 79 81 78 76 71 67 61 73 92 94 92 89 84 72 74 72 73 73 78 67 66 67
26 27 28 31 33 34 33 36 35 37 39 42 45 50 54 59 63 62 61 63 66 68 72 76 79 79 80 78 76 76 75 74 64 62 68 74 90 98 90 88 87 85 78 75 76 69 67 66 68
19 20 20 21 22 25 26 27 28 30 34 39 44 49 52 55 58 58 59 59 60 65 68 70 71 70 74 76 75 74 73 71 66 63 67 70 78 85 92 95 89 87 86 88 80 84 76 71 71
8 10 12 15 16 17 16 17 18 20 23 27 32 40 49 57 59 58 56 54 54 58 61 64 67 66 70 73 73 72 71 70 70 63 64 71 76 82 81 88 93 69 72 85 76 72 76 82 85
9 9 11 11 13 14 14 14 14 14 15 17 21 28 35 44 53 58 56 53 50 54 58 61 61 65 67 66 68 71 69 71 69 65 68 69 74 76 83 83 83 79 79 79 77 79 84 86 83
9 9 9 10 11 10 10 11 8 10 10 12 15 21 27 32 40 45 47 51 54 55 55 52 54 56 59 61 69 71 69 72 70 68 70 75 83 86 92 86 86 93 93 93 91 91 92 94 89
10 11 14 13 12 9 10 7 8 7 2 6 11 13 19 23 27 31 34 39 47 53 53 52 53 54 55 58 65 66 67 66 70 71 75 80 89 93 88 92 88 95 90 97 95 97 98 97 97
17 18 18 18 17 20 24 24 21 14 8 5 6 6 13 19 23 24 26 35 42 44 48 52 56 58 60 65 66 64 55 62 61 68 76 82 89 96 97 102 102 92 91 94 92 98 102 98 94

GFSSGP_250_spd_099.txt.gz
Wind_Speed
44 43 41 40 38 38 38 38 40 46 47 49 45 49 49 53 62 66 66 66 64 60 59 59 56 53 50 46 46 43 44 41 39 36 34 34 33 32 28 28 26 24 21 21 19 19 20 21 21
49 48 47 45 40 38 42 45 48 44 43 39 46 30 43 38 49 53 58 63 65 63 63 64 63 59 57 54 53 50 48 46 44 42 39 36 36 35 32 28 27 24 24 21 20 20 21 23 23
58 54 52 50 45 48 50 53 49 46 45 44 39 47 33 42 39 51 47 50 55 63 65 68 67 63 58 58 58 54 52 52 47 45 44 40 38 37 36 32 29 27 26 25 24 23 23 22 22
65 61 58 55 54 56 58 58 54 51 49 46 44 41 43 47 38 51 41 47 45 49 54 58 61 66 68 65 63 59 54 55 57 51 47 47 43 40 38 35 33 31 31 29 26 27 26 26 25
72 70 66 64 62 62 62 62 59 58 57 54 50 48 41 40 46 46 43 50 43 48 49 48 51 55 63 67 67 66 64 60 60 59 54 50 47 45 45 42 38 36 35 32 31 30 28 28 27
78 77 76 75 72 68 70 69 66 64 61 61 55 54 49 46 44 40 47 45 45 48 47 50 50 50 54 61 66 68 68 65 63 63 61 57 53 50 48 48 43 42 39 37 34 33 33 31 31
84 83 79 81 80 77 76 76 72 70 70 64 61 60 56 52 51 49 45 41 40 35 39 52 46 46 43 52 61 67 67 68 66 65 66 62 61 57 55 51 49 45 45 40 37 35 34 36 35
89 86 85 84 85 84 82 83 79 76 75 76 69 64 62 59 57 56 52 49 42 38 43 38 38 51 41 41 55 60 66 65 66 66 68 68 63 62 61 57 55 51 49 46 42 40 38 38 38
91 89 91 90 87 90 90 89 84 80 81 82 78 73 69 64 62 63 60 58 51 46 39 40 44 53 43 41 53 51 59 65 66 67 68 71 69 66 63 62 61 59 53 50 48 45 43 42 41
91 90 93 96 94 92 96 94 91 87 86 88 83 82 77 71 67 68 64 59 56 55 54 50 43 51 53 45 50 51 55 60 64 69 68 69 71 71 68 67 65 64 60 57 54 50 47 47 45
94 95 93 94 93 97 100 99 97 93 92 95 90 88 85 79 74 73 71 67 62 61 59 57 55 54 56 53 52 54 53 60 67 67 69 70 70 71 72 69 69 68 67 63 60 56 51 50 49
98 98 96 96 96 94 95 99 100 99 97 100 98 93 87 86 82 77 76 72 65 64 64 64 62 60 59 58 62 58 54 62 64 66 66 65 66 69 69 71 74 73 71 69 65 63 58 55 54
104 103 101 99 99 99 100 100 96 98 100 100 100 97 93 89 87 86 81 77 68 68 67 64 65 65 61 54 56 58 51 56 61 57 61 68 71 69 72 72 73 75 75 72 69 67 64 62 60
106 107 106 108 108 105 104 103 101 104 106 104 101 96 96 92 88 87 87 84 79 74 71 69 69 70 67 65 58 64 56 60 58 59 57 60 65 68 70 72 74 75 77 75 72 70 68 66 63
89 92 98 103 105 104 104 106 111 110 109 107 104 100 99 96 95 86 89 89 87 81 76 73 74 74 72 68 66 66 62 60 63 68 58 59 63 66 70 72 70 75 73 75 74 73 71 70 67
86 89 90 92 93 95 95 96 110 116 113 105 103 103 102 99 100 93 89 91 90 88 86 82 78 77 77 73 71 69 68 67 67 66 62 61 63 71 69 67 68 74 69 67 71 77 76 70 68
88 86 83 81 82 85 91 91 101 107 105 100 100 103 105 104 101 97 96 95 95 92 90 88 85 81 80 79 77 76 69 71 72 70 67 61 65 63 67 70 66 72 72 70 68 72 77 73 73
77 81 84 82 84 83 87 82 90 91 90 90 88 94 100 99 98 99 96 98 97 95 96 94 90 88 89 85 83 82 79 74 71 74 70 59 64 64 66 68 68 70 74 76 79 77 77 76 76
75 77 78 81 76 73 78 73 79 79 78 82 82 83 88 88 88 85 91 94 96 95 98 100 96 96 93 90 89 88 85 80 77 77 75 67 67 65 65 66 68 65 69 70 72 76 78 71 72
71 76 67 70 64 61 70 70 63 64 62 61 66 67 73 75 77 77 82 87 94 98 102 101 102 103 98 95 92 90 89 85 82 79 79 73 69 65 67 68 68 68 69 70 69 69 72 73 73
59 60 59 60 57 54 50 57 51 48 49 53 56 59 62 67 69 71 75 79 88 93 99 103 103 104 101 98 97 94 94 91 87 81 80 78 73 66 71 70 64 70 68 69 70 68 71 70 73
50 50 49 50 47 43 39 45 41 41 43 49 50 54 56 59 61 64 65 70 79 84 91 96 97 98 98 93 93 93 93 90 88 85 82 78 77 71 68 68 70 68 70 71 69 66 62 61 59
41 37 38 36 34 31 28 31 33 32 34 38 41 44 48 53 58 60 66 70 73 78 82 82 87 89 90 90 90 88 88 89 87 86 81 80 78 70 69 66 62 60 61 67 67 69 60 61 60
27 30 32 30 29 27 26 27 28 30 31 32 34 39 45 49 53 58 61 66 68 69 72 74 75 79 82 80 83 84 84 84 84 84 80 80 78 73 66 62 59 70 73 78 74 72 79 74 68
23 22 22 22 23 19 21 20 23 28 30 33 36 38 42 45 47 49 51 55 57 59 64 69 70 71 72 72 75 77 79 82 82 82 80 77 75 72 64 64 74 82 76 81 82 82 83 74 73
8 11 13 15 15 15 12 13 11 14 21 27 31 36 42 45 47 46 44 45 47 51 54 58 61 61 61 63 68 73 76 79 81 79 80 76 71 69 66 68 76 78 85 90 89 86 92 86 79
8 13 12 11 11 11 10 8 7 6 7 11 17 25 33 40 46 46 45 44 45 47 50 55 56 56 56 56 60 65 66 68 70 71 71 68 67 67 67 69 78 93 96 98 98 87 89 91 89
7 4 4 10 11 11 10 11 9 9 6 3 7 15 23 31 37 41 45 47 48 46 46 47 49 52 55 56 58 59 59 62 65 63 63 64 69 68 66 69 76 78 86 82 74 79 84 87 92
12 9 12 14 15 17 17 16 16 17 13 8 4 4 11 20 27 33 38 41 45 43 39 38 39 43 46 46 48 53 56 61 60 59 60 63 69 68 69 67 71 73 74 79 83 79 78 78 79
20 17 19 19 22 21 19 24 22 21 17 19 22 9 1 7 13 19 23 29 35 39 41 40 40 39 40 41 45 49 53 53 55 56 60 64 66 68 69 68 67 70 79 88 85 93 89 89 90

GFSSGP_250_spd_102.txt.gz
Wind_Speed
46 45 43 39 33 34 36 40 45 44 45 44 45 46 46 51 59 59 58 60 59 57 57 57 55 53 51 48 46 43 42 40 41 39 37 35 35 35 34 33 30 30 28 26 23 22 22 21 21
54 50 48 44 40 38 44 43 39 39 44 45 43 41 44 45 51 51 54 57 60 61 63 62 61 61 58 54 50 48 47 45 43 43 41 39 38 38 37 34 30 27 27 26 25 24 23 23 22
59 57 54 50 50 48 48 48 47 45 43 44 42 42 43 47 44 46 47 51 55 59 62 64 65 65 64 63 58 54 53 52 48 45 46 45 44 43 40 37 34 31 27 29 27 25 26 27 26
64 63 60 58 58 58 54 51 49 47 49 46 45 43 35 45 44 45 45 42 47 53 56 58 59 60 65 64 61 59 60 58 56 53 51 48 47 47 45 42 37 35 33 31 30 30 29 30 30
70 69 67 67 64 66 62 56 54 52 51 50 48 46 50 44 44 42 49 42 49 49 47 51 53 56 58 62 63 62 62 62 59 58 56 52 52 49 50 47 43 40 38 35 34 33 33 31 31
76 73 73 71 71 70 66 65 63 61 58 54 54 54 49 48 47 49 49 52 40 51 47 52 52 54 55 56 58 57 60 62 66 64 61 58 54 56 55 52 50 48 45 41 38 37 36 34 34
81 78 79 79 75 75 72 71 70 69 67 65 62 60 56 56 54 53 54 50 47 51 47 47 48 45 44 46 53 54 55 58 63 65 65 66 61 59 60 57 54 52 50 48 45 42 40 39 37
87 85 85 83 81 78 79 76 76 76 75 73 69 67 66 60 61 58 59 57 55 39 52 57 43 48 38 43 43 49 46 53 56 61 64 67 68 66 64 63 60 59 56 51 50 48 45 43 42
93 90 89 87 86 83 82 82 82 82 79 78 79 76 73 70 65 65 63 62 59 53 44 50 57 49 45 44 45 45 49 44 49 58 60 65 67 67 69 68 66 63 63 59 55 53 51 49 47
89 92 92 90 90 87 87 86 87 87 86 89 85 83 80 78 73 67 68 68 64 62 59 47 56 51 51 50 49 51 48 47 48 51 58 62 62 65 68 71 71 69 67 65 61 58 57 55 52
89 88 87 89 90 90 92 91 91 93 92 91 90 90 87 87 81 75 71 72 72 68 67 64 60 56 59 55 56 55 53 46 52 51 53 57 59 63 67 67 73 72 70 72 66 62 61 59 58
93 93 93 91 91 90 90 93 94 92 95 98 97 96 93 90 86 83 79 76 75 76 72 69 67 61 61 60 57 60 63 52 49 56 55 60 62 60 61 65 68 69 73 75 72 68 66 64 63
100 100 100 99 97 95 94 95 95 98 101 96 98 97 97 95 92 89 86 82 79 80 78 78 73 70 68 70 66 61 58 57 53 52 59 58 61 60 63 66 65 64 68 72 74 75 72 68 67
97 103 104 104 102 99 96 99 103 107 104 100 100 101 98 96 95 91 91 91 85 83 84 83 82 78 74 73 69 62 60 57 61 59 56 53 54 61 63 65 66 67 67 67 68 72 75 73 71
86 87 94 100 104 103 102 101 113 113 110 107 104 103 103 102 98 94 89 90 89 86 87 89 88 84 81 77 71 65 63 60 58 58 64 60 59 59 56 58 62 66 68 69 68 68 73 76 78
85 87 92 90 90 91 94 93 112 116 113 110 106 109 107 102 98 94 91 89 91 90 87 90 91 90 87 84 76 73 69 63 61 58 61 60 64 63 62 64 64 66 65 68 69 66 68 73 79
86 86 87 89 85 87 89 89 98 107 107 103 103 105 108 106 101 100 95 92 91 92 91 91 92 94 93 90 85 80 75 69 66 64 67 68 65 61 64 66 67 68 65 68 67 68 67 68 75
83 83 87 89 86 80 82 80 87 98 97 95 95 98 99 95 98 95 93 89 88 92 93 94 93 94 95 94 91 86 83 75 71 71 70 71 68 66 61 62 64 66 71 72 67 73 70 69 69
84 84 81 82 80 76 80 75 76 85 88 90 91 92 90 88 89 87 85 87 85 89 92 96 99 97 97 96 93 90 86 82 79 78 75 73 73 71 69 67 65 64 65 67 67 65 66 69 68
82 78 77 82 80 69 70 70 73 75 80 83 83 80 83 82 80 82 74 77 84 86 93 98 99 103 100 98 94 92 90 88 86 87 83 80 79 76 73 75 73 67 66 66 64 68 70 67 68
68 66 67 67 67 66 64 62 68 68 72 74 70 71 71 73 75 76 67 70 78 77 85 93 101 103 104 101 98 94 94 92 90 90 86 84 83 82 81 79 79 73 69 68 69 67 69 69 69
64 61 61 57 54 54 55 53 55 57 62 59 57 58 59 61 68 68 63 70 74 75 80 88 93 100 108 105 106 101 96 93 95 94 91 90 89 89 89 86 83 79 75 72 69 68 64 66 72
48 44 45 43 39 38 39 42 40 43 43 43 42 44 47 51 58 57 56 63 67 69 72 80 88 93 98 107 105 100 96 97 98 97 95 93 94 93 91 89 88 84 78 75 73 70 68 67 71
33 33 34 34 33 33 31 32 31 32 34 34 34 35 37 41 45 48 51 55 59 63 65 70 76 81 85 93 100 104 101 100 102 102 101 99 97 95 92 91 89 85 80 76 74 70 73 72 72
24 25 24 25 23 20 21 23 26 27 30 31 31 32 32 32 36 39 46 51 57 57 58 61 63 67 75 79 93 105 110 110 108 103 101 100 94 90 89 89 84 81 78 77 76 70 73 73 67
17 13 11 12 12 13 13 17 18 21 23 24 26 28 32 33 32 32 39 43 46 50 53 56 58 59 63 68 74 82 90 94 95 94 93 90 88 87 86 81 78 77 74 74 72 69 70 66 64
10 6 3 6 7 10 11 12 9 12 10 12 16 19 24 31 34 34 35 39 42 44 46 49 52 54 57 60 65 70 74 76 77 79 79 79 75 75 77 77 76 75 74 73 69 67 65 68 73
4 4 4 5 6 8 11 9 10 7 4 6 3 6 13 19 26 31 36 36 38 41 42 44 45 48 50 52 56 61 66 68 70 70 69 69 71 73 72 75 75 76 74 69 66 70 67 76 79
9 6 10 10 10 13 15 16 17 21 17 11 8 4 2 8 16 22 27 31 33 34 36 39 42 45 46 47 49 51 54 57 58 61 66 67 67 68 69 68 70 67 67 67 67 70 75 80 84
15 14 15 15 16 20 22 20 14 21 25 23 10 10 10 8 4 6 14 23 31 35 34 35 38 42 43 44 47 49 50 52 54 59 58 58 58 59 60 60 61 61 62 66 68 73 76 86 95

GFSSGP_250_spd_105.txt.gz
Wind_Speed
44 42 39 37 35 34 33 33 39 39 40 39 38 39 44 49 51 49 52 53 53 52 52 51 49 47 46 44 44 44 43 41 37 36 35 35 34 34 35 32 32 33 30 27 27 24 23 22 22
49 48 46 42 40 41 38 36 35 38 39 37 38 38 40 42 44 45 49 54 54 53 53 54 56 55 54 51 49 49 49 47 44 41 39 40 39 38 37 37 35 35 33 28 27 24 24 24 23
56 53 52 49 50 48 44 41 37 36 37 37 39 40 38 41 43 45 47 49 51 53 56 57 57 58 58 58 56 54 54 53 52 51 46 42 42 43 41 40 38 38 37 33 30 27 26 25 24
63 61 58 57 56 53 49 47 45 42 40 41 42 40 39 42 40 42 46 46 47 49 51 52 55 58 59 59 60 59 60 60 58 55 50 48 47 47 46 44 43 42 41 38 36 33 29 28 29
67 67 65 64 61 58 54 52 52 50 48 47 46 44 45 42 41 41 44 45 45 47 49 49 52 52 53 54 58 60 58 59 59 58 57 55 54 51 49 49 48 47 46 43 40 39 36 33 32
72 71 70 69 67 64 62 59 59 59 55 55 52 51 45 45 48 44 44 48 48 46 43 48 51 50 51 51 52 53 54 54 57 59 60 59 58 58 58 53 52 51 48 48 46 43 41 39 36
76 76 75 74 72 69 68 67 65 66 64 61 60 57 54 52 49 48 53 52 52 48 44 46 44 48 50 52 51 51 52 53 54 55 56 59 60 62 61 59 56 56 56 53 51 50 47 44 42
78 76 78 77 75 76 75 74 73 69 69 67 67 65 63 61 57 56 54 54 54 56 54 43 48 47 50 49 50 48 48 48 51 54 53 52 57 64 68 66 63 60 58 59 56 54 53 51 50
80 80 81 82 82 80 81 81 78 76 76 74 70 70 71 72 66 64 61 61 60 58 56 57 49 51 51 50 49 49 45 46 44 48 52 52 52 53 59 65 67 66 63 61 62 60 58 55 52
84 86 84 87 89 86 86 85 82 85 81 83 79 78 76 76 73 70 67 69 67 66 63 59 61 54 54 57 53 56 53 50 48 48 49 50 51 53 56 58 62 64 66 67 67 67 65 63 59
89 89 86 83 83 88 89 90 89 90 91 90 87 83 81 81 78 77 76 76 73 72 69 66 62 60 58 57 62 55 58 51 49 49 52 53 52 52 53 55 56 57 64 69 70 71 69 66 65
92 92 90 88 86 84 86 91 90 91 100 93 90 89 86 85 86 83 82 82 82 81 78 72 69 67 63 60 63 69 65 58 56 56 54 53 56 55 55 53 51 52 55 60 65 68 72 71 71
96 98 95 94 92 91 89 91 88 94 90 91 93 92 92 90 89 89 87 86 86 86 84 79 75 72 70 70 68 68 67 62 61 57 58 56 49 54 56 56 57 58 57 54 55 60 66 70 73
82 89 94 96 95 95 95 95 99 99 94 94 91 93 93 94 93 92 90 90 91 91 89 85 81 78 76 75 75 73 73 70 68 62 56 61 55 50 53 57 59 56 56 55 55 57 60 64 69
78 79 83 90 95 96 97 99 106 105 101 102 101 102 102 100 99 98 98 93 92 91 89 90 88 84 83 80 78 78 78 73 70 67 66 63 60 53 52 54 53 54 56 57 59 61 59 62 64
77 78 79 81 82 84 90 95 106 105 104 106 109 110 110 109 107 105 103 98 94 94 93 92 88 86 86 85 83 80 80 79 74 69 71 69 66 63 59 60 58 59 57 58 60 61 63 63 63
74 74 77 79 80 82 83 86 95 97 96 97 101 107 110 110 111 110 106 103 100 94 95 92 91 91 90 88 87 86 84 83 84 82 73 71 67 68 62 61 63 66 65 61 61 62 63 64 65
72 73 75 76 76 76 78 77 86 89 91 94 98 101 102 104 109 108 104 98 97 94 89 93 93 93 96 91 89 89 88 87 87 85 81 75 70 71 68 66 63 66 63 64 64 62 61 64 66
75 79 79 81 80 81 81 76 79 79 84 94 98 95 97 100 99 91 85 90 93 95 91 89 93 93 95 93 93 91 91 89 87 85 86 84 80 77 75 70 69 71 67 65 63 61 60 60 66
81 82 83 85 84 83 82 81 77 80 85 87 84 86 90 89 84 83 82 86 80 83 85 76 81 86 92 97 98 98 97 91 89 89 89 90 90 83 79 78 75 72 69 68 65 66 65 64 64
82 84 83 85 86 82 74 75 72 76 70 76 73 75 76 74 72 74 71 70 69 75 82 74 76 83 88 93 99 99 100 97 93 93 91 90 91 91 87 85 81 79 76 76 72 71 70 71 69
82 81 79 75 67 61 56 58 64 62 63 66 64 65 65 64 62 61 61 62 63 68 74 64 68 78 81 86 94 103 107 101 96 95 92 93 93 95 94 91 85 82 81 82 77 77 77 78 77
64 61 60 54 52 51 49 48 54 54 55 55 53 50 48 48 47 46 51 57 60 61 64 63 70 75 81 86 89 95 102 104 101 95 95 95 93 92 92 94 90 88 86 83 84 83 83 82 80
53 50 44 43 40 38 39 40 46 43 44 44 43 39 36 36 37 39 43 46 49 53 58 62 68 76 80 82 86 89 91 97 101 98 96 96 99 97 94 94 93 93 91 91 90 89 85 85 85
37 33 32 30 28 30 32 32 33 34 32 34 35 32 30 31 32 34 37 41 44 46 49 54 59 64 70 72 76 76 79 85 91 97 101 100 102 101 99 97 98 99 97 97 94 90 91 90 87
21 20 21 20 22 22 20 20 20 22 23 27 30 29 27 26 29 31 31 35 40 44 48 50 52 56 60 63 67 72 76 80 83 86 95 101 103 104 103 102 102 102 99 97 95 95 92 92 85
11 12 14 15 13 11 10 10 12 16 19 23 25 24 22 20 23 27 29 30 33 36 40 45 46 48 49 55 61 66 72 77 82 85 88 95 102 107 107 106 104 105 103 99 101 99 94 88 82
6 5 4 4 4 5 6 7 13 12 10 13 12 11 12 13 16 21 26 26 27 30 33 34 38 41 45 48 53 57 62 67 72 77 81 85 90 95 100 106 107 106 105 101 97 90 84 80 74
15 12 9 5 5 8 6 9 17 20 18 16 13 7 3 5 8 11 17 23 24 26 28 31 32 34 36 40 45 50 53 56 60 63 67 70 72 76 82 86 89 90 89 86 80 79 75 75 75
22 22 15 13 12 15 13 11 17 18 19 18 19 14 12 6 1 5 9 12 18 21 23 25 27 29 31 33 36 40 45 49 53 56 60 62 65 68 69 72 74 74 72 71 72 73 75 75 77

GFSSGP_250_spd_108.txt.gz
Wind_Speed
41 37 36 35 34 30 28 29 30 31 33 35 37 38 39 42 48 52 55 54 53 52 51 50 47 45 44 42 43 42 41 39 36 34 31 31 31 31 31 30 33 34 31 30 30 30 28 25 22
43 45 43 40 38 37 34 33 31 31 29 28 34 34 35 35 38 41 47 52 52 51 51 51 50 50 49 49 46 46 46 45 44 43 41 39 36 35 35 35 34 35 37 36 37 34 31 29 25
50 49 48 46 45 44 40 37 36 35 36 33 33 33 35 37 38 39 40 46 49 50 50 52 52 52 51 52 52 53 52 51 50 47 46 44 42 41 40 39 40 40 39 39 38 37 33 32 29
53 52 55 55 52 49 46 44 43 42 42 40 37 34 35 36 40 40 42 43 44 46 47 49 53 54 55 54 54 54 55 57 56 54 52 52 50 48 46 44 42 43 43 43 41 39 38 36 35
59 57 55 58 58 56 53 52 51 47 46 45 43 40 38 36 38 38 39 42 44 45 45 45 47 50 52 54 56 57 58 60 60 60 58 57 56 54 51 49 48 48 48 46 45 45 43 41 39
66 64 64 61 60 60 60 60 57 53 51 51 49 46 44 44 43 43 44 43 43 44 45 45 45 46 47 49 52 53 56 58 59 61 60 59 59 57 55 53 52 51 50 50 50 49 47 46 42
69 68 70 69 64 62 63 65 63 61 59 58 57 53 52 52 52 48 48 47 47 46 46 49 45 45 41 45 47 50 50 52 54 54 55 56 58 61 61 58 58 56 56 57 56 54 53 49 48
75 72 74 75 71 70 68 67 67 65 66 67 67 63 59 59 57 58 54 54 50 51 50 50 50 50 45 42 44 49 49 49 51 51 52 54 51 52 54 58 60 60 60 60 61 59 57 57 53
82 81 80 79 78 76 74 72 74 70 68 72 71 68 67 64 64 64 64 60 61 57 56 53 52 54 54 49 46 45 48 51 50 50 50 51 51 49 51 53 55 58 62 64 64 64 61 60 60
87 86 86 85 83 80 77 76 77 74 75 78 75 75 75 73 71 68 69 68 68 67 65 62 59 57 59 57 57 53 50 55 52 48 48 45 45 48 49 50 50 51 53 60 67 70 70 66 63
88 89 89 87 85 84 81 79 79 79 81 77 80 81 80 80 78 76 74 75 73 73 74 70 68 65 64 62 60 60 57 55 56 54 52 50 49 47 48 49 51 51 50 51 57 59 66 67 67
92 88 88 88 88 87 84 83 82 85 84 81 81 82 83 86 86 83 83 80 82 81 80 78 75 72 69 69 66 66 62 60 62 60 60 57 54 54 52 51 54 53 53 54 50 53 56 61 66
97 96 95 94 91 90 89 88 88 91 89 85 83 84 84 87 89 88 87 87 87 88 87 85 82 80 77 77 74 70 69 67 64 64 61 64 60 60 57 55 57 55 53 54 56 53 50 51 53
92 92 88 93 95 95 94 95 95 95 93 92 90 91 92 88 89 92 92 92 90 90 93 91 87 86 84 83 82 78 73 71 72 65 67 65 62 64 62 61 60 58 57 57 59 57 55 52 51
78 85 89 89 88 89 93 96 100 98 96 100 101 99 98 97 98 98 98 94 93 92 93 94 94 90 88 88 87 85 82 79 76 72 69 69 68 62 64 67 65 58 55 56 55 58 56 55 53
73 74 75 80 81 80 86 88 97 97 95 98 103 102 103 105 106 105 104 102 101 97 96 96 94 94 93 91 91 91 87 84 81 79 74 76 76 77 72 67 64 64 59 58 58 57 58 56 59
72 70 71 71 71 71 77 78 84 87 87 90 93 99 103 106 110 110 109 108 109 107 105 100 100 99 96 94 93 92 91 87 86 84 81 81 78 81 75 72 72 66 65 59 60 61 60 60 61
74 73 74 72 71 72 73 74 82 83 85 87 91 94 98 102 105 107 106 107 108 107 107 102 97 100 101 96 95 94 94 89 87 86 88 85 83 84 81 75 79 73 72 71 69 68 67 64 66
77 76 75 75 74 75 77 76 77 78 76 80 85 90 95 101 103 100 101 102 99 96 96 97 93 91 98 100 98 97 94 95 93 91 90 86 86 93 85 78 81 79 77 75 73 69 69 70 68
79 80 80 79 77 77 80 80 80 76 78 82 87 89 94 99 95 92 93 95 92 89 87 88 89 87 86 94 101 98 99 99 97 97 93 91 90 96 84 83 84 85 83 79 78 74 72 73 73
81 83 84 83 82 82 82 84 86 84 87 87 83 81 82 85 78 76 79 80 77 74 70 73 77 80 76 80 91 96 98 99 100 99 99 95 92 95 87 84 87 85 85 83 83 82 80 79 74
72 75 77 79 82 83 81 81 86 87 81 76 75 73 72 72 69 68 66 64 64 60 63 65 69 69 62 69 79 84 86 95 105 104 100 100 96 95 90 87 88 89 86 87 88 87 87 84 80
63 65 68 68 70 71 69 69 75 72 68 68 67 64 66 60 51 49 48 48 48 49 53 59 61 58 60 68 80 79 85 90 95 105 109 101 98 96 94 91 89 91 89 91 88 91 92 90 87
54 56 56 55 57 58 59 61 58 55 56 57 54 54 54 48 43 42 44 45 43 43 45 50 53 55 61 68 74 85 93 87 93 98 97 92 96 99 99 98 95 95 95 93 92 92 92 97 93
44 44 44 44 43 43 45 45 45 45 45 46 46 45 43 37 34 32 35 38 37 37 38 41 43 49 55 66 80 81 86 80 89 90 84 80 88 97 103 105 102 100 97 97 98 96 95 94 95
30 30 31 33 32 33 34 33 33 34 36 34 35 36 36 33 30 28 28 29 31 33 33 35 37 41 49 59 65 70 69 69 71 73 67 72 79 87 94 104 106 105 104 102 101 99 97 97 94
18 21 22 22 23 24 23 23 21 19 15 18 19 22 24 24 24 24 25 27 27 28 28 29 33 38 43 49 57 63 68 71 73 74 75 74 76 82 88 92 97 103 108 107 103 102 102 102 100
6 7 9 13 15 14 12 8 9 11 13 15 15 14 12 14 16 17 19 20 23 23 24 25 27 30 34 39 45 50 55 61 65 69 72 74 75 78 81 85 89 93 99 105 107 107 106 104 104
15 16 13 9 7 5 5 8 11 15 14 13 17 16 13 11 11 13 14 12 14 16 16 19 22 24 27 31 36 40 43 47 52 58 63 68 72 74 77 79 81 85 88 93 99 101 103 103 106
35 32 29 26 24 20 15 14 15 18 18 14 18 19 18 18 15 10 11 14 14 14 13 13 14 17 20 23 28 32 36 39 43 48 53 60 66 71 75 79 81 84 86 88 90 92 95 97 99

GFSSGP_250_spd_111.txt.gz
Wind_Speed
39 37 36 34 30 30 31 28 31 29 29 33 34 35 34 36 41 42 48 49 49 49 48 47 46 46 45 45 43 43 41 39 39 38 37 34 32 29 28 28 29 29 31 33 33 31 30 28 28
43 43 38 38 34 34 32 33 31 30 29 29 27 28 31 35 37 36 38 42 46 49 52 52 51 49 48 49 48 47 45 45 41 41 41 40 38 36 33 33 32 32 33 34 35 35 34 35 35
49 46 44 45 38 40 30 41 36 35 33 32 30 30 30 32 34 34 36 38 38 41 44 47 50 51 48 50 50 50 50 49 47 46 46 45 44 43 41 39 39 37 38 38 38 37 38 37 35
55 51 52 46 45 43 40 41 42 41 38 38 36 33 34 33 32 33 36 38 37 36 37 41 45 48 47 49 50 52 53 54 52 51 50 51 50 48 46 45 46 46 43 44 43 42 41 40 38
60 58 55 52 50 47 46 48 46 46 46 44 41 38 39 39 38 36 34 35 36 36 37 38 40 44 47 48 52 54 54 54 56 56 55 54 53 53 52 52 52 52 50 48 47 45 45 44 43
67 63 61 59 53 52 52 51 52 51 50 50 50 47 44 44 43 42 40 38 39 39 38 38 41 42 44 45 47 50 52 54 56 59 61 60 59 60 58 56 57 56 54 51 49 50 50 49 47
70 69 67 66 63 59 58 55 53 54 56 58 56 54 53 50 49 47 46 45 45 44 44 42 44 42 43 44 46 48 47 51 51 53 56 59 62 62 63 62 60 58 58 56 53 52 54 52 52
76 75 70 67 67 67 65 61 60 60 60 61 59 61 58 57 57 56 54 53 51 51 50 49 48 47 47 46 47 46 46 44 43 47 49 50 51 53 52 52 53 58 61 61 59 52 59 58 58
80 75 76 73 70 71 69 67 66 67 69 66 64 64 63 64 64 63 63 62 59 57 57 57 54 53 53 51 50 49 51 49 45 43 43 46 48 47 48 48 48 50 53 53 55 58 59 61 64
82 81 77 78 78 76 76 75 74 74 75 71 71 69 69 69 68 68 69 70 69 67 64 64 64 60 60 57 55 54 54 59 53 49 49 47 47 46 45 42 43 46 50 51 53 53 54 60 64
85 84 84 81 81 79 79 79 80 82 79 77 78 73 73 72 72 74 74 74 74 74 72 72 69 70 67 66 64 61 59 58 59 59 57 54 52 49 46 46 45 45 44 46 47 49 48 49 55
87 87 85 85 85 85 83 84 86 88 84 84 83 82 80 78 78 77 78 75 80 81 81 81 81 78 77 74 73 72 67 63 65 64 60 56 54 56 53 51 52 52 49 48 46 47 47 48 48
91 88 88 89 88 88 89 88 88 90 87 86 86 86 84 82 83 82 82 83 80 82 87 87 87 85 83 82 81 79 77 72 68 70 68 65 60 55 58 56 57 57 56 55 52 49 48 49 50
91 93 93 90 91 92 92 92 92 92 92 89 87 91 92 89 89 88 88 88 89 86 87 90 89 91 92 89 88 87 85 81 76 76 75 73 69 66 61 60 55 62 60 59 56 55 53 55 56
88 90 93 95 93 93 96 98 98 97 98 96 96 95 95 96 97 95 95 97 96 97 95 94 94 92 92 92 92 92 91 89 84 83 82 76 77 73 70 65 65 60 58 61 59 58 56 57 57
81 83 87 86 88 90 94 94 94 95 97 98 99 99 99 102 103 104 106 106 106 104 103 102 102 101 97 95 95 93 94 94 91 89 87 86 84 80 77 74 70 72 67 61 64 64 64 64 60
79 79 80 78 81 81 84 85 91 92 93 97 101 103 106 107 107 108 110 111 112 114 111 109 106 104 104 102 101 99 95 95 94 94 94 90 89 86 80 81 76 78 79 71 68 66 64 66 62
81 79 80 79 77 78 80 77 81 79 81 84 88 90 94 99 102 105 107 108 106 107 107 107 109 108 105 107 107 102 101 98 95 95 94 92 93 91 87 85 83 85 87 81 76 72 72 71 66
79 81 82 81 79 80 79 79 81 80 81 82 83 86 88 92 96 101 102 105 107 107 103 103 104 106 106 102 105 105 105 104 100 100 96 94 92 94 91 91 90 91 94 81 81 81 78 77 74
84 81 81 83 80 80 84 85 86 86 85 85 86 86 88 90 91 93 100 106 102 97 93 94 95 93 94 94 91 93 102 104 104 105 103 97 91 90 91 92 93 94 95 87 85 84 81 80 81
84 88 86 85 85 85 85 88 91 87 89 89 87 87 86 86 91 97 99 98 94 91 89 85 83 82 82 85 80 81 86 91 94 102 106 106 97 93 94 94 91 92 94 92 90 86 84 84 84
79 83 84 86 86 86 82 79 85 86 83 79 78 78 83 88 89 84 78 76 74 72 71 71 69 71 74 75 73 74 78 86 86 90 100 102 104 101 98 98 95 95 99 96 90 89 86 88 88
60 69 76 79 80 78 74 73 75 75 75 75 76 77 76 77 69 66 63 61 58 58 57 54 56 60 65 67 67 69 76 80 73 88 97 99 100 102 106 105 104 102 102 102 95 91 83 88 91
49 52 56 60 64 66 68 69 69 66 65 65 64 64 65 64 57 55 55 51 48 48 47 42 43 46 54 59 60 58 64 73 80 89 93 97 99 101 102 104 108 103 102 102 101 99 92 90 92
47 49 52 52 53 50 51 53 52 52 52 52 53 55 57 56 52 42 40 39 40 39 40 38 37 38 43 50 50 55 64 72 76 84 92 99 96 95 95 96 99 99 103 104 104 104 104 101 98
36 37 38 39 40 40 39 38 37 38 39 40 45 48 46 44 39 33 33 32 33 31 29 30 29 31 34 39 44 51 61 71 79 90 96 94 79 82 84 84 86 90 97 103 108 109 109 107 105
21 23 20 21 22 22 23 25 25 28 28 27 24 25 26 28 27 26 29 29 26 25 23 24 27 26 28 30 36 44 51 58 67 77 71 60 63 67 73 76 79 82 85 91 96 102 110 112 108
5 3 4 5 5 9 12 13 15 19 21 16 18 21 21 24 24 23 23 24 23 24 23 20 19 20 23 26 30 36 44 53 59 64 65 63 66 69 71 72 73 77 81 85 89 94 98 105 110
28 27 24 22 20 17 13 12 14 18 19 20 24 26 28 28 28 28 26 21 20 21 21 20 19 16 16 19 25 29 33 39 44 47 51 55 61 66 68 70 72 74 76 79 82 86 90 93 98
25 24 22 19 19 20 19 19 20 19 20 22 25 28 29 30 32 32 29 27 25 20 18 17 17 17 16 16 18 22 26 30 35 40 43 47 50 54 58 64 69 73 75 78 81 83 86 89 91

GFSSGP_250_spd_114.txt.gz
Wind_Speed
37 36 35 31 32 30 32 29 30 29 30 32 31 33 32 33 37 35 42 44 45 46 47 49 49 47 44 42 42 40 39 38 36 36 37 35 34 34 32 29 27 27 29 29 29 29 28 27 26
41 39 37 35 34 35 33 29 26 32 28 27 27 28 29 33 32 32 33 35 37 40 44 46 47 46 44 43 42 43 43 43 42 41 41 40 38 37 36 35 34 30 30 32 32 32 33 32 30
49 44 44 43 39 38 31 32 37 34 30 30 29 28 29 31 29 29 31 33 34 35 36 37 41 44 46 48 49 46 46 48 48 46 45 43 42 42 41 39 39 37 36 37 37 35 37 38 37
53 50 47 44 44 38 36 38 40 35 35 34 34 30 33 32 33 31 30 31 31 32 32 31 35 36 39 44 46 48 49 49 51 50 48 47 47 47 47 46 46 45 43 41 42 42 42 42 41
59 56 53 51 48 40 42 44 42 42 38 38 37 37 38 36 36 34 34 35 34 33 32 32 31 34 36 37 41 45 47 47 48 50 50 52 52 51 51 51 51 50 48 48 46 49 48 47 46
65 62 61 60 50 47 48 49 45 44 45 44 43 40 43 42 43 42 40 37 38 37 38 36 36 35 35 34 38 39 43 46 49 51 53 53 55 56 54 55 55 54 52 52 51 51 52 52 50
73 69 64 64 55 60 55 53 51 50 48 50 47 48 47 48 49 47 47 46 45 43 41 42 43 43 41 40 39 38 39 42 45 47 48 49 53 55 58 61 62 59 57 58 57 56 56 55 53
78 76 72 68 62 63 62 60 58 57 55 54 53 52 48 53 54 54 54 53 51 51 50 47 47 48 49 47 46 45 43 41 41 41 43 43 44 48 52 55 54 56 58 57 54 55 55 56 57
72 74 76 73 68 70 67 66 66 64 62 60 60 58 56 58 56 57 58 58 58 57 56 57 56 55 53 53 52 51 51 50 47 44 43 45 44 41 41 46 46 46 44 46 48 48 48 52 58
80 78 75 73 77 75 71 69 70 70 68 66 66 65 63 63 65 63 63 63 64 64 65 64 64 63 63 61 59 59 57 56 55 52 50 51 52 50 46 44 44 44 44 42 45 44 46 50 54
82 80 82 78 77 78 79 78 74 74 72 71 73 72 72 72 71 74 69 70 69 69 71 71 72 71 70 69 69 65 65 63 62 60 58 57 56 57 55 54 52 48 47 43 44 42 41 43 46
85 83 81 83 81 79 78 78 81 79 75 75 78 77 78 80 80 79 80 75 75 76 76 76 76 77 78 77 75 74 73 71 69 67 64 63 61 60 60 59 56 51 51 48 49 51 49 45 44
86 85 83 82 83 85 85 84 84 82 83 82 82 84 84 83 83 84 85 84 82 82 82 81 79 80 82 82 81 82 81 79 77 75 74 71 68 67 65 64 61 56 53 55 54 54 54 55 50
89 88 87 86 84 83 84 84 85 84 86 86 86 86 87 88 87 87 89 91 88 87 88 89 87 87 87 87 87 86 84 87 86 82 81 81 77 75 73 70 68 66 61 56 53 53 54 57 57
90 92 92 90 90 88 88 87 86 89 89 88 90 91 92 93 93 94 94 95 95 96 96 97 99 96 94 94 94 93 91 89 87 87 86 86 85 84 82 76 73 71 69 67 61 56 50 54 58
81 83 84 84 87 89 91 91 92 95 94 96 96 95 96 98 98 99 100 103 104 103 104 103 103 104 103 101 99 99 99 96 93 91 89 91 90 91 89 86 81 79 76 75 71 67 56 53 56
77 76 76 78 78 82 85 87 92 90 92 94 97 96 96 98 100 104 106 107 109 110 110 110 110 110 107 106 106 106 104 102 101 99 95 94 94 95 95 93 89 86 85 81 78 78 74 71 67
84 81 81 80 79 85 86 88 93 90 89 92 94 95 96 98 100 98 101 103 105 108 111 113 113 112 112 111 110 109 109 109 108 108 101 102 102 97 93 95 94 95 89 88 84 85 84 79 79
80 81 80 82 80 84 87 86 88 88 88 86 86 88 91 95 95 96 97 101 104 107 107 105 105 106 104 104 106 106 109 108 104 112 110 107 105 101 96 93 93 97 95 92 92 91 92 87 87
80 81 81 83 85 86 88 88 88 89 89 90 90 89 92 92 94 98 103 104 106 105 102 101 103 104 103 101 100 98 99 97 97 101 103 104 107 103 100 96 95 94 97 96 96 96 99 94 93
78 84 87 87 88 90 91 91 92 93 93 94 94 92 93 94 95 97 100 100 98 98 98 98 98 96 95 91 89 90 92 91 89 88 90 90 101 104 107 103 101 101 96 95 100 99 100 101 95
50 54 62 71 77 81 83 85 89 92 91 88 88 88 88 87 85 88 90 89 89 88 87 82 77 74 75 75 73 78 79 79 83 79 84 80 85 88 99 108 105 101 103 101 100 101 106 103 102
51 53 56 59 61 64 67 69 75 76 76 75 73 74 75 78 79 79 77 73 72 70 69 66 63 63 62 62 60 62 67 74 72 70 74 75 75 85 86 103 104 104 109 112 107 103 105 104 102
50 53 55 54 54 53 56 57 58 59 59 60 62 64 65 63 63 62 59 56 56 54 51 50 49 50 48 46 46 49 53 55 60 64 68 71 70 75 99 97 101 102 103 106 109 111 107 104 102
49 51 53 53 54 55 55 52 51 51 50 50 49 48 47 44 42 44 44 40 38 40 39 40 40 41 38 38 37 37 41 45 48 56 66 66 77 84 97 104 107 102 103 100 102 104 108 108 105
48 49 45 42 42 42 41 40 39 35 32 30 27 28 29 29 25 27 28 27 28 31 29 30 32 32 30 30 31 30 30 34 41 51 60 67 79 86 97 104 104 101 99 92 92 94 94 98 106
27 27 25 25 25 24 22 21 18 12 12 16 15 14 17 19 20 25 28 30 27 24 25 25 25 27 26 24 23 25 26 26 33 41 52 62 72 80 89 97 84 77 77 81 85 90 90 92 95
6 6 8 5 2 1 5 8 8 8 8 9 11 13 16 20 23 26 29 31 33 30 26 26 23 20 23 24 21 20 23 26 30 35 35 47 55 60 63 62 55 58 66 77 82 82 87 89 92
17 16 16 16 15 14 14 12 10 10 12 14 15 17 19 20 24 27 29 28 28 31 31 26 25 25 22 20 21 20 17 21 26 31 37 44 47 47 47 53 58 64 72 75 76 78 81 84 87
21 20 19 18 17 16 14 12 13 15 17 21 23 25 26 29 30 30 29 30 33 32 29 31 30 25 24 25 23 21 21 21 23 25 30 36 40 45 51 55 58 62 65 68 72 74 78 81 82

GFSSGP_250_spd_117.txt.gz
Wind_Speed
40 36 35 36 38 41 36 32 36 34 38 35 33 33 34 34 33 34 36 35 37 37 38 41 44 45 43 41 41 43 41 41 40 38 38 37 35 34 31 31 31 31 29 28 27 26 26 25 25
39 38 35 34 32 34 28 25 33 34 33 31 28 27 29 27 28 30 30 30 31 30 33 38 42 43 44 45 45 44 43 43 42 42 39 40 38 37 38 36 34 35 34 33 31 29 30 30 29
44 40 39 38 36 33 30 29 37 34 31 31 30 28 26 25 24 23 24 26 27 29 29 31 32 33 36 39 43 44 43 44 46 46 44 44 44 43 42 42 39 38 38 38 37 35 34 35 35
50 46 43 42 36 34 33 36 40 36 34 35 33 30 31 31 27 28 28 27 28 28 29 29 29 30 30 28 32 37 43 45 48 48 48 49 48 49 47 46 44 42 43 43 42 43 42 41 40
55 52 49 47 41 37 42 42 40 38 40 37 34 33 34 34 33 31 32 33 32 32 33 32 32 30 31 29 28 28 31 38 44 48 49 51 51 51 50 49 49 48 47 49 48 47 47 46 45
62 59 57 54 45 44 48 45 39 45 42 42 38 38 37 37 37 36 37 37 37 38 38 36 36 36 36 34 36 34 33 32 35 39 44 47 50 50 51 51 52 53 52 53 53 52 51 51 50
67 66 64 58 51 50 55 51 48 45 46 46 43 40 44 47 41 43 42 42 41 42 43 44 43 42 41 41 40 40 39 38 37 34 36 41 45 48 49 52 54 54 56 57 56 53 53 55 54
74 69 66 60 58 59 62 59 57 52 52 50 48 47 50 50 48 48 48 48 47 46 46 49 49 48 48 48 48 48 48 45 43 43 41 40 40 40 43 45 45 50 52 54 58 59 61 62 63
69 67 63 60 67 69 67 64 61 59 59 58 57 55 55 57 54 54 53 52 53 52 52 51 52 54 53 53 54 55 55 54 53 51 49 47 46 43 43 42 42 41 41 44 46 49 51 54 56
71 70 70 70 64 64 72 72 69 65 64 63 63 63 62 63 62 60 61 60 59 59 61 60 58 60 61 60 60 61 61 60 61 59 57 55 54 52 51 49 47 46 47 44 39 39 41 45 49
75 76 79 72 71 67 65 72 72 71 71 71 68 66 68 66 68 69 67 66 65 67 68 70 69 70 67 67 66 69 69 68 66 66 65 64 61 60 58 58 57 54 53 52 50 47 46 43 41
80 79 77 76 73 71 72 73 73 72 70 71 74 74 74 76 72 72 74 74 75 75 77 78 79 79 78 75 73 72 73 74 74 74 71 72 70 67 66 65 63 62 59 57 56 56 52 49 46
82 83 81 80 75 76 77 77 78 78 79 78 77 77 78 79 79 77 77 79 82 82 82 84 85 85 85 82 82 80 79 78 78 78 79 78 76 76 73 72 69 67 67 64 60 60 59 56 53
85 82 82 79 78 77 77 79 81 81 82 83 84 83 81 81 83 84 85 88 88 88 88 89 90 92 92 91 89 88 85 85 84 83 82 82 83 81 81 80 76 74 73 71 67 65 64 62 60
86 84 84 81 80 79 79 79 82 83 85 84 84 84 88 89 87 90 90 89 90 93 94 95 96 95 97 96 98 96 93 93 91 90 90 89 87 88 85 86 86 82 81 78 75 71 69 65 62
88 87 87 89 88 89 90 91 88 88 88 89 88 87 86 88 90 91 93 95 97 99 101 103 104 105 105 103 102 102 101 100 99 99 97 97 95 93 92 91 90 89 87 86 82 79 78 76 71
77 83 86 87 87 89 87 88 89 90 91 94 93 92 92 94 95 97 99 102 104 105 107 108 109 110 110 110 107 106 107 108 107 106 107 104 102 102 99 96 95 93 89 91 88 86 83 83 80
84 82 79 82 85 87 84 84 90 91 90 92 93 95 97 97 98 100 102 103 104 106 109 111 112 113 112 111 112 111 109 108 110 109 111 111 108 107 106 103 99 99 96 92 91 91 87 91 89
84 86 86 86 87 88 88 85 88 89 87 88 89 91 93 97 100 102 102 102 104 105 105 105 105 104 106 111 111 109 108 108 109 109 104 108 107 107 108 106 104 103 101 98 98 91 95 95 95
78 81 81 82 82 83 87 86 88 92 93 92 91 92 94 94 96 97 98 99 102 104 104 106 105 107 109 109 108 105 101 100 98 97 94 96 100 97 100 99 98 99 101 102 103 99 96 96 99
63 71 79 81 82 82 84 84 87 88 89 91 93 93 94 95 98 101 102 102 103 102 99 98 97 98 96 92 91 90 90 89 88 88 88 90 92 92 92 95 89 93 95 99 103 106 105 98 100
51 58 66 72 77 80 83 84 89 91 92 92 92 92 91 89 88 86 84 83 84 84 83 81 80 79 75 74 73 73 74 75 78 79 80 80 84 83 82 87 85 81 89 93 99 102 105 108 106
43 46 50 54 57 61 63 63 63 69 71 70 69 68 66 63 62 63 66 68 68 68 69 66 63 62 61 61 60 61 59 62 65 68 70 72 73 72 74 74 73 86 85 98 100 100 102 104 105
45 47 50 54 55 54 57 53 56 54 54 53 56 58 56 54 52 51 50 48 46 49 52 51 51 50 48 48 48 48 49 51 53 55 56 61 64 67 66 67 68 88 94 89 100 100 104 99 100
47 49 48 47 48 50 50 48 51 54 51 49 47 45 42 38 34 29 27 29 32 32 33 36 38 39 39 41 41 41 42 40 39 42 46 48 52 58 62 63 67 76 94 98 107 107 110 100 102
42 44 44 44 46 46 44 43 43 41 37 34 30 25 18 13 11 12 17 21 26 29 28 27 28 30 31 29 29 30 32 33 34 37 41 40 44 52 60 65 70 80 90 104 106 107 112 105 100
34 30 28 28 27 25 23 22 21 18 14 10 5 6 8 12 15 21 22 26 28 30 32 31 29 27 26 25 20 23 26 25 29 29 33 34 35 43 51 61 68 79 90 98 99 100 104 101 96
7 8 11 9 7 5 5 4 2 2 3 7 9 12 15 17 19 22 24 26 27 28 29 31 32 30 28 25 24 21 19 20 23 26 27 30 30 33 42 53 62 74 82 90 95 95 90 88 91
14 13 11 11 11 13 13 14 14 14 14 15 17 18 20 22 24 25 26 27 30 33 34 34 33 32 33 32 28 23 24 20 18 21 22 22 27 30 33 39 46 53 60 65 71 73 67 70 79
35 35 35 34 34 33 31 31 29 29 28 27 26 27 28 29 31 33 34 35 36 37 37 36 35 35 34 32 32 30 27 23 20 19 20 24 25 28 32 37 43 49 50 54 60 60 67 73 81

GFSSGP_250_spd_120.txt.gz
Wind_Speed
39 40 40 41 37 35 37 41 42 45 44 43 43 43 41 38 35 35 37 35 34 33 33 34 38 40 41 42 42 42 42 41 40 41 40 37 36 34 33 33 32 31 30 30 28 27 26 25 23
39 39 38 38 33 28 33 38 40 39 37 34 29 31 32 31 28 27 29 28 28 28 28 29 30 33 36 41 43 44 43 42 43 44 43 40 41 40 38 37 36 36 35 34 32 32 32 31 29
44 43 41 37 34 31 33 34 34 33 33 29 27 29 29 26 25 24 25 26 25 24 25 26 26 26 28 31 34 37 42 45 46 46 43 42 44 44 41 40 39 38 39 40 38 35 37 35 36
48 46 43 38 34 32 35 35 35 36 34 33 32 32 32 29 30 30 28 28 28 29 27 26 26 27 26 27 28 31 31 34 39 43 44 44 45 47 47 47 45 46 45 44 44 42 40 41 40
54 51 46 44 39 37 38 37 40 39 36 36 35 35 36 35 33 32 32 32 32 32 33 32 31 31 32 29 29 29 28 28 30 33 37 43 47 49 50 50 50 49 49 47 47 45 45 46 46
60 58 54 48 45 42 41 42 43 43 42 39 38 38 38 38 37 35 35 36 37 37 36 36 35 35 36 35 34 34 34 34 33 32 32 32 38 42 47 49 51 51 50 51 51 49 50 52 51
66 64 60 54 50 48 48 49 46 46 46 41 41 43 43 43 40 40 39 39 38 39 40 42 42 43 43 42 43 41 40 39 40 38 39 39 38 38 38 41 46 49 50 51 52 53 53 53 55
72 68 63 58 56 55 59 55 52 50 51 48 46 48 49 47 44 45 45 45 44 45 45 45 46 47 47 46 47 48 47 46 47 46 46 45 45 44 44 42 40 39 43 49 51 53 53 54 55
70 66 67 66 63 65 64 59 56 57 56 55 54 56 56 54 51 51 51 50 52 52 51 52 52 52 52 53 53 53 53 53 53 52 53 54 53 52 51 51 49 44 42 42 45 46 46 50 52
72 69 67 68 72 70 65 63 63 63 63 62 61 59 61 62 60 60 60 59 61 61 60 58 61 60 58 58 60 60 60 61 60 60 60 61 60 60 58 58 57 55 52 47 45 45 42 39 40
74 71 69 69 68 66 68 67 65 64 64 67 68 66 67 67 66 66 65 67 68 68 68 68 68 66 67 67 68 68 68 70 70 69 68 66 66 66 66 65 64 62 59 56 55 53 51 48 48
80 77 74 71 69 70 70 68 69 68 69 66 64 65 68 73 72 70 71 73 75 75 75 74 75 75 75 75 76 77 77 78 78 79 77 74 72 71 72 72 71 70 68 64 62 61 60 58 55
82 79 76 74 74 73 72 72 72 75 75 74 70 68 68 70 71 75 76 78 78 79 82 84 84 85 84 84 85 86 86 85 85 86 85 82 80 78 79 78 78 76 75 72 70 68 67 66 64
82 80 80 79 78 77 77 76 75 77 77 77 77 76 77 77 81 83 84 85 85 87 87 87 88 90 92 93 93 93 93 91 91 91 91 91 88 86 84 83 84 82 79 77 76 74 73 72 71
87 85 82 80 80 81 80 80 81 82 82 80 79 78 78 79 83 84 87 89 89 92 94 96 97 98 98 98 98 96 97 97 96 97 96 94 95 93 90 90 89 88 86 82 81 80 78 80 78
87 87 85 85 84 84 84 84 83 83 83 83 83 82 81 83 86 89 90 91 93 94 96 98 98 100 101 101 102 103 103 103 106 107 106 103 100 101 99 97 93 93 92 89 86 86 84 85 83
83 85 88 88 89 86 85 85 85 85 85 88 88 88 89 91 93 93 94 97 99 100 100 102 104 106 107 108 109 111 111 112 113 112 112 111 110 109 106 103 101 99 97 95 93 93 93 91 87
84 82 83 85 86 87 88 88 88 88 88 91 92 95 95 94 95 97 97 97 100 103 103 103 106 108 110 112 114 115 116 119 119 118 116 115 115 113 111 110 107 104 102 101 100 98 99 100 95
78 77 79 81 81 80 78 80 90 87 86 87 89 93 96 99 99 99 98 101 100 100 100 103 106 108 110 111 111 113 113 111 111 111 112 112 109 108 107 105 105 102 99 98 99 100 102 103 103
73 73 76 76 77 78 84 84 86 90 91 92 95 97 94 94 97 96 95 97 97 99 100 102 103 106 108 110 109 107 106 105 107 106 103 102 101 101 101 99 98 96 92 91 90 91 94 102 105
68 72 70 69 71 72 76 78 82 85 86 90 92 92 93 94 95 95 96 95 96 94 93 92 91 91 92 91 90 89 88 89 89 88 88 87 87 88 90 90 88 90 91 92 93 92 92 94 99
45 53 58 63 68 70 74 75 82 85 85 88 88 90 90 90 87 82 79 78 79 76 75 72 70 74 74 73 73 72 71 72 72 75 76 77 77 77 79 83 81 81 83 85 89 92 92 93 95
29 35 44 51 55 60 64 64 64 70 71 69 69 68 68 70 70 66 64 65 64 61 58 53 53 59 62 62 62 61 59 60 57 58 60 65 66 66 68 72 74 74 76 80 84 87 92 96 100
33 36 43 49 54 55 57 56 59 63 65 64 63 63 62 59 58 56 54 53 49 41 39 38 38 41 45 50 52 52 52 52 51 50 50 50 52 55 57 59 62 63 66 68 69 85 90 102 104
38 42 46 49 53 55 57 53 57 56 57 56 54 51 48 47 47 44 38 34 28 30 33 35 36 36 34 35 39 42 44 44 45 44 42 43 42 43 47 51 53 53 54 60 68 79 90 98 101
37 41 45 48 50 49 45 42 42 39 37 36 34 31 30 29 27 22 22 25 28 31 34 36 39 40 39 37 35 37 36 35 37 41 39 35 36 39 41 43 43 47 52 58 67 79 86 94 98
26 16 10 10 10 9 11 11 11 11 11 12 12 14 15 18 22 24 27 30 30 32 34 37 38 38 38 37 38 37 35 33 32 31 28 27 29 31 34 37 38 40 48 58 64 73 79 88 97
10 10 11 11 13 12 10 8 6 5 5 7 9 11 14 14 16 18 20 22 23 24 25 28 30 32 34 34 34 36 37 35 34 32 28 23 24 25 25 25 27 33 41 53 62 70 78 88 92
31 31 30 29 28 28 27 27 26 25 24 23 22 22 22 23 23 24 24 25 27 29 31 31 33 34 33 33 33 33 35 34 33 31 31 31 25 22 21 21 22 27 32 41 57 67 76 82 89
50 50 50 50 48 47 48 51 49 48 44 42 41 39 38 36 35 34 33 33 34 35 36 38 38 38 38 38 37 36 33 33 33 32 31 28 28 28 24 22 26 28 33 38 42 49 53 63 72